<?xml version="1.0" encoding="UTF-8" standalone="no" ?>
<gpx xmlns="http://www.topografix.com/GPX/1/1" xmlns:xsi="http://www.w3.org/2001/XMLSchema-instance" xsi:schemaLocation="http://www.topografix.com/GPX/1/1 http://www.topografix.com/GPX/1/1/gpx.xsd" version="1.1" creator="VisuGPX - https://www.visugpx.com">
  <metadata>
    <name>VTT départ saran</name>
  </metadata>
  <wpt lat="47.95924" lon="1.89547">
    <ele>131.6</ele>
  </wpt>
  <trk>
    <name><![CDATA[VTT départ saran_1]]></name>
    <trkseg>
      <trkpt lat="47.99423" lon="1.99024">
        <ele>133.49761962891</ele>
        <time>2015-09-01T14:36:14.000Z</time>
      </trkpt>
      <trkpt lat="47.99431" lon="1.99016">
        <ele>136.18537902832</ele>
        <time>2015-09-01T14:36:17.000Z</time>
      </trkpt>
      <trkpt lat="47.99436" lon="1.99006">
        <ele>137.45645141602</ele>
        <time>2015-09-01T14:36:19.000Z</time>
      </trkpt>
      <trkpt lat="47.99443" lon="1.9899">
        <ele>137.14575195312</ele>
        <time>2015-09-01T14:36:22.000Z</time>
      </trkpt>
      <trkpt lat="47.9945" lon="1.98982">
        <ele>141.72636413574</ele>
        <time>2015-09-01T14:36:24.000Z</time>
      </trkpt>
      <trkpt lat="47.99456" lon="1.9897">
        <ele>140.91339111328</ele>
        <time>2015-09-01T14:36:26.000Z</time>
      </trkpt>
      <trkpt lat="47.99467" lon="1.98953">
        <ele>144.63890075684</ele>
        <time>2015-09-01T14:36:29.000Z</time>
      </trkpt>
      <trkpt lat="47.99474" lon="1.98936">
        <ele>151.07514953613</ele>
        <time>2015-09-01T14:36:32.000Z</time>
      </trkpt>
      <trkpt lat="47.99479" lon="1.98923">
        <ele>152.40090942383</ele>
        <time>2015-09-01T14:36:34.000Z</time>
      </trkpt>
      <trkpt lat="47.99482" lon="1.98912">
        <ele>151.23805236816</ele>
        <time>2015-09-01T14:36:36.000Z</time>
      </trkpt>
      <trkpt lat="47.99492" lon="1.98892">
        <ele>149.84788513184</ele>
        <time>2015-09-01T14:36:39.000Z</time>
      </trkpt>
      <trkpt lat="47.99498" lon="1.98872">
        <ele>149.09564208984</ele>
        <time>2015-09-01T14:36:42.000Z</time>
      </trkpt>
      <trkpt lat="47.99501" lon="1.98862">
        <ele>148.94714355469</ele>
        <time>2015-09-01T14:36:44.000Z</time>
      </trkpt>
      <trkpt lat="47.99507" lon="1.98849">
        <ele>151.78845214844</ele>
        <time>2015-09-01T14:36:47.000Z</time>
      </trkpt>
      <trkpt lat="47.99516" lon="1.98838">
        <ele>148.17291259766</ele>
        <time>2015-09-01T14:36:49.000Z</time>
      </trkpt>
      <trkpt lat="47.99525" lon="1.98816">
        <ele>145.88014221191</ele>
        <time>2015-09-01T14:36:52.000Z</time>
      </trkpt>
      <trkpt lat="47.99536" lon="1.98796">
        <ele>147.95388793945</ele>
        <time>2015-09-01T14:36:55.000Z</time>
      </trkpt>
      <trkpt lat="47.99546" lon="1.98781">
        <ele>152.0368347168</ele>
        <time>2015-09-01T14:36:58.000Z</time>
      </trkpt>
      <trkpt lat="47.99553" lon="1.98769">
        <ele>158.24591064453</ele>
        <time>2015-09-01T14:37:01.000Z</time>
      </trkpt>
      <trkpt lat="47.99556" lon="1.98758">
        <ele>154.79267883301</ele>
        <time>2015-09-01T14:37:04.000Z</time>
      </trkpt>
      <trkpt lat="47.99561" lon="1.98752">
        <ele>153.06288146973</ele>
        <time>2015-09-01T14:37:07.000Z</time>
      </trkpt>
      <trkpt lat="47.99565" lon="1.98745">
        <ele>154.88243103027</ele>
        <time>2015-09-01T14:37:10.000Z</time>
      </trkpt>
      <trkpt lat="47.99571" lon="1.9874">
        <ele>158.39726257324</ele>
        <time>2015-09-01T14:37:12.000Z</time>
      </trkpt>
      <trkpt lat="47.99578" lon="1.98728">
        <ele>155.16973876953</ele>
        <time>2015-09-01T14:37:15.000Z</time>
      </trkpt>
      <trkpt lat="47.99583" lon="1.98718">
        <ele>154.85043334961</ele>
        <time>2015-09-01T14:37:18.000Z</time>
      </trkpt>
      <trkpt lat="47.99585" lon="1.98715">
        <ele>157.32678222656</ele>
        <time>2015-09-01T14:37:21.000Z</time>
      </trkpt>
      <trkpt lat="47.99588" lon="1.98712">
        <ele>158.89663696289</ele>
        <time>2015-09-01T14:37:24.000Z</time>
      </trkpt>
      <trkpt lat="47.99589" lon="1.98711">
        <ele>159.14491271973</ele>
        <time>2015-09-01T14:37:29.000Z</time>
      </trkpt>
      <trkpt lat="47.9959" lon="1.9871">
        <ele>157.962890625</ele>
        <time>2015-09-01T14:37:36.000Z</time>
      </trkpt>
      <trkpt lat="47.99591" lon="1.98709">
        <ele>156.59658813477</ele>
        <time>2015-09-01T14:37:40.000Z</time>
      </trkpt>
      <trkpt lat="47.99595" lon="1.98702">
        <ele>158.0272064209</ele>
        <time>2015-09-01T14:37:43.000Z</time>
      </trkpt>
      <trkpt lat="47.996" lon="1.98694">
        <ele>157.6927947998</ele>
        <time>2015-09-01T14:37:45.000Z</time>
      </trkpt>
      <trkpt lat="47.9962" lon="1.98658">
        <ele>160.6763458252</ele>
        <time>2015-09-01T14:37:49.000Z</time>
      </trkpt>
      <trkpt lat="47.9963" lon="1.98637">
        <ele>152.51623535156</ele>
        <time>2015-09-01T14:37:52.000Z</time>
      </trkpt>
      <trkpt lat="47.99638" lon="1.98617">
        <ele>147.74371337891</ele>
        <time>2015-09-01T14:37:55.000Z</time>
      </trkpt>
      <trkpt lat="47.99644" lon="1.98607">
        <ele>146.94519042969</ele>
        <time>2015-09-01T14:37:57.000Z</time>
      </trkpt>
      <trkpt lat="47.99649" lon="1.98599">
        <ele>147.33883666992</ele>
        <time>2015-09-01T14:37:59.000Z</time>
      </trkpt>
      <trkpt lat="47.99655" lon="1.98588">
        <ele>149.12269592285</ele>
        <time>2015-09-01T14:38:01.000Z</time>
      </trkpt>
      <trkpt lat="47.99659" lon="1.98577">
        <ele>149.94868469238</ele>
        <time>2015-09-01T14:38:03.000Z</time>
      </trkpt>
      <trkpt lat="47.99665" lon="1.98566">
        <ele>150.9476776123</ele>
        <time>2015-09-01T14:38:06.000Z</time>
      </trkpt>
      <trkpt lat="47.99669" lon="1.9856">
        <ele>150.97875976562</ele>
        <time>2015-09-01T14:38:08.000Z</time>
      </trkpt>
      <trkpt lat="47.99677" lon="1.98547">
        <ele>147.08113098145</ele>
        <time>2015-09-01T14:38:11.000Z</time>
      </trkpt>
      <trkpt lat="47.99682" lon="1.98538">
        <ele>146.75158691406</ele>
        <time>2015-09-01T14:38:13.000Z</time>
      </trkpt>
      <trkpt lat="47.99687" lon="1.9853">
        <ele>148.8616027832</ele>
        <time>2015-09-01T14:38:16.000Z</time>
      </trkpt>
      <trkpt lat="47.99689" lon="1.98526">
        <ele>149.0047454834</ele>
        <time>2015-09-01T14:38:19.000Z</time>
      </trkpt>
      <trkpt lat="47.99692" lon="1.98518">
        <ele>149.7082824707</ele>
        <time>2015-09-01T14:38:21.000Z</time>
      </trkpt>
      <trkpt lat="47.99698" lon="1.98502">
        <ele>149.3405456543</ele>
        <time>2015-09-01T14:38:24.000Z</time>
      </trkpt>
      <trkpt lat="47.99704" lon="1.9849">
        <ele>152.81549072266</ele>
        <time>2015-09-01T14:38:26.000Z</time>
      </trkpt>
      <trkpt lat="47.99712" lon="1.98475">
        <ele>155.86978149414</ele>
        <time>2015-09-01T14:38:29.000Z</time>
      </trkpt>
      <trkpt lat="47.99723" lon="1.98451">
        <ele>158.15180969238</ele>
        <time>2015-09-01T14:38:32.000Z</time>
      </trkpt>
      <trkpt lat="47.9973" lon="1.9844">
        <ele>156.31254577637</ele>
        <time>2015-09-01T14:38:34.000Z</time>
      </trkpt>
      <trkpt lat="47.99739" lon="1.98425">
        <ele>155.75566101074</ele>
        <time>2015-09-01T14:38:37.000Z</time>
      </trkpt>
      <trkpt lat="47.99744" lon="1.98415">
        <ele>157.24502563477</ele>
        <time>2015-09-01T14:38:39.000Z</time>
      </trkpt>
      <trkpt lat="47.99753" lon="1.98399">
        <ele>156.99411010742</ele>
        <time>2015-09-01T14:38:42.000Z</time>
      </trkpt>
      <trkpt lat="47.99764" lon="1.98387">
        <ele>155.7947845459</ele>
        <time>2015-09-01T14:38:45.000Z</time>
      </trkpt>
      <trkpt lat="47.99774" lon="1.98374">
        <ele>160.06814575195</ele>
        <time>2015-09-01T14:38:47.000Z</time>
      </trkpt>
      <trkpt lat="47.9978" lon="1.98358">
        <ele>158.91304016113</ele>
        <time>2015-09-01T14:38:50.000Z</time>
      </trkpt>
      <trkpt lat="47.99781" lon="1.98346">
        <ele>157.8267364502</ele>
        <time>2015-09-01T14:38:52.000Z</time>
      </trkpt>
      <trkpt lat="47.99785" lon="1.98337">
        <ele>155.9539642334</ele>
        <time>2015-09-01T14:38:54.000Z</time>
      </trkpt>
      <trkpt lat="47.99793" lon="1.98325">
        <ele>155.47241210938</ele>
        <time>2015-09-01T14:38:57.000Z</time>
      </trkpt>
      <trkpt lat="47.99801" lon="1.98312">
        <ele>154.89198303223</ele>
        <time>2015-09-01T14:39:00.000Z</time>
      </trkpt>
      <trkpt lat="47.99809" lon="1.98295">
        <ele>150.48329162598</ele>
        <time>2015-09-01T14:39:03.000Z</time>
      </trkpt>
      <trkpt lat="47.99817" lon="1.98272">
        <ele>153.86410522461</ele>
        <time>2015-09-01T14:39:06.000Z</time>
      </trkpt>
      <trkpt lat="47.99825" lon="1.98265">
        <ele>155.40582275391</ele>
        <time>2015-09-01T14:39:08.000Z</time>
      </trkpt>
      <trkpt lat="47.99832" lon="1.98253">
        <ele>155.64215087891</ele>
        <time>2015-09-01T14:39:10.000Z</time>
      </trkpt>
      <trkpt lat="47.99841" lon="1.98235">
        <ele>150.5004119873</ele>
        <time>2015-09-01T14:39:13.000Z</time>
      </trkpt>
      <trkpt lat="47.99847" lon="1.98221">
        <ele>151.45378112793</ele>
        <time>2015-09-01T14:39:16.000Z</time>
      </trkpt>
      <trkpt lat="47.99852" lon="1.98211">
        <ele>152.85444641113</ele>
        <time>2015-09-01T14:39:18.000Z</time>
      </trkpt>
      <trkpt lat="47.99862" lon="1.98201">
        <ele>150.74157714844</ele>
        <time>2015-09-01T14:39:21.000Z</time>
      </trkpt>
      <trkpt lat="47.99869" lon="1.98193">
        <ele>150.68246459961</ele>
        <time>2015-09-01T14:39:23.000Z</time>
      </trkpt>
      <trkpt lat="47.99874" lon="1.98173">
        <ele>153.65106201172</ele>
        <time>2015-09-01T14:39:26.000Z</time>
      </trkpt>
      <trkpt lat="47.99875" lon="1.98164">
        <ele>154.11494445801</ele>
        <time>2015-09-01T14:39:28.000Z</time>
      </trkpt>
      <trkpt lat="47.99878" lon="1.98156">
        <ele>152.02381896973</ele>
        <time>2015-09-01T14:39:30.000Z</time>
      </trkpt>
      <trkpt lat="47.99891" lon="1.98146">
        <ele>149.64263916016</ele>
        <time>2015-09-01T14:39:33.000Z</time>
      </trkpt>
      <trkpt lat="47.999" lon="1.98133">
        <ele>148.06567382812</ele>
        <time>2015-09-01T14:39:36.000Z</time>
      </trkpt>
      <trkpt lat="47.99905" lon="1.98124">
        <ele>146.51277160645</ele>
        <time>2015-09-01T14:39:38.000Z</time>
      </trkpt>
      <trkpt lat="47.9991" lon="1.98107">
        <ele>142.1374206543</ele>
        <time>2015-09-01T14:39:41.000Z</time>
      </trkpt>
      <trkpt lat="47.99912" lon="1.98098">
        <ele>138.59284973145</ele>
        <time>2015-09-01T14:39:43.000Z</time>
      </trkpt>
      <trkpt lat="47.9991" lon="1.98092">
        <ele>135.07032775879</ele>
        <time>2015-09-01T14:39:46.000Z</time>
      </trkpt>
      <trkpt lat="47.99907" lon="1.98086">
        <ele>134.41812133789</ele>
        <time>2015-09-01T14:39:49.000Z</time>
      </trkpt>
      <trkpt lat="47.99905" lon="1.98078">
        <ele>136.47808837891</ele>
        <time>2015-09-01T14:39:52.000Z</time>
      </trkpt>
      <trkpt lat="47.99904" lon="1.98073">
        <ele>136.69995117188</ele>
        <time>2015-09-01T14:39:54.000Z</time>
      </trkpt>
      <trkpt lat="47.99901" lon="1.98069">
        <ele>139.05461120605</ele>
        <time>2015-09-01T14:39:56.000Z</time>
      </trkpt>
      <trkpt lat="47.999" lon="1.98066">
        <ele>139.56732177734</ele>
        <time>2015-09-01T14:39:58.000Z</time>
      </trkpt>
      <trkpt lat="47.99899" lon="1.98065">
        <ele>139.47981262207</ele>
        <time>2015-09-01T14:40:01.000Z</time>
      </trkpt>
      <trkpt lat="47.99899" lon="1.98067">
        <ele>138.99858093262</ele>
        <time>2015-09-01T14:40:18.000Z</time>
      </trkpt>
      <trkpt lat="47.999" lon="1.98068">
        <ele>137.73495483398</ele>
        <time>2015-09-01T14:40:23.000Z</time>
      </trkpt>
      <trkpt lat="47.999" lon="1.98069">
        <ele>137.36689758301</ele>
        <time>2015-09-01T14:40:26.000Z</time>
      </trkpt>
      <trkpt lat="47.99901" lon="1.98071">
        <ele>136.08067321777</ele>
        <time>2015-09-01T14:40:30.000Z</time>
      </trkpt>
      <trkpt lat="47.99901" lon="1.98073">
        <ele>135.42579650879</ele>
        <time>2015-09-01T14:40:34.000Z</time>
      </trkpt>
      <trkpt lat="47.99902" lon="1.98077">
        <ele>134.40655517578</ele>
        <time>2015-09-01T14:40:38.000Z</time>
      </trkpt>
      <trkpt lat="47.99902" lon="1.98079">
        <ele>133.83627319336</ele>
        <time>2015-09-01T14:40:47.000Z</time>
      </trkpt>
      <trkpt lat="47.99902" lon="1.98081">
        <ele>132.81005859375</ele>
        <time>2015-09-01T14:40:55.000Z</time>
      </trkpt>
      <trkpt lat="47.99901" lon="1.98082">
        <ele>133.36250305176</ele>
        <time>2015-09-01T14:40:58.000Z</time>
      </trkpt>
      <trkpt lat="47.999" lon="1.98082">
        <ele>134.51756286621</ele>
        <time>2015-09-01T14:41:02.000Z</time>
      </trkpt>
      <trkpt lat="47.999" lon="1.98082">
        <ele>134.84992980957</ele>
        <time>2015-09-01T14:41:22.000Z</time>
      </trkpt>
      <trkpt lat="47.99901" lon="1.98082">
        <ele>132.02294921875</ele>
        <time>2015-09-01T14:41:50.000Z</time>
      </trkpt>
      <trkpt lat="47.99903" lon="1.98083">
        <ele>130.46267700195</ele>
        <time>2015-09-01T14:41:59.000Z</time>
      </trkpt>
      <trkpt lat="47.99903" lon="1.98083">
        <ele>134.84571838379</ele>
        <time>2015-09-01T14:42:19.000Z</time>
      </trkpt>
      <trkpt lat="47.99901" lon="1.98083">
        <ele>127.44137573242</ele>
        <time>2015-09-01T14:43:06.000Z</time>
      </trkpt>
      <trkpt lat="47.99899" lon="1.98083">
        <ele>125.1801071167</ele>
        <time>2015-09-01T14:43:08.000Z</time>
      </trkpt>
      <trkpt lat="47.99899" lon="1.98083">
        <ele>134.80279541016</ele>
        <time>2015-09-01T14:43:28.000Z</time>
      </trkpt>
      <trkpt lat="47.99901" lon="1.98082">
        <ele>125.07120513916</ele>
        <time>2015-09-01T14:43:50.000Z</time>
      </trkpt>
      <trkpt lat="47.99902" lon="1.98081">
        <ele>126.58517456055</ele>
        <time>2015-09-01T14:43:56.000Z</time>
      </trkpt>
      <trkpt lat="47.99904" lon="1.98081">
        <ele>128.21653747559</ele>
        <time>2015-09-01T14:44:16.000Z</time>
      </trkpt>
      <trkpt lat="47.99904" lon="1.98081">
        <ele>134.91998291016</ele>
        <time>2015-09-01T14:44:36.000Z</time>
      </trkpt>
      <trkpt lat="47.99904" lon="1.98083">
        <ele>127.49898529053</ele>
        <time>2015-09-01T14:44:50.000Z</time>
      </trkpt>
      <trkpt lat="47.99903" lon="1.98086">
        <ele>127.09834289551</ele>
        <time>2015-09-01T14:44:52.000Z</time>
      </trkpt>
      <trkpt lat="47.99902" lon="1.98088">
        <ele>127.01866912842</ele>
        <time>2015-09-01T14:44:57.000Z</time>
      </trkpt>
      <trkpt lat="47.99902" lon="1.98088">
        <ele>134.79495239258</ele>
        <time>2015-09-01T14:45:17.000Z</time>
      </trkpt>
      <trkpt lat="47.99903" lon="1.98086">
        <ele>128.06175231934</ele>
        <time>2015-09-01T14:49:34.000Z</time>
      </trkpt>
      <trkpt lat="47.99903" lon="1.98084">
        <ele>128.25811767578</ele>
        <time>2015-09-01T14:49:38.000Z</time>
      </trkpt>
      <trkpt lat="47.99903" lon="1.98083">
        <ele>130.46487426758</ele>
        <time>2015-09-01T14:49:41.000Z</time>
      </trkpt>
      <trkpt lat="47.99904" lon="1.9808">
        <ele>132.36338806152</ele>
        <time>2015-09-01T14:49:44.000Z</time>
      </trkpt>
      <trkpt lat="47.99905" lon="1.9808">
        <ele>133.18406677246</ele>
        <time>2015-09-01T14:49:52.000Z</time>
      </trkpt>
      <trkpt lat="47.99905" lon="1.9808">
        <ele>134.96751403809</ele>
        <time>2015-09-01T14:50:12.000Z</time>
      </trkpt>
      <trkpt lat="47.99904" lon="1.98079">
        <ele>136.58988952637</ele>
        <time>2015-09-01T14:50:13.000Z</time>
      </trkpt>
      <trkpt lat="47.99903" lon="1.98077">
        <ele>138.79135131836</ele>
        <time>2015-09-01T14:50:18.000Z</time>
      </trkpt>
      <trkpt lat="47.99903" lon="1.98076">
        <ele>138.93011474609</ele>
        <time>2015-09-01T14:50:20.000Z</time>
      </trkpt>
      <trkpt lat="47.99902" lon="1.98074">
        <ele>139.01593017578</ele>
        <time>2015-09-01T14:50:24.000Z</time>
      </trkpt>
      <trkpt lat="47.999" lon="1.98072">
        <ele>141.83380126953</ele>
        <time>2015-09-01T14:50:27.000Z</time>
      </trkpt>
      <trkpt lat="47.99899" lon="1.98071">
        <ele>143.09303283691</ele>
        <time>2015-09-01T14:50:30.000Z</time>
      </trkpt>
      <trkpt lat="47.99898" lon="1.98069">
        <ele>141.95713806152</ele>
        <time>2015-09-01T14:50:32.000Z</time>
      </trkpt>
      <trkpt lat="47.99897" lon="1.98068">
        <ele>141.40682983398</ele>
        <time>2015-09-01T14:50:34.000Z</time>
      </trkpt>
      <trkpt lat="47.99897" lon="1.98067">
        <ele>140.75993347168</ele>
        <time>2015-09-01T14:50:36.000Z</time>
      </trkpt>
      <trkpt lat="47.99895" lon="1.98064">
        <ele>138.0164642334</ele>
        <time>2015-09-01T14:50:39.000Z</time>
      </trkpt>
      <trkpt lat="47.99895" lon="1.9806">
        <ele>135.39855957031</ele>
        <time>2015-09-01T14:50:41.000Z</time>
      </trkpt>
      <trkpt lat="47.99894" lon="1.98058">
        <ele>134.05805969238</ele>
        <time>2015-09-01T14:50:44.000Z</time>
      </trkpt>
      <trkpt lat="47.99893" lon="1.98053">
        <ele>133.17477416992</ele>
        <time>2015-09-01T14:50:47.000Z</time>
      </trkpt>
      <trkpt lat="47.99892" lon="1.98048">
        <ele>138.22033691406</ele>
        <time>2015-09-01T14:50:49.000Z</time>
      </trkpt>
      <trkpt lat="47.9989" lon="1.98041">
        <ele>138.95140075684</ele>
        <time>2015-09-01T14:50:51.000Z</time>
      </trkpt>
      <trkpt lat="47.99884" lon="1.98032">
        <ele>139.08610534668</ele>
        <time>2015-09-01T14:50:54.000Z</time>
      </trkpt>
      <trkpt lat="47.9988" lon="1.98026">
        <ele>139.65927124023</ele>
        <time>2015-09-01T14:50:56.000Z</time>
      </trkpt>
      <trkpt lat="47.99874" lon="1.98019">
        <ele>141.33583068848</ele>
        <time>2015-09-01T14:50:58.000Z</time>
      </trkpt>
      <trkpt lat="47.99867" lon="1.98011">
        <ele>147.44183349609</ele>
        <time>2015-09-01T14:51:00.000Z</time>
      </trkpt>
      <trkpt lat="47.99858" lon="1.98002">
        <ele>152.05598449707</ele>
        <time>2015-09-01T14:51:03.000Z</time>
      </trkpt>
      <trkpt lat="47.99851" lon="1.97992">
        <ele>153.87619018555</ele>
        <time>2015-09-01T14:51:06.000Z</time>
      </trkpt>
      <trkpt lat="47.99846" lon="1.97984">
        <ele>154.31134033203</ele>
        <time>2015-09-01T14:51:08.000Z</time>
      </trkpt>
      <trkpt lat="47.99837" lon="1.97972">
        <ele>156.01840209961</ele>
        <time>2015-09-01T14:51:11.000Z</time>
      </trkpt>
      <trkpt lat="47.99831" lon="1.97963">
        <ele>156.10391235352</ele>
        <time>2015-09-01T14:51:13.000Z</time>
      </trkpt>
      <trkpt lat="47.99823" lon="1.97953">
        <ele>155.09965515137</ele>
        <time>2015-09-01T14:51:16.000Z</time>
      </trkpt>
      <trkpt lat="47.99812" lon="1.9794">
        <ele>166.44902038574</ele>
        <time>2015-09-01T14:51:19.000Z</time>
      </trkpt>
      <trkpt lat="47.99802" lon="1.97928">
        <ele>168.73439025879</ele>
        <time>2015-09-01T14:51:22.000Z</time>
      </trkpt>
      <trkpt lat="47.99793" lon="1.97916">
        <ele>169.41162109375</ele>
        <time>2015-09-01T14:51:24.000Z</time>
      </trkpt>
      <trkpt lat="47.99783" lon="1.97908">
        <ele>168.79447937012</ele>
        <time>2015-09-01T14:51:27.000Z</time>
      </trkpt>
      <trkpt lat="47.9978" lon="1.97905">
        <ele>165.89115905762</ele>
        <time>2015-09-01T14:51:29.000Z</time>
      </trkpt>
      <trkpt lat="47.99778" lon="1.97903">
        <ele>164.57110595703</ele>
        <time>2015-09-01T14:51:32.000Z</time>
      </trkpt>
      <trkpt lat="47.99776" lon="1.97902">
        <ele>163.27981567383</ele>
        <time>2015-09-01T14:51:37.000Z</time>
      </trkpt>
      <trkpt lat="47.99774" lon="1.97901">
        <ele>163.0563659668</ele>
        <time>2015-09-01T14:51:42.000Z</time>
      </trkpt>
      <trkpt lat="47.9977" lon="1.97899">
        <ele>167.42370605469</ele>
        <time>2015-09-01T14:51:44.000Z</time>
      </trkpt>
      <trkpt lat="47.99766" lon="1.97893">
        <ele>170.34727478027</ele>
        <time>2015-09-01T14:51:46.000Z</time>
      </trkpt>
      <trkpt lat="47.99762" lon="1.97883">
        <ele>172.75880432129</ele>
        <time>2015-09-01T14:51:48.000Z</time>
      </trkpt>
      <trkpt lat="47.99757" lon="1.97873">
        <ele>174.11688232422</ele>
        <time>2015-09-01T14:51:51.000Z</time>
      </trkpt>
      <trkpt lat="47.99753" lon="1.97866">
        <ele>172.73568725586</ele>
        <time>2015-09-01T14:51:53.000Z</time>
      </trkpt>
      <trkpt lat="47.99749" lon="1.97858">
        <ele>171.21458435059</ele>
        <time>2015-09-01T14:51:55.000Z</time>
      </trkpt>
      <trkpt lat="47.99744" lon="1.9785">
        <ele>171.80490112305</ele>
        <time>2015-09-01T14:51:57.000Z</time>
      </trkpt>
      <trkpt lat="47.99728" lon="1.9783">
        <ele>172.42608642578</ele>
        <time>2015-09-01T14:52:00.000Z</time>
      </trkpt>
      <trkpt lat="47.9972" lon="1.9782">
        <ele>170.3074798584</ele>
        <time>2015-09-01T14:52:03.000Z</time>
      </trkpt>
      <trkpt lat="47.99712" lon="1.9782">
        <ele>168.51232910156</ele>
        <time>2015-09-01T14:52:05.000Z</time>
      </trkpt>
      <trkpt lat="47.99709" lon="1.9782">
        <ele>169.77502441406</ele>
        <time>2015-09-01T14:52:07.000Z</time>
      </trkpt>
      <trkpt lat="47.99706" lon="1.97818">
        <ele>167.8787689209</ele>
        <time>2015-09-01T14:52:09.000Z</time>
      </trkpt>
      <trkpt lat="47.99705" lon="1.97813">
        <ele>165.10629272461</ele>
        <time>2015-09-01T14:52:12.000Z</time>
      </trkpt>
      <trkpt lat="47.99703" lon="1.97809">
        <ele>164.00952148438</ele>
        <time>2015-09-01T14:52:14.000Z</time>
      </trkpt>
      <trkpt lat="47.99684" lon="1.97785">
        <ele>163.62191772461</ele>
        <time>2015-09-01T14:52:18.000Z</time>
      </trkpt>
      <trkpt lat="47.99671" lon="1.97764">
        <ele>160.17016601562</ele>
        <time>2015-09-01T14:52:21.000Z</time>
      </trkpt>
      <trkpt lat="47.99658" lon="1.97752">
        <ele>156.7346496582</ele>
        <time>2015-09-01T14:52:23.000Z</time>
      </trkpt>
      <trkpt lat="47.99646" lon="1.97741">
        <ele>157.0542755127</ele>
        <time>2015-09-01T14:52:26.000Z</time>
      </trkpt>
      <trkpt lat="47.99644" lon="1.97736">
        <ele>157.06539916992</ele>
        <time>2015-09-01T14:52:28.000Z</time>
      </trkpt>
      <trkpt lat="47.99643" lon="1.97733">
        <ele>156.24291992188</ele>
        <time>2015-09-01T14:52:30.000Z</time>
      </trkpt>
      <trkpt lat="47.99637" lon="1.9773">
        <ele>153.95977783203</ele>
        <time>2015-09-01T14:52:32.000Z</time>
      </trkpt>
      <trkpt lat="47.99629" lon="1.97723">
        <ele>153.47598266602</ele>
        <time>2015-09-01T14:52:34.000Z</time>
      </trkpt>
      <trkpt lat="47.9962" lon="1.97716">
        <ele>153.61344909668</ele>
        <time>2015-09-01T14:52:37.000Z</time>
      </trkpt>
      <trkpt lat="47.99613" lon="1.9771">
        <ele>153.07064819336</ele>
        <time>2015-09-01T14:52:39.000Z</time>
      </trkpt>
      <trkpt lat="47.99609" lon="1.97704">
        <ele>152.58680725098</ele>
        <time>2015-09-01T14:52:41.000Z</time>
      </trkpt>
      <trkpt lat="47.99603" lon="1.97686">
        <ele>154.23072814941</ele>
        <time>2015-09-01T14:52:44.000Z</time>
      </trkpt>
      <trkpt lat="47.996" lon="1.97673">
        <ele>157.35974121094</ele>
        <time>2015-09-01T14:52:46.000Z</time>
      </trkpt>
      <trkpt lat="47.99595" lon="1.97662">
        <ele>159.15814208984</ele>
        <time>2015-09-01T14:52:48.000Z</time>
      </trkpt>
      <trkpt lat="47.9959" lon="1.97646">
        <ele>159.58889770508</ele>
        <time>2015-09-01T14:52:51.000Z</time>
      </trkpt>
      <trkpt lat="47.99583" lon="1.97632">
        <ele>158.18075561523</ele>
        <time>2015-09-01T14:52:54.000Z</time>
      </trkpt>
      <trkpt lat="47.99577" lon="1.97622">
        <ele>157.17225646973</ele>
        <time>2015-09-01T14:52:56.000Z</time>
      </trkpt>
      <trkpt lat="47.99571" lon="1.97612">
        <ele>156.20068359375</ele>
        <time>2015-09-01T14:52:58.000Z</time>
      </trkpt>
      <trkpt lat="47.99545" lon="1.97588">
        <ele>167.15830993652</ele>
        <time>2015-09-01T14:53:02.000Z</time>
      </trkpt>
      <trkpt lat="47.9953" lon="1.97572">
        <ele>164.16999816895</ele>
        <time>2015-09-01T14:53:05.000Z</time>
      </trkpt>
      <trkpt lat="47.99517" lon="1.97557">
        <ele>163.48226928711</ele>
        <time>2015-09-01T14:53:08.000Z</time>
      </trkpt>
      <trkpt lat="47.99512" lon="1.97542">
        <ele>163.92129516602</ele>
        <time>2015-09-01T14:53:11.000Z</time>
      </trkpt>
      <trkpt lat="47.99508" lon="1.97533">
        <ele>164.03126525879</ele>
        <time>2015-09-01T14:53:13.000Z</time>
      </trkpt>
      <trkpt lat="47.99503" lon="1.97522">
        <ele>163.17959594727</ele>
        <time>2015-09-01T14:53:16.000Z</time>
      </trkpt>
      <trkpt lat="47.99491" lon="1.97505">
        <ele>159.48210144043</ele>
        <time>2015-09-01T14:53:19.000Z</time>
      </trkpt>
      <trkpt lat="47.99483" lon="1.97496">
        <ele>159.09326171875</ele>
        <time>2015-09-01T14:53:21.000Z</time>
      </trkpt>
      <trkpt lat="47.99472" lon="1.97483">
        <ele>157.70892333984</ele>
        <time>2015-09-01T14:53:24.000Z</time>
      </trkpt>
      <trkpt lat="47.99467" lon="1.97474">
        <ele>155.23260498047</ele>
        <time>2015-09-01T14:53:26.000Z</time>
      </trkpt>
      <trkpt lat="47.99461" lon="1.97467">
        <ele>153.54197692871</ele>
        <time>2015-09-01T14:53:28.000Z</time>
      </trkpt>
      <trkpt lat="47.99423" lon="1.97439">
        <ele>140.64540100098</ele>
        <time>2015-09-01T14:53:33.000Z</time>
      </trkpt>
      <trkpt lat="47.99418" lon="1.97418">
        <ele>136.68218994141</ele>
        <time>2015-09-01T14:53:36.000Z</time>
      </trkpt>
      <trkpt lat="47.99415" lon="1.97402">
        <ele>135.50933837891</ele>
        <time>2015-09-01T14:53:38.000Z</time>
      </trkpt>
      <trkpt lat="47.99411" lon="1.97386">
        <ele>134.53941345215</ele>
        <time>2015-09-01T14:53:40.000Z</time>
      </trkpt>
      <trkpt lat="47.99408" lon="1.97362">
        <ele>133.5274810791</ele>
        <time>2015-09-01T14:53:43.000Z</time>
      </trkpt>
      <trkpt lat="47.99405" lon="1.97339">
        <ele>132.99424743652</ele>
        <time>2015-09-01T14:53:46.000Z</time>
      </trkpt>
      <trkpt lat="47.99403" lon="1.97317">
        <ele>131.31956481934</ele>
        <time>2015-09-01T14:53:49.000Z</time>
      </trkpt>
      <trkpt lat="47.99402" lon="1.97304">
        <ele>130.25328063965</ele>
        <time>2015-09-01T14:53:51.000Z</time>
      </trkpt>
      <trkpt lat="47.99402" lon="1.97286">
        <ele>129.95457458496</ele>
        <time>2015-09-01T14:53:54.000Z</time>
      </trkpt>
      <trkpt lat="47.99402" lon="1.97273">
        <ele>129.36056518555</ele>
        <time>2015-09-01T14:53:56.000Z</time>
      </trkpt>
      <trkpt lat="47.99401" lon="1.97254">
        <ele>128.68000793457</ele>
        <time>2015-09-01T14:53:59.000Z</time>
      </trkpt>
      <trkpt lat="47.99401" lon="1.97241">
        <ele>128.15644836426</ele>
        <time>2015-09-01T14:54:01.000Z</time>
      </trkpt>
      <trkpt lat="47.994" lon="1.97219">
        <ele>127.25750732422</ele>
        <time>2015-09-01T14:54:04.000Z</time>
      </trkpt>
      <trkpt lat="47.994" lon="1.97202">
        <ele>126.96630859375</ele>
        <time>2015-09-01T14:54:06.000Z</time>
      </trkpt>
      <trkpt lat="47.994" lon="1.97177">
        <ele>126.28797149658</ele>
        <time>2015-09-01T14:54:09.000Z</time>
      </trkpt>
      <trkpt lat="47.99399" lon="1.9716">
        <ele>125.97807312012</ele>
        <time>2015-09-01T14:54:11.000Z</time>
      </trkpt>
      <trkpt lat="47.99399" lon="1.97142">
        <ele>125.88416290283</ele>
        <time>2015-09-01T14:54:13.000Z</time>
      </trkpt>
      <trkpt lat="47.99398" lon="1.97116">
        <ele>125.90064239502</ele>
        <time>2015-09-01T14:54:16.000Z</time>
      </trkpt>
      <trkpt lat="47.99398" lon="1.9709">
        <ele>125.84152984619</ele>
        <time>2015-09-01T14:54:19.000Z</time>
      </trkpt>
      <trkpt lat="47.99398" lon="1.97073">
        <ele>125.91086578369</ele>
        <time>2015-09-01T14:54:21.000Z</time>
      </trkpt>
      <trkpt lat="47.99398" lon="1.97057">
        <ele>125.91976165771</ele>
        <time>2015-09-01T14:54:23.000Z</time>
      </trkpt>
      <trkpt lat="47.99397" lon="1.97034">
        <ele>125.90766143799</ele>
        <time>2015-09-01T14:54:26.000Z</time>
      </trkpt>
      <trkpt lat="47.99397" lon="1.97009">
        <ele>126.80709075928</ele>
        <time>2015-09-01T14:54:29.000Z</time>
      </trkpt>
      <trkpt lat="47.99397" lon="1.96991">
        <ele>127.45622253418</ele>
        <time>2015-09-01T14:54:31.000Z</time>
      </trkpt>
      <trkpt lat="47.99397" lon="1.96968">
        <ele>127.16858673096</ele>
        <time>2015-09-01T14:54:34.000Z</time>
      </trkpt>
      <trkpt lat="47.99397" lon="1.96951">
        <ele>127.47872924805</ele>
        <time>2015-09-01T14:54:36.000Z</time>
      </trkpt>
      <trkpt lat="47.99397" lon="1.96924">
        <ele>127.14464569092</ele>
        <time>2015-09-01T14:54:39.000Z</time>
      </trkpt>
      <trkpt lat="47.99397" lon="1.96905">
        <ele>127.42280578613</ele>
        <time>2015-09-01T14:54:41.000Z</time>
      </trkpt>
      <trkpt lat="47.99397" lon="1.96875">
        <ele>126.92608642578</ele>
        <time>2015-09-01T14:54:44.000Z</time>
      </trkpt>
      <trkpt lat="47.99397" lon="1.96845">
        <ele>127.15984344482</ele>
        <time>2015-09-01T14:54:47.000Z</time>
      </trkpt>
      <trkpt lat="47.99396" lon="1.96826">
        <ele>126.62020874023</ele>
        <time>2015-09-01T14:54:49.000Z</time>
      </trkpt>
      <trkpt lat="47.99396" lon="1.96797">
        <ele>126.52928924561</ele>
        <time>2015-09-01T14:54:52.000Z</time>
      </trkpt>
      <trkpt lat="47.99396" lon="1.96769">
        <ele>126.44617462158</ele>
        <time>2015-09-01T14:54:55.000Z</time>
      </trkpt>
      <trkpt lat="47.99396" lon="1.96752">
        <ele>126.07773590088</ele>
        <time>2015-09-01T14:54:57.000Z</time>
      </trkpt>
      <trkpt lat="47.99396" lon="1.96731">
        <ele>125.57348632812</ele>
        <time>2015-09-01T14:55:00.000Z</time>
      </trkpt>
      <trkpt lat="47.99391" lon="1.96718">
        <ele>125.67552185059</ele>
        <time>2015-09-01T14:55:03.000Z</time>
      </trkpt>
      <trkpt lat="47.99385" lon="1.96707">
        <ele>126.10485839844</ele>
        <time>2015-09-01T14:55:05.000Z</time>
      </trkpt>
      <trkpt lat="47.99377" lon="1.96698">
        <ele>126.10315704346</ele>
        <time>2015-09-01T14:55:07.000Z</time>
      </trkpt>
      <trkpt lat="47.99368" lon="1.96691">
        <ele>126.09750366211</ele>
        <time>2015-09-01T14:55:09.000Z</time>
      </trkpt>
      <trkpt lat="47.99354" lon="1.96681">
        <ele>126.10073852539</ele>
        <time>2015-09-01T14:55:12.000Z</time>
      </trkpt>
      <trkpt lat="47.99345" lon="1.96674">
        <ele>126.10147857666</ele>
        <time>2015-09-01T14:55:14.000Z</time>
      </trkpt>
      <trkpt lat="47.99336" lon="1.96667">
        <ele>126.1010055542</ele>
        <time>2015-09-01T14:55:16.000Z</time>
      </trkpt>
      <trkpt lat="47.99322" lon="1.96657">
        <ele>126.10440826416</ele>
        <time>2015-09-01T14:55:19.000Z</time>
      </trkpt>
      <trkpt lat="47.99307" lon="1.96646">
        <ele>126.10752868652</ele>
        <time>2015-09-01T14:55:22.000Z</time>
      </trkpt>
      <trkpt lat="47.99292" lon="1.96636">
        <ele>126.10443115234</ele>
        <time>2015-09-01T14:55:25.000Z</time>
      </trkpt>
      <trkpt lat="47.99277" lon="1.96625">
        <ele>126.10605621338</ele>
        <time>2015-09-01T14:55:28.000Z</time>
      </trkpt>
      <trkpt lat="47.9926" lon="1.96612">
        <ele>125.09467315674</ele>
        <time>2015-09-01T14:55:31.000Z</time>
      </trkpt>
      <trkpt lat="47.99242" lon="1.966">
        <ele>125.12049865723</ele>
        <time>2015-09-01T14:55:34.000Z</time>
      </trkpt>
      <trkpt lat="47.99225" lon="1.96589">
        <ele>124.09081268311</ele>
        <time>2015-09-01T14:55:37.000Z</time>
      </trkpt>
      <trkpt lat="47.99213" lon="1.9658">
        <ele>124.08333587646</ele>
        <time>2015-09-01T14:55:40.000Z</time>
      </trkpt>
      <trkpt lat="47.99205" lon="1.96575">
        <ele>124.06663513184</ele>
        <time>2015-09-01T14:55:43.000Z</time>
      </trkpt>
      <trkpt lat="47.99201" lon="1.96567">
        <ele>123.0919342041</ele>
        <time>2015-09-01T14:55:46.000Z</time>
      </trkpt>
      <trkpt lat="47.99201" lon="1.96561">
        <ele>123.28807067871</ele>
        <time>2015-09-01T14:55:48.000Z</time>
      </trkpt>
      <trkpt lat="47.99202" lon="1.96556">
        <ele>124.26513671875</ele>
        <time>2015-09-01T14:55:50.000Z</time>
      </trkpt>
      <trkpt lat="47.99204" lon="1.96552">
        <ele>125.39604187012</ele>
        <time>2015-09-01T14:55:54.000Z</time>
      </trkpt>
      <trkpt lat="47.99206" lon="1.9655">
        <ele>126.87714385986</ele>
        <time>2015-09-01T14:55:57.000Z</time>
      </trkpt>
      <trkpt lat="47.99207" lon="1.96543">
        <ele>127.28243255615</ele>
        <time>2015-09-01T14:55:59.000Z</time>
      </trkpt>
      <trkpt lat="47.99209" lon="1.96527">
        <ele>126.16484832764</ele>
        <time>2015-09-01T14:56:02.000Z</time>
      </trkpt>
      <trkpt lat="47.99209" lon="1.96517">
        <ele>126.29873657227</ele>
        <time>2015-09-01T14:56:04.000Z</time>
      </trkpt>
      <trkpt lat="47.9921" lon="1.96509">
        <ele>127.00068664551</ele>
        <time>2015-09-01T14:56:06.000Z</time>
      </trkpt>
      <trkpt lat="47.99212" lon="1.965">
        <ele>128.64306640625</ele>
        <time>2015-09-01T14:56:08.000Z</time>
      </trkpt>
      <trkpt lat="47.99213" lon="1.96472">
        <ele>126.473487854</ele>
        <time>2015-09-01T14:56:11.000Z</time>
      </trkpt>
      <trkpt lat="47.99213" lon="1.9646">
        <ele>126.9623260498</ele>
        <time>2015-09-01T14:56:13.000Z</time>
      </trkpt>
      <trkpt lat="47.99216" lon="1.96442">
        <ele>132.77104187012</ele>
        <time>2015-09-01T14:56:16.000Z</time>
      </trkpt>
      <trkpt lat="47.99216" lon="1.96428">
        <ele>137.06733703613</ele>
        <time>2015-09-01T14:56:18.000Z</time>
      </trkpt>
      <trkpt lat="47.99217" lon="1.96412">
        <ele>140.76779174805</ele>
        <time>2015-09-01T14:56:20.000Z</time>
      </trkpt>
      <trkpt lat="47.99219" lon="1.96386">
        <ele>140.2794342041</ele>
        <time>2015-09-01T14:56:23.000Z</time>
      </trkpt>
      <trkpt lat="47.99221" lon="1.96371">
        <ele>139.94407653809</ele>
        <time>2015-09-01T14:56:25.000Z</time>
      </trkpt>
      <trkpt lat="47.99223" lon="1.96349">
        <ele>139.60186767578</ele>
        <time>2015-09-01T14:56:28.000Z</time>
      </trkpt>
      <trkpt lat="47.99227" lon="1.96327">
        <ele>141.25886535645</ele>
        <time>2015-09-01T14:56:31.000Z</time>
      </trkpt>
      <trkpt lat="47.9923" lon="1.96302">
        <ele>138.91186523438</ele>
        <time>2015-09-01T14:56:34.000Z</time>
      </trkpt>
      <trkpt lat="47.99232" lon="1.96287">
        <ele>138.04293823242</ele>
        <time>2015-09-01T14:56:36.000Z</time>
      </trkpt>
      <trkpt lat="47.99234" lon="1.96271">
        <ele>136.26333618164</ele>
        <time>2015-09-01T14:56:38.000Z</time>
      </trkpt>
      <trkpt lat="47.99236" lon="1.96254">
        <ele>134.43144226074</ele>
        <time>2015-09-01T14:56:40.000Z</time>
      </trkpt>
      <trkpt lat="47.99239" lon="1.96228">
        <ele>130.78385925293</ele>
        <time>2015-09-01T14:56:43.000Z</time>
      </trkpt>
      <trkpt lat="47.99241" lon="1.96214">
        <ele>129.24798583984</ele>
        <time>2015-09-01T14:56:45.000Z</time>
      </trkpt>
      <trkpt lat="47.99244" lon="1.96197">
        <ele>128.42233276367</ele>
        <time>2015-09-01T14:56:47.000Z</time>
      </trkpt>
      <trkpt lat="47.99249" lon="1.96172">
        <ele>126.9478302002</ele>
        <time>2015-09-01T14:56:50.000Z</time>
      </trkpt>
      <trkpt lat="47.99252" lon="1.96156">
        <ele>126.93128204346</ele>
        <time>2015-09-01T14:56:52.000Z</time>
      </trkpt>
      <trkpt lat="47.99255" lon="1.9614">
        <ele>126.11571502686</ele>
        <time>2015-09-01T14:56:54.000Z</time>
      </trkpt>
      <trkpt lat="47.99259" lon="1.96117">
        <ele>124.96348571777</ele>
        <time>2015-09-01T14:56:57.000Z</time>
      </trkpt>
      <trkpt lat="47.99262" lon="1.96101">
        <ele>124.93161773682</ele>
        <time>2015-09-01T14:56:59.000Z</time>
      </trkpt>
      <trkpt lat="47.99266" lon="1.96079">
        <ele>125.4391784668</ele>
        <time>2015-09-01T14:57:02.000Z</time>
      </trkpt>
      <trkpt lat="47.99271" lon="1.96056">
        <ele>125.20172119141</ele>
        <time>2015-09-01T14:57:05.000Z</time>
      </trkpt>
      <trkpt lat="47.99274" lon="1.9604">
        <ele>124.39301300049</ele>
        <time>2015-09-01T14:57:07.000Z</time>
      </trkpt>
      <trkpt lat="47.99277" lon="1.96025">
        <ele>123.96757507324</ele>
        <time>2015-09-01T14:57:09.000Z</time>
      </trkpt>
      <trkpt lat="47.99279" lon="1.96009">
        <ele>123.93390655518</ele>
        <time>2015-09-01T14:57:11.000Z</time>
      </trkpt>
      <trkpt lat="47.99284" lon="1.95985">
        <ele>122.96518707275</ele>
        <time>2015-09-01T14:57:14.000Z</time>
      </trkpt>
      <trkpt lat="47.99287" lon="1.95968">
        <ele>122.4857635498</ele>
        <time>2015-09-01T14:57:16.000Z</time>
      </trkpt>
      <trkpt lat="47.99292" lon="1.95941">
        <ele>119.14041137695</ele>
        <time>2015-09-01T14:57:19.000Z</time>
      </trkpt>
      <trkpt lat="47.99296" lon="1.95915">
        <ele>117.92111968994</ele>
        <time>2015-09-01T14:57:22.000Z</time>
      </trkpt>
      <trkpt lat="47.99299" lon="1.95898">
        <ele>117.4574508667</ele>
        <time>2015-09-01T14:57:24.000Z</time>
      </trkpt>
      <trkpt lat="47.99306" lon="1.95874">
        <ele>117.93647766113</ele>
        <time>2015-09-01T14:57:27.000Z</time>
      </trkpt>
      <trkpt lat="47.99312" lon="1.9585">
        <ele>118.94774627686</ele>
        <time>2015-09-01T14:57:30.000Z</time>
      </trkpt>
      <trkpt lat="47.99316" lon="1.95834">
        <ele>119.46131896973</ele>
        <time>2015-09-01T14:57:32.000Z</time>
      </trkpt>
      <trkpt lat="47.99321" lon="1.9581">
        <ele>121.88067626953</ele>
        <time>2015-09-01T14:57:35.000Z</time>
      </trkpt>
      <trkpt lat="47.99325" lon="1.95786">
        <ele>122.76805877686</ele>
        <time>2015-09-01T14:57:38.000Z</time>
      </trkpt>
      <trkpt lat="47.99328" lon="1.9577">
        <ele>122.4953918457</ele>
        <time>2015-09-01T14:57:40.000Z</time>
      </trkpt>
      <trkpt lat="47.99333" lon="1.95746">
        <ele>122.0799331665</ele>
        <time>2015-09-01T14:57:43.000Z</time>
      </trkpt>
      <trkpt lat="47.99337" lon="1.95732">
        <ele>121.45464324951</ele>
        <time>2015-09-01T14:57:45.000Z</time>
      </trkpt>
      <trkpt lat="47.9934" lon="1.95719">
        <ele>120.96682739258</ele>
        <time>2015-09-01T14:57:47.000Z</time>
      </trkpt>
      <trkpt lat="47.99345" lon="1.957">
        <ele>121.10083007812</ele>
        <time>2015-09-01T14:57:50.000Z</time>
      </trkpt>
      <trkpt lat="47.99346" lon="1.95689">
        <ele>120.27995300293</ele>
        <time>2015-09-01T14:57:52.000Z</time>
      </trkpt>
      <trkpt lat="47.99344" lon="1.95682">
        <ele>120.14725494385</ele>
        <time>2015-09-01T14:57:54.000Z</time>
      </trkpt>
      <trkpt lat="47.99338" lon="1.95677">
        <ele>120.5782623291</ele>
        <time>2015-09-01T14:57:57.000Z</time>
      </trkpt>
      <trkpt lat="47.99332" lon="1.95674">
        <ele>122.56979370117</ele>
        <time>2015-09-01T14:58:00.000Z</time>
      </trkpt>
      <trkpt lat="47.99328" lon="1.95672">
        <ele>121.66510772705</ele>
        <time>2015-09-01T14:58:02.000Z</time>
      </trkpt>
      <trkpt lat="47.99317" lon="1.95669">
        <ele>121.55085754395</ele>
        <time>2015-09-01T14:58:05.000Z</time>
      </trkpt>
      <trkpt lat="47.9931" lon="1.95667">
        <ele>123.06320953369</ele>
        <time>2015-09-01T14:58:07.000Z</time>
      </trkpt>
      <trkpt lat="47.99299" lon="1.95664">
        <ele>124.02655029297</ele>
        <time>2015-09-01T14:58:10.000Z</time>
      </trkpt>
      <trkpt lat="47.99294" lon="1.95662">
        <ele>125.35809326172</ele>
        <time>2015-09-01T14:58:14.000Z</time>
      </trkpt>
      <trkpt lat="47.99294" lon="1.95658">
        <ele>125.13319396973</ele>
        <time>2015-09-01T14:58:16.000Z</time>
      </trkpt>
      <trkpt lat="47.99296" lon="1.95649">
        <ele>123.87435150146</ele>
        <time>2015-09-01T14:58:19.000Z</time>
      </trkpt>
      <trkpt lat="47.993" lon="1.95643">
        <ele>123.94577026367</ele>
        <time>2015-09-01T14:58:21.000Z</time>
      </trkpt>
      <trkpt lat="47.99306" lon="1.95628">
        <ele>124.588722229</ele>
        <time>2015-09-01T14:58:24.000Z</time>
      </trkpt>
      <trkpt lat="47.99311" lon="1.95613">
        <ele>123.97792053223</ele>
        <time>2015-09-01T14:58:27.000Z</time>
      </trkpt>
      <trkpt lat="47.99316" lon="1.95598">
        <ele>122.164894104</ele>
        <time>2015-09-01T14:58:30.000Z</time>
      </trkpt>
      <trkpt lat="47.99321" lon="1.95582">
        <ele>121.55709838867</ele>
        <time>2015-09-01T14:58:33.000Z</time>
      </trkpt>
      <trkpt lat="47.99328" lon="1.95564">
        <ele>122.48160552979</ele>
        <time>2015-09-01T14:58:36.000Z</time>
      </trkpt>
      <trkpt lat="47.99332" lon="1.95553">
        <ele>123.48252105713</ele>
        <time>2015-09-01T14:58:38.000Z</time>
      </trkpt>
      <trkpt lat="47.99339" lon="1.95537">
        <ele>123.46033477783</ele>
        <time>2015-09-01T14:58:41.000Z</time>
      </trkpt>
      <trkpt lat="47.99343" lon="1.95525">
        <ele>122.96305084229</ele>
        <time>2015-09-01T14:58:43.000Z</time>
      </trkpt>
      <trkpt lat="47.99347" lon="1.95514">
        <ele>123.45324707031</ele>
        <time>2015-09-01T14:58:45.000Z</time>
      </trkpt>
      <trkpt lat="47.99353" lon="1.95498">
        <ele>123.97592926025</ele>
        <time>2015-09-01T14:58:48.000Z</time>
      </trkpt>
      <trkpt lat="47.99357" lon="1.95487">
        <ele>124.33670043945</ele>
        <time>2015-09-01T14:58:50.000Z</time>
      </trkpt>
      <trkpt lat="47.99362" lon="1.95469">
        <ele>123.95341491699</ele>
        <time>2015-09-01T14:58:53.000Z</time>
      </trkpt>
      <trkpt lat="47.99369" lon="1.9545">
        <ele>123.95594787598</ele>
        <time>2015-09-01T14:58:56.000Z</time>
      </trkpt>
      <trkpt lat="47.99373" lon="1.95439">
        <ele>123.45140838623</ele>
        <time>2015-09-01T14:58:58.000Z</time>
      </trkpt>
      <trkpt lat="47.99379" lon="1.95423">
        <ele>122.09295654297</ele>
        <time>2015-09-01T14:59:01.000Z</time>
      </trkpt>
      <trkpt lat="47.99383" lon="1.95409">
        <ele>121.94373321533</ele>
        <time>2015-09-01T14:59:03.000Z</time>
      </trkpt>
      <trkpt lat="47.9939" lon="1.95392">
        <ele>122.06914520264</ele>
        <time>2015-09-01T14:59:06.000Z</time>
      </trkpt>
      <trkpt lat="47.99395" lon="1.95382">
        <ele>122.85089111328</ele>
        <time>2015-09-01T14:59:08.000Z</time>
      </trkpt>
      <trkpt lat="47.99399" lon="1.9537">
        <ele>122.45574951172</ele>
        <time>2015-09-01T14:59:10.000Z</time>
      </trkpt>
      <trkpt lat="47.99406" lon="1.95351">
        <ele>121.94092559814</ele>
        <time>2015-09-01T14:59:13.000Z</time>
      </trkpt>
      <trkpt lat="47.99412" lon="1.95333">
        <ele>121.0817489624</ele>
        <time>2015-09-01T14:59:16.000Z</time>
      </trkpt>
      <trkpt lat="47.99416" lon="1.95321">
        <ele>121.43937683105</ele>
        <time>2015-09-01T14:59:18.000Z</time>
      </trkpt>
      <trkpt lat="47.9942" lon="1.95309">
        <ele>121.96147155762</ele>
        <time>2015-09-01T14:59:20.000Z</time>
      </trkpt>
      <trkpt lat="47.99425" lon="1.95293">
        <ele>122.96120452881</ele>
        <time>2015-09-01T14:59:23.000Z</time>
      </trkpt>
      <trkpt lat="47.99431" lon="1.95277">
        <ele>122.60243225098</ele>
        <time>2015-09-01T14:59:26.000Z</time>
      </trkpt>
      <trkpt lat="47.99433" lon="1.95269">
        <ele>121.67556762695</ele>
        <time>2015-09-01T14:59:28.000Z</time>
      </trkpt>
      <trkpt lat="47.99435" lon="1.9526">
        <ele>121.55304718018</ele>
        <time>2015-09-01T14:59:31.000Z</time>
      </trkpt>
      <trkpt lat="47.99437" lon="1.95256">
        <ele>121.49877929688</ele>
        <time>2015-09-01T14:59:33.000Z</time>
      </trkpt>
      <trkpt lat="47.99439" lon="1.95251">
        <ele>121.02222442627</ele>
        <time>2015-09-01T14:59:35.000Z</time>
      </trkpt>
      <trkpt lat="47.99442" lon="1.95244">
        <ele>120.13898468018</ele>
        <time>2015-09-01T14:59:37.000Z</time>
      </trkpt>
      <trkpt lat="47.99446" lon="1.95233">
        <ele>120.42144012451</ele>
        <time>2015-09-01T14:59:40.000Z</time>
      </trkpt>
      <trkpt lat="47.99451" lon="1.95219">
        <ele>120.9827041626</ele>
        <time>2015-09-01T14:59:43.000Z</time>
      </trkpt>
      <trkpt lat="47.99456" lon="1.95203">
        <ele>121.31744384766</ele>
        <time>2015-09-01T14:59:46.000Z</time>
      </trkpt>
      <trkpt lat="47.9946" lon="1.95192">
        <ele>121.11034393311</ele>
        <time>2015-09-01T14:59:48.000Z</time>
      </trkpt>
      <trkpt lat="47.99463" lon="1.95181">
        <ele>120.95800018311</ele>
        <time>2015-09-01T14:59:50.000Z</time>
      </trkpt>
      <trkpt lat="47.99468" lon="1.95165">
        <ele>122.35107421875</ele>
        <time>2015-09-01T14:59:53.000Z</time>
      </trkpt>
      <trkpt lat="47.99474" lon="1.95151">
        <ele>125.32336425781</ele>
        <time>2015-09-01T14:59:56.000Z</time>
      </trkpt>
      <trkpt lat="47.99479" lon="1.95136">
        <ele>125.9928817749</ele>
        <time>2015-09-01T14:59:59.000Z</time>
      </trkpt>
      <trkpt lat="47.99484" lon="1.95125">
        <ele>126.30383300781</ele>
        <time>2015-09-01T15:00:01.000Z</time>
      </trkpt>
      <trkpt lat="47.9949" lon="1.95111">
        <ele>127.45935058594</ele>
        <time>2015-09-01T15:00:04.000Z</time>
      </trkpt>
      <trkpt lat="47.99495" lon="1.95102">
        <ele>127.9835357666</ele>
        <time>2015-09-01T15:00:06.000Z</time>
      </trkpt>
      <trkpt lat="47.99504" lon="1.95087">
        <ele>128.42887878418</ele>
        <time>2015-09-01T15:00:09.000Z</time>
      </trkpt>
      <trkpt lat="47.99511" lon="1.95072">
        <ele>127.07238769531</ele>
        <time>2015-09-01T15:00:12.000Z</time>
      </trkpt>
      <trkpt lat="47.99514" lon="1.95064">
        <ele>126.13673400879</ele>
        <time>2015-09-01T15:00:14.000Z</time>
      </trkpt>
      <trkpt lat="47.99517" lon="1.95051">
        <ele>125.95277404785</ele>
        <time>2015-09-01T15:00:17.000Z</time>
      </trkpt>
      <trkpt lat="47.99521" lon="1.95041">
        <ele>125.95901489258</ele>
        <time>2015-09-01T15:00:19.000Z</time>
      </trkpt>
      <trkpt lat="47.99525" lon="1.95029">
        <ele>126.84001922607</ele>
        <time>2015-09-01T15:00:21.000Z</time>
      </trkpt>
      <trkpt lat="47.99531" lon="1.95009">
        <ele>129.57385253906</ele>
        <time>2015-09-01T15:00:24.000Z</time>
      </trkpt>
      <trkpt lat="47.99537" lon="1.94994">
        <ele>128.47380065918</ele>
        <time>2015-09-01T15:00:27.000Z</time>
      </trkpt>
      <trkpt lat="47.99542" lon="1.94981">
        <ele>130.92999267578</ele>
        <time>2015-09-01T15:00:30.000Z</time>
      </trkpt>
      <trkpt lat="47.99546" lon="1.9497">
        <ele>132.43476867676</ele>
        <time>2015-09-01T15:00:32.000Z</time>
      </trkpt>
      <trkpt lat="47.9955" lon="1.94957">
        <ele>131.49844360352</ele>
        <time>2015-09-01T15:00:34.000Z</time>
      </trkpt>
      <trkpt lat="47.99556" lon="1.9494">
        <ele>130.09555053711</ele>
        <time>2015-09-01T15:00:37.000Z</time>
      </trkpt>
      <trkpt lat="47.99561" lon="1.94924">
        <ele>133.12255859375</ele>
        <time>2015-09-01T15:00:40.000Z</time>
      </trkpt>
      <trkpt lat="47.99569" lon="1.94907">
        <ele>130.68687438965</ele>
        <time>2015-09-01T15:00:43.000Z</time>
      </trkpt>
      <trkpt lat="47.99572" lon="1.94896">
        <ele>130.4175567627</ele>
        <time>2015-09-01T15:00:45.000Z</time>
      </trkpt>
      <trkpt lat="47.99579" lon="1.94879">
        <ele>130.86065673828</ele>
        <time>2015-09-01T15:00:48.000Z</time>
      </trkpt>
      <trkpt lat="47.99585" lon="1.9486">
        <ele>131.74577331543</ele>
        <time>2015-09-01T15:00:51.000Z</time>
      </trkpt>
      <trkpt lat="47.99591" lon="1.94842">
        <ele>132.11373901367</ele>
        <time>2015-09-01T15:00:54.000Z</time>
      </trkpt>
      <trkpt lat="47.99598" lon="1.94828">
        <ele>136.29139709473</ele>
        <time>2015-09-01T15:00:57.000Z</time>
      </trkpt>
      <trkpt lat="47.99601" lon="1.94814">
        <ele>139.58232116699</ele>
        <time>2015-09-01T15:01:00.000Z</time>
      </trkpt>
      <trkpt lat="47.99603" lon="1.94806">
        <ele>139.99688720703</ele>
        <time>2015-09-01T15:01:03.000Z</time>
      </trkpt>
      <trkpt lat="47.99606" lon="1.948">
        <ele>140.80364990234</ele>
        <time>2015-09-01T15:01:05.000Z</time>
      </trkpt>
      <trkpt lat="47.99609" lon="1.94793">
        <ele>141.81663513184</ele>
        <time>2015-09-01T15:01:07.000Z</time>
      </trkpt>
      <trkpt lat="47.99614" lon="1.94784">
        <ele>145.44386291504</ele>
        <time>2015-09-01T15:01:09.000Z</time>
      </trkpt>
      <trkpt lat="47.9962" lon="1.94771">
        <ele>146.03524780273</ele>
        <time>2015-09-01T15:01:11.000Z</time>
      </trkpt>
      <trkpt lat="47.99628" lon="1.94741">
        <ele>145.05932617188</ele>
        <time>2015-09-01T15:01:14.000Z</time>
      </trkpt>
      <trkpt lat="47.99633" lon="1.94719">
        <ele>144.76689147949</ele>
        <time>2015-09-01T15:01:16.000Z</time>
      </trkpt>
      <trkpt lat="47.9964" lon="1.94699">
        <ele>144.2410736084</ele>
        <time>2015-09-01T15:01:19.000Z</time>
      </trkpt>
      <trkpt lat="47.99649" lon="1.94674">
        <ele>140.70545959473</ele>
        <time>2015-09-01T15:01:22.000Z</time>
      </trkpt>
      <trkpt lat="47.99659" lon="1.94645">
        <ele>131.7611541748</ele>
        <time>2015-09-01T15:01:25.000Z</time>
      </trkpt>
      <trkpt lat="47.99664" lon="1.94624">
        <ele>130.82447814941</ele>
        <time>2015-09-01T15:01:28.000Z</time>
      </trkpt>
      <trkpt lat="47.9967" lon="1.9461">
        <ele>131.04304504395</ele>
        <time>2015-09-01T15:01:30.000Z</time>
      </trkpt>
      <trkpt lat="47.99677" lon="1.94592">
        <ele>128.43099975586</ele>
        <time>2015-09-01T15:01:33.000Z</time>
      </trkpt>
      <trkpt lat="47.9968" lon="1.94584">
        <ele>126.70555877686</ele>
        <time>2015-09-01T15:01:35.000Z</time>
      </trkpt>
      <trkpt lat="47.99683" lon="1.94577">
        <ele>125.65726470947</ele>
        <time>2015-09-01T15:01:37.000Z</time>
      </trkpt>
      <trkpt lat="47.99684" lon="1.94566">
        <ele>126.22218322754</ele>
        <time>2015-09-01T15:01:40.000Z</time>
      </trkpt>
      <trkpt lat="47.99686" lon="1.94559">
        <ele>126.26260375977</ele>
        <time>2015-09-01T15:01:42.000Z</time>
      </trkpt>
      <trkpt lat="47.99691" lon="1.94547">
        <ele>124.93473052979</ele>
        <time>2015-09-01T15:01:45.000Z</time>
      </trkpt>
      <trkpt lat="47.99696" lon="1.94541">
        <ele>124.11695098877</ele>
        <time>2015-09-01T15:01:48.000Z</time>
      </trkpt>
      <trkpt lat="47.99707" lon="1.94538">
        <ele>121.97694396973</ele>
        <time>2015-09-01T15:01:51.000Z</time>
      </trkpt>
      <trkpt lat="47.99714" lon="1.94538">
        <ele>121.9262008667</ele>
        <time>2015-09-01T15:01:53.000Z</time>
      </trkpt>
      <trkpt lat="47.9972" lon="1.9454">
        <ele>122.85549926758</ele>
        <time>2015-09-01T15:01:55.000Z</time>
      </trkpt>
      <trkpt lat="47.99728" lon="1.94544">
        <ele>123.02061462402</ele>
        <time>2015-09-01T15:01:58.000Z</time>
      </trkpt>
      <trkpt lat="47.99734" lon="1.94546">
        <ele>122.90279388428</ele>
        <time>2015-09-01T15:02:00.000Z</time>
      </trkpt>
      <trkpt lat="47.99743" lon="1.94549">
        <ele>120.04560089111</ele>
        <time>2015-09-01T15:02:03.000Z</time>
      </trkpt>
      <trkpt lat="47.99748" lon="1.94551">
        <ele>122.2603225708</ele>
        <time>2015-09-01T15:02:05.000Z</time>
      </trkpt>
      <trkpt lat="47.99753" lon="1.94552">
        <ele>124.36451721191</ele>
        <time>2015-09-01T15:02:08.000Z</time>
      </trkpt>
      <trkpt lat="47.9976" lon="1.94551">
        <ele>124.40202331543</ele>
        <time>2015-09-01T15:02:11.000Z</time>
      </trkpt>
      <trkpt lat="47.99765" lon="1.9455">
        <ele>127.07981109619</ele>
        <time>2015-09-01T15:02:14.000Z</time>
      </trkpt>
      <trkpt lat="47.9977" lon="1.94542">
        <ele>127.98899841309</ele>
        <time>2015-09-01T15:02:17.000Z</time>
      </trkpt>
      <trkpt lat="47.99772" lon="1.94535">
        <ele>127.6121673584</ele>
        <time>2015-09-01T15:02:19.000Z</time>
      </trkpt>
      <trkpt lat="47.99775" lon="1.94528">
        <ele>127.92862701416</ele>
        <time>2015-09-01T15:02:21.000Z</time>
      </trkpt>
      <trkpt lat="47.9978" lon="1.94517">
        <ele>127.10358428955</ele>
        <time>2015-09-01T15:02:24.000Z</time>
      </trkpt>
      <trkpt lat="47.99785" lon="1.9451">
        <ele>126.02850341797</ele>
        <time>2015-09-01T15:02:26.000Z</time>
      </trkpt>
      <trkpt lat="47.99791" lon="1.94502">
        <ele>125.45829772949</ele>
        <time>2015-09-01T15:02:28.000Z</time>
      </trkpt>
      <trkpt lat="47.99797" lon="1.94495">
        <ele>126.42793273926</ele>
        <time>2015-09-01T15:02:30.000Z</time>
      </trkpt>
      <trkpt lat="47.99803" lon="1.9449">
        <ele>132.26712036133</ele>
        <time>2015-09-01T15:02:33.000Z</time>
      </trkpt>
      <trkpt lat="47.99806" lon="1.94489">
        <ele>135.75709533691</ele>
        <time>2015-09-01T15:02:35.000Z</time>
      </trkpt>
      <trkpt lat="47.99809" lon="1.94489">
        <ele>137.04188537598</ele>
        <time>2015-09-01T15:02:37.000Z</time>
      </trkpt>
      <trkpt lat="47.99813" lon="1.94489">
        <ele>136.99949645996</ele>
        <time>2015-09-01T15:02:39.000Z</time>
      </trkpt>
      <trkpt lat="47.99821" lon="1.94486">
        <ele>138.84519958496</ele>
        <time>2015-09-01T15:02:42.000Z</time>
      </trkpt>
      <trkpt lat="47.99826" lon="1.94482">
        <ele>139.4856262207</ele>
        <time>2015-09-01T15:02:44.000Z</time>
      </trkpt>
      <trkpt lat="47.99832" lon="1.94475">
        <ele>140.94288635254</ele>
        <time>2015-09-01T15:02:47.000Z</time>
      </trkpt>
      <trkpt lat="47.99834" lon="1.94468">
        <ele>140.98173522949</ele>
        <time>2015-09-01T15:02:49.000Z</time>
      </trkpt>
      <trkpt lat="47.99835" lon="1.94459">
        <ele>139.75190734863</ele>
        <time>2015-09-01T15:02:52.000Z</time>
      </trkpt>
      <trkpt lat="47.99836" lon="1.94455">
        <ele>139.91549682617</ele>
        <time>2015-09-01T15:02:54.000Z</time>
      </trkpt>
      <trkpt lat="47.99836" lon="1.94452">
        <ele>139.93751525879</ele>
        <time>2015-09-01T15:02:56.000Z</time>
      </trkpt>
      <trkpt lat="47.99836" lon="1.94448">
        <ele>140.43907165527</ele>
        <time>2015-09-01T15:02:58.000Z</time>
      </trkpt>
      <trkpt lat="47.99837" lon="1.94444">
        <ele>140.86033630371</ele>
        <time>2015-09-01T15:03:00.000Z</time>
      </trkpt>
      <trkpt lat="47.99839" lon="1.94438">
        <ele>144.43856811523</ele>
        <time>2015-09-01T15:03:03.000Z</time>
      </trkpt>
      <trkpt lat="47.99841" lon="1.94429">
        <ele>148.07585144043</ele>
        <time>2015-09-01T15:03:05.000Z</time>
      </trkpt>
      <trkpt lat="47.99843" lon="1.94416">
        <ele>149.81137084961</ele>
        <time>2015-09-01T15:03:07.000Z</time>
      </trkpt>
      <trkpt lat="47.99844" lon="1.94402">
        <ele>149.9479675293</ele>
        <time>2015-09-01T15:03:09.000Z</time>
      </trkpt>
      <trkpt lat="47.99845" lon="1.94386">
        <ele>151.14033508301</ele>
        <time>2015-09-01T15:03:12.000Z</time>
      </trkpt>
      <trkpt lat="47.99845" lon="1.94376">
        <ele>157.89123535156</ele>
        <time>2015-09-01T15:03:14.000Z</time>
      </trkpt>
      <trkpt lat="47.99846" lon="1.94364">
        <ele>163.22273254395</ele>
        <time>2015-09-01T15:03:17.000Z</time>
      </trkpt>
      <trkpt lat="47.99848" lon="1.94348">
        <ele>163.1929473877</ele>
        <time>2015-09-01T15:03:20.000Z</time>
      </trkpt>
      <trkpt lat="47.9985" lon="1.94334">
        <ele>161.80284118652</ele>
        <time>2015-09-01T15:03:22.000Z</time>
      </trkpt>
      <trkpt lat="47.99852" lon="1.94319">
        <ele>161.82046508789</ele>
        <time>2015-09-01T15:03:24.000Z</time>
      </trkpt>
      <trkpt lat="47.99854" lon="1.94304">
        <ele>159.82376098633</ele>
        <time>2015-09-01T15:03:26.000Z</time>
      </trkpt>
      <trkpt lat="47.99856" lon="1.94288">
        <ele>158.43391418457</ele>
        <time>2015-09-01T15:03:28.000Z</time>
      </trkpt>
      <trkpt lat="47.99856" lon="1.94269">
        <ele>157.79945373535</ele>
        <time>2015-09-01T15:03:31.000Z</time>
      </trkpt>
      <trkpt lat="47.99856" lon="1.94248">
        <ele>155.82656860352</ele>
        <time>2015-09-01T15:03:34.000Z</time>
      </trkpt>
      <trkpt lat="47.99856" lon="1.94229">
        <ele>155.76580810547</ele>
        <time>2015-09-01T15:03:37.000Z</time>
      </trkpt>
      <trkpt lat="47.99858" lon="1.9421">
        <ele>156.33586120605</ele>
        <time>2015-09-01T15:03:40.000Z</time>
      </trkpt>
      <trkpt lat="47.9986" lon="1.9419">
        <ele>158.56088256836</ele>
        <time>2015-09-01T15:03:43.000Z</time>
      </trkpt>
      <trkpt lat="47.99861" lon="1.94178">
        <ele>158.54696655273</ele>
        <time>2015-09-01T15:03:45.000Z</time>
      </trkpt>
      <trkpt lat="47.99861" lon="1.94162">
        <ele>158.70588684082</ele>
        <time>2015-09-01T15:03:48.000Z</time>
      </trkpt>
      <trkpt lat="47.99861" lon="1.94152">
        <ele>158.50569152832</ele>
        <time>2015-09-01T15:03:50.000Z</time>
      </trkpt>
      <trkpt lat="47.99863" lon="1.9414">
        <ele>159.92080688477</ele>
        <time>2015-09-01T15:03:52.000Z</time>
      </trkpt>
      <trkpt lat="47.99865" lon="1.94124">
        <ele>159.35273742676</ele>
        <time>2015-09-01T15:03:54.000Z</time>
      </trkpt>
      <trkpt lat="47.99867" lon="1.94112">
        <ele>158.65382385254</ele>
        <time>2015-09-01T15:03:56.000Z</time>
      </trkpt>
      <trkpt lat="47.99868" lon="1.94093">
        <ele>158.64575195312</ele>
        <time>2015-09-01T15:03:59.000Z</time>
      </trkpt>
      <trkpt lat="47.9987" lon="1.94073">
        <ele>157.13806152344</ele>
        <time>2015-09-01T15:04:02.000Z</time>
      </trkpt>
      <trkpt lat="47.99872" lon="1.94052">
        <ele>159.93055725098</ele>
        <time>2015-09-01T15:04:05.000Z</time>
      </trkpt>
      <trkpt lat="47.99873" lon="1.94041">
        <ele>161.9898223877</ele>
        <time>2015-09-01T15:04:07.000Z</time>
      </trkpt>
      <trkpt lat="47.99873" lon="1.94021">
        <ele>160.82093811035</ele>
        <time>2015-09-01T15:04:10.000Z</time>
      </trkpt>
      <trkpt lat="47.99875" lon="1.94005">
        <ele>158.46914672852</ele>
        <time>2015-09-01T15:04:12.000Z</time>
      </trkpt>
      <trkpt lat="47.99873" lon="1.93982">
        <ele>154.72994995117</ele>
        <time>2015-09-01T15:04:15.000Z</time>
      </trkpt>
      <trkpt lat="47.99871" lon="1.93972">
        <ele>152.01496887207</ele>
        <time>2015-09-01T15:04:17.000Z</time>
      </trkpt>
      <trkpt lat="47.99868" lon="1.93961">
        <ele>148.61972045898</ele>
        <time>2015-09-01T15:04:20.000Z</time>
      </trkpt>
      <trkpt lat="47.99867" lon="1.93957">
        <ele>148.76055908203</ele>
        <time>2015-09-01T15:04:22.000Z</time>
      </trkpt>
      <trkpt lat="47.99869" lon="1.9395">
        <ele>147.80807495117</ele>
        <time>2015-09-01T15:04:25.000Z</time>
      </trkpt>
      <trkpt lat="47.99873" lon="1.93946">
        <ele>146.05651855469</ele>
        <time>2015-09-01T15:04:27.000Z</time>
      </trkpt>
      <trkpt lat="47.99879" lon="1.93943">
        <ele>145.2772064209</ele>
        <time>2015-09-01T15:04:30.000Z</time>
      </trkpt>
      <trkpt lat="47.9988" lon="1.93938">
        <ele>145.02719116211</ele>
        <time>2015-09-01T15:04:32.000Z</time>
      </trkpt>
      <trkpt lat="47.99881" lon="1.93927">
        <ele>148.31332397461</ele>
        <time>2015-09-01T15:04:34.000Z</time>
      </trkpt>
      <trkpt lat="47.99881" lon="1.93915">
        <ele>151.25521850586</ele>
        <time>2015-09-01T15:04:36.000Z</time>
      </trkpt>
      <trkpt lat="47.99882" lon="1.93896">
        <ele>154.50856018066</ele>
        <time>2015-09-01T15:04:39.000Z</time>
      </trkpt>
      <trkpt lat="47.99883" lon="1.93884">
        <ele>156.69543457031</ele>
        <time>2015-09-01T15:04:41.000Z</time>
      </trkpt>
      <trkpt lat="47.99884" lon="1.93871">
        <ele>157.83969116211</ele>
        <time>2015-09-01T15:04:43.000Z</time>
      </trkpt>
      <trkpt lat="47.99887" lon="1.93835">
        <ele>162.69136047363</ele>
        <time>2015-09-01T15:04:46.000Z</time>
      </trkpt>
      <trkpt lat="47.99888" lon="1.93818">
        <ele>162.58085632324</ele>
        <time>2015-09-01T15:04:48.000Z</time>
      </trkpt>
      <trkpt lat="47.99889" lon="1.93797">
        <ele>162.02197265625</ele>
        <time>2015-09-01T15:04:50.000Z</time>
      </trkpt>
      <trkpt lat="47.99892" lon="1.93777">
        <ele>162.26957702637</ele>
        <time>2015-09-01T15:04:53.000Z</time>
      </trkpt>
      <trkpt lat="47.99892" lon="1.93761">
        <ele>156.9112701416</ele>
        <time>2015-09-01T15:04:56.000Z</time>
      </trkpt>
      <trkpt lat="47.99891" lon="1.93748">
        <ele>151.54840087891</ele>
        <time>2015-09-01T15:04:58.000Z</time>
      </trkpt>
      <trkpt lat="47.99886" lon="1.93731">
        <ele>152.2713470459</ele>
        <time>2015-09-01T15:05:01.000Z</time>
      </trkpt>
      <trkpt lat="47.99881" lon="1.93716">
        <ele>154.59114074707</ele>
        <time>2015-09-01T15:05:03.000Z</time>
      </trkpt>
      <trkpt lat="47.9988" lon="1.93701">
        <ele>153.81823730469</ele>
        <time>2015-09-01T15:05:05.000Z</time>
      </trkpt>
      <trkpt lat="47.99879" lon="1.93673">
        <ele>149.53242492676</ele>
        <time>2015-09-01T15:05:08.000Z</time>
      </trkpt>
      <trkpt lat="47.99878" lon="1.93646">
        <ele>143.21646118164</ele>
        <time>2015-09-01T15:05:11.000Z</time>
      </trkpt>
      <trkpt lat="47.99875" lon="1.93633">
        <ele>140.70240783691</ele>
        <time>2015-09-01T15:05:13.000Z</time>
      </trkpt>
      <trkpt lat="47.99868" lon="1.93627">
        <ele>135.60827636719</ele>
        <time>2015-09-01T15:05:15.000Z</time>
      </trkpt>
      <trkpt lat="47.99863" lon="1.93627">
        <ele>129.37065124512</ele>
        <time>2015-09-01T15:05:18.000Z</time>
      </trkpt>
      <trkpt lat="47.99857" lon="1.93623">
        <ele>128.51715087891</ele>
        <time>2015-09-01T15:05:21.000Z</time>
      </trkpt>
      <trkpt lat="47.99852" lon="1.93616">
        <ele>128.7498626709</ele>
        <time>2015-09-01T15:05:24.000Z</time>
      </trkpt>
      <trkpt lat="47.99847" lon="1.93607">
        <ele>128.04022216797</ele>
        <time>2015-09-01T15:05:27.000Z</time>
      </trkpt>
      <trkpt lat="47.99841" lon="1.93601">
        <ele>128.89208984375</ele>
        <time>2015-09-01T15:05:29.000Z</time>
      </trkpt>
      <trkpt lat="47.99831" lon="1.93592">
        <ele>127.16287994385</ele>
        <time>2015-09-01T15:05:32.000Z</time>
      </trkpt>
      <trkpt lat="47.99824" lon="1.93584">
        <ele>125.94384765625</ele>
        <time>2015-09-01T15:05:34.000Z</time>
      </trkpt>
      <trkpt lat="47.99818" lon="1.93569">
        <ele>124.51992034912</ele>
        <time>2015-09-01T15:05:37.000Z</time>
      </trkpt>
      <trkpt lat="47.99819" lon="1.93556">
        <ele>124.14356231689</ele>
        <time>2015-09-01T15:05:39.000Z</time>
      </trkpt>
      <trkpt lat="47.99823" lon="1.93541">
        <ele>122.61803436279</ele>
        <time>2015-09-01T15:05:41.000Z</time>
      </trkpt>
      <trkpt lat="47.99827" lon="1.93522">
        <ele>121.9359664917</ele>
        <time>2015-09-01T15:05:44.000Z</time>
      </trkpt>
      <trkpt lat="47.99831" lon="1.93501">
        <ele>121.94857025146</ele>
        <time>2015-09-01T15:05:47.000Z</time>
      </trkpt>
      <trkpt lat="47.99833" lon="1.93487">
        <ele>121.45936584473</ele>
        <time>2015-09-01T15:05:49.000Z</time>
      </trkpt>
      <trkpt lat="47.99837" lon="1.93468">
        <ele>121.74660491943</ele>
        <time>2015-09-01T15:05:52.000Z</time>
      </trkpt>
      <trkpt lat="47.99838" lon="1.93453">
        <ele>121.58881378174</ele>
        <time>2015-09-01T15:05:54.000Z</time>
      </trkpt>
      <trkpt lat="47.99839" lon="1.93431">
        <ele>121.25800323486</ele>
        <time>2015-09-01T15:05:57.000Z</time>
      </trkpt>
      <trkpt lat="47.99838" lon="1.93411">
        <ele>120.60192108154</ele>
        <time>2015-09-01T15:06:00.000Z</time>
      </trkpt>
      <trkpt lat="47.99836" lon="1.93396">
        <ele>119.56692504883</ele>
        <time>2015-09-01T15:06:02.000Z</time>
      </trkpt>
      <trkpt lat="47.99831" lon="1.93373">
        <ele>118.49821472168</ele>
        <time>2015-09-01T15:06:05.000Z</time>
      </trkpt>
      <trkpt lat="47.99826" lon="1.9336">
        <ele>117.14451599121</ele>
        <time>2015-09-01T15:06:07.000Z</time>
      </trkpt>
      <trkpt lat="47.9982" lon="1.93347">
        <ele>117.05048370361</ele>
        <time>2015-09-01T15:06:09.000Z</time>
      </trkpt>
      <trkpt lat="47.99812" lon="1.93328">
        <ele>116.63237762451</ele>
        <time>2015-09-01T15:06:12.000Z</time>
      </trkpt>
      <trkpt lat="47.99803" lon="1.9331">
        <ele>117.09038543701</ele>
        <time>2015-09-01T15:06:15.000Z</time>
      </trkpt>
      <trkpt lat="47.99797" lon="1.9329">
        <ele>115.13059234619</ele>
        <time>2015-09-01T15:06:18.000Z</time>
      </trkpt>
      <trkpt lat="47.99791" lon="1.93278">
        <ele>115.05052185059</ele>
        <time>2015-09-01T15:06:20.000Z</time>
      </trkpt>
      <trkpt lat="47.99786" lon="1.93265">
        <ele>114.53846740723</ele>
        <time>2015-09-01T15:06:22.000Z</time>
      </trkpt>
      <trkpt lat="47.99781" lon="1.93254">
        <ele>114.53751373291</ele>
        <time>2015-09-01T15:06:24.000Z</time>
      </trkpt>
      <trkpt lat="47.99776" lon="1.93241">
        <ele>114.95170593262</ele>
        <time>2015-09-01T15:06:26.000Z</time>
      </trkpt>
      <trkpt lat="47.9977" lon="1.93222">
        <ele>114.02634429932</ele>
        <time>2015-09-01T15:06:29.000Z</time>
      </trkpt>
      <trkpt lat="47.99769" lon="1.93205">
        <ele>113.96153259277</ele>
        <time>2015-09-01T15:06:32.000Z</time>
      </trkpt>
      <trkpt lat="47.99771" lon="1.93196">
        <ele>114.35484313965</ele>
        <time>2015-09-01T15:06:34.000Z</time>
      </trkpt>
      <trkpt lat="47.99776" lon="1.93186">
        <ele>115.42604064941</ele>
        <time>2015-09-01T15:06:37.000Z</time>
      </trkpt>
      <trkpt lat="47.99779" lon="1.9318">
        <ele>116.67436218262</ele>
        <time>2015-09-01T15:06:39.000Z</time>
      </trkpt>
      <trkpt lat="47.99778" lon="1.9318">
        <ele>117.32582855225</ele>
        <time>2015-09-01T15:06:49.000Z</time>
      </trkpt>
      <trkpt lat="47.99778" lon="1.9318">
        <ele>129.55815124512</ele>
        <time>2015-09-01T15:07:09.000Z</time>
      </trkpt>
      <trkpt lat="47.99778" lon="1.93178">
        <ele>117.15747833252</ele>
        <time>2015-09-01T15:07:17.000Z</time>
      </trkpt>
      <trkpt lat="47.99778" lon="1.93169">
        <ele>117.41653442383</ele>
        <time>2015-09-01T15:07:20.000Z</time>
      </trkpt>
      <trkpt lat="47.99781" lon="1.93164">
        <ele>117.66574859619</ele>
        <time>2015-09-01T15:07:22.000Z</time>
      </trkpt>
      <trkpt lat="47.9979" lon="1.93159">
        <ele>124.3607711792</ele>
        <time>2015-09-01T15:07:25.000Z</time>
      </trkpt>
      <trkpt lat="47.99794" lon="1.93155">
        <ele>127.24494171143</ele>
        <time>2015-09-01T15:07:27.000Z</time>
      </trkpt>
      <trkpt lat="47.99797" lon="1.93148">
        <ele>129.25588989258</ele>
        <time>2015-09-01T15:07:29.000Z</time>
      </trkpt>
      <trkpt lat="47.99798" lon="1.93142">
        <ele>130.33630371094</ele>
        <time>2015-09-01T15:07:31.000Z</time>
      </trkpt>
      <trkpt lat="47.99797" lon="1.93135">
        <ele>132.49284362793</ele>
        <time>2015-09-01T15:07:33.000Z</time>
      </trkpt>
      <trkpt lat="47.99795" lon="1.9313">
        <ele>133.00660705566</ele>
        <time>2015-09-01T15:07:35.000Z</time>
      </trkpt>
      <trkpt lat="47.99791" lon="1.93125">
        <ele>134.44114685059</ele>
        <time>2015-09-01T15:07:37.000Z</time>
      </trkpt>
      <trkpt lat="47.99788" lon="1.93121">
        <ele>138.24952697754</ele>
        <time>2015-09-01T15:07:39.000Z</time>
      </trkpt>
      <trkpt lat="47.99786" lon="1.93117">
        <ele>142.14151000977</ele>
        <time>2015-09-01T15:07:42.000Z</time>
      </trkpt>
      <trkpt lat="47.99786" lon="1.93114">
        <ele>142.36094665527</ele>
        <time>2015-09-01T15:07:46.000Z</time>
      </trkpt>
      <trkpt lat="47.99785" lon="1.93114">
        <ele>142.20831298828</ele>
        <time>2015-09-01T15:07:48.000Z</time>
      </trkpt>
      <trkpt lat="47.99779" lon="1.93115">
        <ele>143.33427429199</ele>
        <time>2015-09-01T15:07:51.000Z</time>
      </trkpt>
      <trkpt lat="47.99771" lon="1.93115">
        <ele>144.0926361084</ele>
        <time>2015-09-01T15:07:54.000Z</time>
      </trkpt>
      <trkpt lat="47.99764" lon="1.93113">
        <ele>144.61322021484</ele>
        <time>2015-09-01T15:07:57.000Z</time>
      </trkpt>
      <trkpt lat="47.99759" lon="1.9311">
        <ele>146.00524902344</ele>
        <time>2015-09-01T15:07:59.000Z</time>
      </trkpt>
      <trkpt lat="47.99752" lon="1.93108">
        <ele>144.60285949707</ele>
        <time>2015-09-01T15:08:01.000Z</time>
      </trkpt>
      <trkpt lat="47.99741" lon="1.93106">
        <ele>144.16474914551</ele>
        <time>2015-09-01T15:08:04.000Z</time>
      </trkpt>
      <trkpt lat="47.99733" lon="1.93105">
        <ele>145.90242004395</ele>
        <time>2015-09-01T15:08:06.000Z</time>
      </trkpt>
      <trkpt lat="47.99726" lon="1.93102">
        <ele>147.1277923584</ele>
        <time>2015-09-01T15:08:08.000Z</time>
      </trkpt>
      <trkpt lat="47.99717" lon="1.93098">
        <ele>147.9786529541</ele>
        <time>2015-09-01T15:08:11.000Z</time>
      </trkpt>
      <trkpt lat="47.99709" lon="1.93094">
        <ele>146.20542907715</ele>
        <time>2015-09-01T15:08:14.000Z</time>
      </trkpt>
      <trkpt lat="47.99702" lon="1.93091">
        <ele>146.06097412109</ele>
        <time>2015-09-01T15:08:17.000Z</time>
      </trkpt>
      <trkpt lat="47.99695" lon="1.93089">
        <ele>146.09091186523</ele>
        <time>2015-09-01T15:08:19.000Z</time>
      </trkpt>
      <trkpt lat="47.99687" lon="1.93085">
        <ele>147.44755554199</ele>
        <time>2015-09-01T15:08:21.000Z</time>
      </trkpt>
      <trkpt lat="47.9968" lon="1.93081">
        <ele>147.10496520996</ele>
        <time>2015-09-01T15:08:23.000Z</time>
      </trkpt>
      <trkpt lat="47.99669" lon="1.93077">
        <ele>146.0770111084</ele>
        <time>2015-09-01T15:08:26.000Z</time>
      </trkpt>
      <trkpt lat="47.99661" lon="1.93075">
        <ele>146.08975219727</ele>
        <time>2015-09-01T15:08:28.000Z</time>
      </trkpt>
      <trkpt lat="47.99653" lon="1.93072">
        <ele>144.61618041992</ele>
        <time>2015-09-01T15:08:30.000Z</time>
      </trkpt>
      <trkpt lat="47.99645" lon="1.93071">
        <ele>146.88600158691</ele>
        <time>2015-09-01T15:08:32.000Z</time>
      </trkpt>
      <trkpt lat="47.9964" lon="1.93073">
        <ele>150.31742858887</ele>
        <time>2015-09-01T15:08:35.000Z</time>
      </trkpt>
      <trkpt lat="47.99636" lon="1.93073">
        <ele>150.24877929688</ele>
        <time>2015-09-01T15:08:37.000Z</time>
      </trkpt>
      <trkpt lat="47.99631" lon="1.93072">
        <ele>148.28237915039</ele>
        <time>2015-09-01T15:08:39.000Z</time>
      </trkpt>
      <trkpt lat="47.99624" lon="1.9307">
        <ele>145.71662902832</ele>
        <time>2015-09-01T15:08:41.000Z</time>
      </trkpt>
      <trkpt lat="47.99618" lon="1.93069">
        <ele>144.70962524414</ele>
        <time>2015-09-01T15:08:43.000Z</time>
      </trkpt>
      <trkpt lat="47.99612" lon="1.93069">
        <ele>140.32661437988</ele>
        <time>2015-09-01T15:08:46.000Z</time>
      </trkpt>
      <trkpt lat="47.9961" lon="1.93073">
        <ele>138.30120849609</ele>
        <time>2015-09-01T15:08:48.000Z</time>
      </trkpt>
      <trkpt lat="47.99608" lon="1.93072">
        <ele>136.24771118164</ele>
        <time>2015-09-01T15:08:52.000Z</time>
      </trkpt>
      <trkpt lat="47.99608" lon="1.93069">
        <ele>136.34436035156</ele>
        <time>2015-09-01T15:08:55.000Z</time>
      </trkpt>
      <trkpt lat="47.9961" lon="1.93068">
        <ele>136.93817138672</ele>
        <time>2015-09-01T15:08:57.000Z</time>
      </trkpt>
      <trkpt lat="47.99611" lon="1.93067">
        <ele>137.31463623047</ele>
        <time>2015-09-01T15:08:59.000Z</time>
      </trkpt>
      <trkpt lat="47.99608" lon="1.93057">
        <ele>133.6760559082</ele>
        <time>2015-09-01T15:09:02.000Z</time>
      </trkpt>
      <trkpt lat="47.99603" lon="1.93048">
        <ele>133.75477600098</ele>
        <time>2015-09-01T15:09:04.000Z</time>
      </trkpt>
      <trkpt lat="47.99592" lon="1.93039">
        <ele>135.46078491211</ele>
        <time>2015-09-01T15:09:06.000Z</time>
      </trkpt>
      <trkpt lat="47.99584" lon="1.93032">
        <ele>138.48837280273</ele>
        <time>2015-09-01T15:09:09.000Z</time>
      </trkpt>
      <trkpt lat="47.99579" lon="1.93029">
        <ele>139.12867736816</ele>
        <time>2015-09-01T15:09:11.000Z</time>
      </trkpt>
      <trkpt lat="47.99573" lon="1.93027">
        <ele>138.59217834473</ele>
        <time>2015-09-01T15:09:13.000Z</time>
      </trkpt>
      <trkpt lat="47.99567" lon="1.93024">
        <ele>138.07647705078</ele>
        <time>2015-09-01T15:09:15.000Z</time>
      </trkpt>
      <trkpt lat="47.99559" lon="1.9302">
        <ele>138.98030090332</ele>
        <time>2015-09-01T15:09:18.000Z</time>
      </trkpt>
      <trkpt lat="47.99551" lon="1.93017">
        <ele>139.95166015625</ele>
        <time>2015-09-01T15:09:20.000Z</time>
      </trkpt>
      <trkpt lat="47.99524" lon="1.93019">
        <ele>141.9552154541</ele>
        <time>2015-09-01T15:09:24.000Z</time>
      </trkpt>
      <trkpt lat="47.99515" lon="1.93018">
        <ele>142.07604980469</ele>
        <time>2015-09-01T15:09:27.000Z</time>
      </trkpt>
      <trkpt lat="47.99505" lon="1.93016">
        <ele>144.92651367188</ele>
        <time>2015-09-01T15:09:30.000Z</time>
      </trkpt>
      <trkpt lat="47.99501" lon="1.93017">
        <ele>145.66007995605</ele>
        <time>2015-09-01T15:09:32.000Z</time>
      </trkpt>
      <trkpt lat="47.99494" lon="1.93019">
        <ele>145.88388061523</ele>
        <time>2015-09-01T15:09:35.000Z</time>
      </trkpt>
      <trkpt lat="47.99488" lon="1.93018">
        <ele>144.70960998535</ele>
        <time>2015-09-01T15:09:37.000Z</time>
      </trkpt>
      <trkpt lat="47.99478" lon="1.93014">
        <ele>143.93539428711</ele>
        <time>2015-09-01T15:09:40.000Z</time>
      </trkpt>
      <trkpt lat="47.99446" lon="1.93002">
        <ele>143.96411132812</ele>
        <time>2015-09-01T15:09:44.000Z</time>
      </trkpt>
      <trkpt lat="47.99435" lon="1.92997">
        <ele>139.92504882812</ele>
        <time>2015-09-01T15:09:46.000Z</time>
      </trkpt>
      <trkpt lat="47.99426" lon="1.9299">
        <ele>138.49494934082</ele>
        <time>2015-09-01T15:09:48.000Z</time>
      </trkpt>
      <trkpt lat="47.99413" lon="1.92982">
        <ele>137.58389282227</ele>
        <time>2015-09-01T15:09:51.000Z</time>
      </trkpt>
      <trkpt lat="47.99404" lon="1.92977">
        <ele>136.15455627441</ele>
        <time>2015-09-01T15:09:53.000Z</time>
      </trkpt>
      <trkpt lat="47.99395" lon="1.92971">
        <ele>134.80000305176</ele>
        <time>2015-09-01T15:09:55.000Z</time>
      </trkpt>
      <trkpt lat="47.99385" lon="1.92962">
        <ele>133.31782531738</ele>
        <time>2015-09-01T15:09:58.000Z</time>
      </trkpt>
      <trkpt lat="47.99342" lon="1.92953">
        <ele>126.05226135254</ele>
        <time>2015-09-01T15:10:03.000Z</time>
      </trkpt>
      <trkpt lat="47.99331" lon="1.92947">
        <ele>126.53167724609</ele>
        <time>2015-09-01T15:10:05.000Z</time>
      </trkpt>
      <trkpt lat="47.99314" lon="1.92941">
        <ele>126.60469055176</ele>
        <time>2015-09-01T15:10:08.000Z</time>
      </trkpt>
      <trkpt lat="47.99297" lon="1.92933">
        <ele>124.57936096191</ele>
        <time>2015-09-01T15:10:11.000Z</time>
      </trkpt>
      <trkpt lat="47.9929" lon="1.92927">
        <ele>125.06410217285</ele>
        <time>2015-09-01T15:10:13.000Z</time>
      </trkpt>
      <trkpt lat="47.99278" lon="1.92923">
        <ele>126.47686767578</ele>
        <time>2015-09-01T15:10:15.000Z</time>
      </trkpt>
      <trkpt lat="47.99262" lon="1.92915">
        <ele>128.05352783203</ele>
        <time>2015-09-01T15:10:18.000Z</time>
      </trkpt>
      <trkpt lat="47.99252" lon="1.92911">
        <ele>128.7144317627</ele>
        <time>2015-09-01T15:10:20.000Z</time>
      </trkpt>
      <trkpt lat="47.99243" lon="1.92906">
        <ele>128.18022155762</ele>
        <time>2015-09-01T15:10:22.000Z</time>
      </trkpt>
      <trkpt lat="47.99235" lon="1.92902">
        <ele>129.19091796875</ele>
        <time>2015-09-01T15:10:24.000Z</time>
      </trkpt>
      <trkpt lat="47.99218" lon="1.92898">
        <ele>131.11140441895</ele>
        <time>2015-09-01T15:10:27.000Z</time>
      </trkpt>
      <trkpt lat="47.99205" lon="1.92892">
        <ele>130.72869873047</ele>
        <time>2015-09-01T15:10:30.000Z</time>
      </trkpt>
      <trkpt lat="47.99196" lon="1.92886">
        <ele>136.00479125977</ele>
        <time>2015-09-01T15:10:32.000Z</time>
      </trkpt>
      <trkpt lat="47.99182" lon="1.92881">
        <ele>140.41479492188</ele>
        <time>2015-09-01T15:10:35.000Z</time>
      </trkpt>
      <trkpt lat="47.99171" lon="1.92875">
        <ele>139.6404876709</ele>
        <time>2015-09-01T15:10:38.000Z</time>
      </trkpt>
      <trkpt lat="47.99154" lon="1.92867">
        <ele>147.29379272461</ele>
        <time>2015-09-01T15:10:41.000Z</time>
      </trkpt>
      <trkpt lat="47.9914" lon="1.92858">
        <ele>146.5500793457</ele>
        <time>2015-09-01T15:10:44.000Z</time>
      </trkpt>
      <trkpt lat="47.99129" lon="1.92853">
        <ele>145.51351928711</ele>
        <time>2015-09-01T15:10:46.000Z</time>
      </trkpt>
      <trkpt lat="47.99111" lon="1.92844">
        <ele>141.1556854248</ele>
        <time>2015-09-01T15:10:49.000Z</time>
      </trkpt>
      <trkpt lat="47.991" lon="1.92833">
        <ele>140.14401245117</ele>
        <time>2015-09-01T15:10:52.000Z</time>
      </trkpt>
      <trkpt lat="47.99084" lon="1.92826">
        <ele>138.51837158203</ele>
        <time>2015-09-01T15:10:55.000Z</time>
      </trkpt>
      <trkpt lat="47.99073" lon="1.92821">
        <ele>138.50587463379</ele>
        <time>2015-09-01T15:10:57.000Z</time>
      </trkpt>
      <trkpt lat="47.99063" lon="1.92818">
        <ele>137.21604919434</ele>
        <time>2015-09-01T15:10:59.000Z</time>
      </trkpt>
      <trkpt lat="47.99041" lon="1.9281">
        <ele>135.64538574219</ele>
        <time>2015-09-01T15:11:02.000Z</time>
      </trkpt>
      <trkpt lat="47.99025" lon="1.92803">
        <ele>138.62251281738</ele>
        <time>2015-09-01T15:11:04.000Z</time>
      </trkpt>
      <trkpt lat="47.99011" lon="1.92797">
        <ele>137.53352355957</ele>
        <time>2015-09-01T15:11:06.000Z</time>
      </trkpt>
      <trkpt lat="47.98993" lon="1.92789">
        <ele>136.09646606445</ele>
        <time>2015-09-01T15:11:09.000Z</time>
      </trkpt>
      <trkpt lat="47.98976" lon="1.92781">
        <ele>136.62576293945</ele>
        <time>2015-09-01T15:11:12.000Z</time>
      </trkpt>
      <trkpt lat="47.98957" lon="1.92773">
        <ele>135.15785217285</ele>
        <time>2015-09-01T15:11:15.000Z</time>
      </trkpt>
      <trkpt lat="47.98943" lon="1.92764">
        <ele>135.53067016602</ele>
        <time>2015-09-01T15:11:17.000Z</time>
      </trkpt>
      <trkpt lat="47.9893" lon="1.92758">
        <ele>136.0845489502</ele>
        <time>2015-09-01T15:11:19.000Z</time>
      </trkpt>
      <trkpt lat="47.98912" lon="1.9275">
        <ele>135.14422607422</ele>
        <time>2015-09-01T15:11:22.000Z</time>
      </trkpt>
      <trkpt lat="47.98892" lon="1.92745">
        <ele>133.54153442383</ele>
        <time>2015-09-01T15:11:25.000Z</time>
      </trkpt>
      <trkpt lat="47.9888" lon="1.92741">
        <ele>132.52249145508</ele>
        <time>2015-09-01T15:11:27.000Z</time>
      </trkpt>
      <trkpt lat="47.98856" lon="1.92731">
        <ele>134.79515075684</ele>
        <time>2015-09-01T15:11:30.000Z</time>
      </trkpt>
      <trkpt lat="47.98843" lon="1.92725">
        <ele>135.7098236084</ele>
        <time>2015-09-01T15:11:32.000Z</time>
      </trkpt>
      <trkpt lat="47.98822" lon="1.92716">
        <ele>134.48216247559</ele>
        <time>2015-09-01T15:11:35.000Z</time>
      </trkpt>
      <trkpt lat="47.98808" lon="1.92714">
        <ele>135.07041931152</ele>
        <time>2015-09-01T15:11:37.000Z</time>
      </trkpt>
      <trkpt lat="47.98793" lon="1.92709">
        <ele>134.07861328125</ele>
        <time>2015-09-01T15:11:40.000Z</time>
      </trkpt>
      <trkpt lat="47.98789" lon="1.92706">
        <ele>134.93754577637</ele>
        <time>2015-09-01T15:11:42.000Z</time>
      </trkpt>
      <trkpt lat="47.98784" lon="1.92704">
        <ele>134.72633361816</ele>
        <time>2015-09-01T15:11:45.000Z</time>
      </trkpt>
      <trkpt lat="47.98776" lon="1.927">
        <ele>134.62895202637</ele>
        <time>2015-09-01T15:11:48.000Z</time>
      </trkpt>
      <trkpt lat="47.98771" lon="1.92697">
        <ele>134.24563598633</ele>
        <time>2015-09-01T15:11:50.000Z</time>
      </trkpt>
      <trkpt lat="47.9876" lon="1.92688">
        <ele>130.0401763916</ele>
        <time>2015-09-01T15:11:53.000Z</time>
      </trkpt>
      <trkpt lat="47.98753" lon="1.92683">
        <ele>130.98510742188</ele>
        <time>2015-09-01T15:11:55.000Z</time>
      </trkpt>
      <trkpt lat="47.98746" lon="1.92679">
        <ele>131.6357421875</ele>
        <time>2015-09-01T15:11:57.000Z</time>
      </trkpt>
      <trkpt lat="47.98739" lon="1.92677">
        <ele>136.89668273926</ele>
        <time>2015-09-01T15:11:59.000Z</time>
      </trkpt>
      <trkpt lat="47.98731" lon="1.92674">
        <ele>142.84553527832</ele>
        <time>2015-09-01T15:12:01.000Z</time>
      </trkpt>
      <trkpt lat="47.98718" lon="1.92667">
        <ele>146.7356262207</ele>
        <time>2015-09-01T15:12:04.000Z</time>
      </trkpt>
      <trkpt lat="47.98685" lon="1.92651">
        <ele>141.53512573242</ele>
        <time>2015-09-01T15:12:08.000Z</time>
      </trkpt>
      <trkpt lat="47.98669" lon="1.92644">
        <ele>141.04571533203</ele>
        <time>2015-09-01T15:12:11.000Z</time>
      </trkpt>
      <trkpt lat="47.98658" lon="1.92639">
        <ele>142.64163208008</ele>
        <time>2015-09-01T15:12:13.000Z</time>
      </trkpt>
      <trkpt lat="47.98637" lon="1.92632">
        <ele>143.12130737305</ele>
        <time>2015-09-01T15:12:16.000Z</time>
      </trkpt>
      <trkpt lat="47.98626" lon="1.92626">
        <ele>142.92570495605</ele>
        <time>2015-09-01T15:12:18.000Z</time>
      </trkpt>
      <trkpt lat="47.98615" lon="1.92617">
        <ele>142.61541748047</ele>
        <time>2015-09-01T15:12:21.000Z</time>
      </trkpt>
      <trkpt lat="47.98602" lon="1.92612">
        <ele>143.34762573242</ele>
        <time>2015-09-01T15:12:24.000Z</time>
      </trkpt>
      <trkpt lat="47.98593" lon="1.92606">
        <ele>147.81335449219</ele>
        <time>2015-09-01T15:12:27.000Z</time>
      </trkpt>
      <trkpt lat="47.98588" lon="1.92602">
        <ele>149.45054626465</ele>
        <time>2015-09-01T15:12:29.000Z</time>
      </trkpt>
      <trkpt lat="47.98581" lon="1.92595">
        <ele>149.72616577148</ele>
        <time>2015-09-01T15:12:32.000Z</time>
      </trkpt>
      <trkpt lat="47.98574" lon="1.92591">
        <ele>149.92031860352</ele>
        <time>2015-09-01T15:12:34.000Z</time>
      </trkpt>
      <trkpt lat="47.98568" lon="1.92591">
        <ele>149.55522155762</ele>
        <time>2015-09-01T15:12:36.000Z</time>
      </trkpt>
      <trkpt lat="47.9856" lon="1.92591">
        <ele>146.12281799316</ele>
        <time>2015-09-01T15:12:39.000Z</time>
      </trkpt>
      <trkpt lat="47.98555" lon="1.92589">
        <ele>144.32424926758</ele>
        <time>2015-09-01T15:12:41.000Z</time>
      </trkpt>
      <trkpt lat="47.98543" lon="1.92582">
        <ele>147.33361816406</ele>
        <time>2015-09-01T15:12:44.000Z</time>
      </trkpt>
      <trkpt lat="47.98534" lon="1.9258">
        <ele>149.71051025391</ele>
        <time>2015-09-01T15:12:46.000Z</time>
      </trkpt>
      <trkpt lat="47.98521" lon="1.92575">
        <ele>154.12452697754</ele>
        <time>2015-09-01T15:12:49.000Z</time>
      </trkpt>
      <trkpt lat="47.98512" lon="1.9257">
        <ele>152.53797912598</ele>
        <time>2015-09-01T15:12:51.000Z</time>
      </trkpt>
      <trkpt lat="47.98505" lon="1.92566">
        <ele>150.50296020508</ele>
        <time>2015-09-01T15:12:54.000Z</time>
      </trkpt>
      <trkpt lat="47.98504" lon="1.92566">
        <ele>149.72277832031</ele>
        <time>2015-09-01T15:12:58.000Z</time>
      </trkpt>
      <trkpt lat="47.98503" lon="1.92566">
        <ele>148.8219909668</ele>
        <time>2015-09-01T15:13:01.000Z</time>
      </trkpt>
      <trkpt lat="47.98503" lon="1.92566">
        <ele>131</ele>
        <time>2015-09-01T15:13:21.000Z</time>
      </trkpt>
      <trkpt lat="47.98502" lon="1.92566">
        <ele>148.47627258301</ele>
        <time>2015-09-01T15:13:40.000Z</time>
      </trkpt>
      <trkpt lat="47.985" lon="1.92565">
        <ele>149.69416809082</ele>
        <time>2015-09-01T15:13:43.000Z</time>
      </trkpt>
      <trkpt lat="47.98496" lon="1.92564">
        <ele>150.99118041992</ele>
        <time>2015-09-01T15:13:45.000Z</time>
      </trkpt>
      <trkpt lat="47.98487" lon="1.92561">
        <ele>154.43505859375</ele>
        <time>2015-09-01T15:13:48.000Z</time>
      </trkpt>
      <trkpt lat="47.98481" lon="1.92558">
        <ele>155.58010864258</ele>
        <time>2015-09-01T15:13:50.000Z</time>
      </trkpt>
      <trkpt lat="47.98469" lon="1.9255">
        <ele>154.72329711914</ele>
        <time>2015-09-01T15:13:53.000Z</time>
      </trkpt>
      <trkpt lat="47.98462" lon="1.92545">
        <ele>155.08824157715</ele>
        <time>2015-09-01T15:13:55.000Z</time>
      </trkpt>
      <trkpt lat="47.98452" lon="1.9254">
        <ele>152.73553466797</ele>
        <time>2015-09-01T15:13:58.000Z</time>
      </trkpt>
      <trkpt lat="47.98445" lon="1.92539">
        <ele>149.52088928223</ele>
        <time>2015-09-01T15:14:00.000Z</time>
      </trkpt>
      <trkpt lat="47.98437" lon="1.92538">
        <ele>146.52014160156</ele>
        <time>2015-09-01T15:14:02.000Z</time>
      </trkpt>
      <trkpt lat="47.98428" lon="1.92534">
        <ele>153.38789367676</ele>
        <time>2015-09-01T15:14:05.000Z</time>
      </trkpt>
      <trkpt lat="47.98424" lon="1.92525">
        <ele>149.88824462891</ele>
        <time>2015-09-01T15:14:08.000Z</time>
      </trkpt>
      <trkpt lat="47.98422" lon="1.92515">
        <ele>146.14064025879</ele>
        <time>2015-09-01T15:14:11.000Z</time>
      </trkpt>
      <trkpt lat="47.98421" lon="1.92508">
        <ele>144.49157714844</ele>
        <time>2015-09-01T15:14:14.000Z</time>
      </trkpt>
      <trkpt lat="47.9842" lon="1.92506">
        <ele>142.53517150879</ele>
        <time>2015-09-01T15:14:18.000Z</time>
      </trkpt>
      <trkpt lat="47.9842" lon="1.92504">
        <ele>140.04705810547</ele>
        <time>2015-09-01T15:14:23.000Z</time>
      </trkpt>
      <trkpt lat="47.98418" lon="1.92505">
        <ele>137.23791503906</ele>
        <time>2015-09-01T15:14:26.000Z</time>
      </trkpt>
      <trkpt lat="47.98417" lon="1.92504">
        <ele>135.77005004883</ele>
        <time>2015-09-01T15:14:28.000Z</time>
      </trkpt>
      <trkpt lat="47.98415" lon="1.92503">
        <ele>133.91972351074</ele>
        <time>2015-09-01T15:14:34.000Z</time>
      </trkpt>
      <trkpt lat="47.98414" lon="1.92501">
        <ele>132.15057373047</ele>
        <time>2015-09-01T15:14:39.000Z</time>
      </trkpt>
      <trkpt lat="47.98414" lon="1.92501">
        <ele>131.86332702637</ele>
        <time>2015-09-01T15:14:59.000Z</time>
      </trkpt>
      <trkpt lat="47.98414" lon="1.925">
        <ele>132.09043884277</ele>
        <time>2015-09-01T15:15:34.000Z</time>
      </trkpt>
      <trkpt lat="47.98414" lon="1.92496">
        <ele>132.75784301758</ele>
        <time>2015-09-01T15:15:37.000Z</time>
      </trkpt>
      <trkpt lat="47.98414" lon="1.92491">
        <ele>135.33898925781</ele>
        <time>2015-09-01T15:15:39.000Z</time>
      </trkpt>
      <trkpt lat="47.98414" lon="1.9248">
        <ele>137.67848205566</ele>
        <time>2015-09-01T15:15:42.000Z</time>
      </trkpt>
      <trkpt lat="47.98413" lon="1.92463">
        <ele>140.56547546387</ele>
        <time>2015-09-01T15:15:45.000Z</time>
      </trkpt>
      <trkpt lat="47.98412" lon="1.92452">
        <ele>143.10675048828</ele>
        <time>2015-09-01T15:15:47.000Z</time>
      </trkpt>
      <trkpt lat="47.9841" lon="1.92432">
        <ele>143.43141174316</ele>
        <time>2015-09-01T15:15:50.000Z</time>
      </trkpt>
      <trkpt lat="47.98406" lon="1.92415">
        <ele>148.43406677246</ele>
        <time>2015-09-01T15:15:53.000Z</time>
      </trkpt>
      <trkpt lat="47.98405" lon="1.92405">
        <ele>149.98501586914</ele>
        <time>2015-09-01T15:15:55.000Z</time>
      </trkpt>
      <trkpt lat="47.98402" lon="1.92372">
        <ele>149.31567382812</ele>
        <time>2015-09-01T15:15:58.000Z</time>
      </trkpt>
      <trkpt lat="47.98403" lon="1.9235">
        <ele>152.95541381836</ele>
        <time>2015-09-01T15:16:01.000Z</time>
      </trkpt>
      <trkpt lat="47.98403" lon="1.92335">
        <ele>154.70487976074</ele>
        <time>2015-09-01T15:16:03.000Z</time>
      </trkpt>
      <trkpt lat="47.98404" lon="1.92308">
        <ele>155.20468139648</ele>
        <time>2015-09-01T15:16:06.000Z</time>
      </trkpt>
      <trkpt lat="47.98404" lon="1.92289">
        <ele>152.7398223877</ele>
        <time>2015-09-01T15:16:08.000Z</time>
      </trkpt>
      <trkpt lat="47.98404" lon="1.92255">
        <ele>147.70541381836</ele>
        <time>2015-09-01T15:16:11.000Z</time>
      </trkpt>
      <trkpt lat="47.98399" lon="1.92224">
        <ele>144.98231506348</ele>
        <time>2015-09-01T15:16:14.000Z</time>
      </trkpt>
      <trkpt lat="47.98395" lon="1.92208">
        <ele>145.86686706543</ele>
        <time>2015-09-01T15:16:16.000Z</time>
      </trkpt>
      <trkpt lat="47.98391" lon="1.92187">
        <ele>145.07415771484</ele>
        <time>2015-09-01T15:16:18.000Z</time>
      </trkpt>
      <trkpt lat="47.98388" lon="1.9216">
        <ele>142.44241333008</ele>
        <time>2015-09-01T15:16:21.000Z</time>
      </trkpt>
      <trkpt lat="47.98387" lon="1.92133">
        <ele>138.91067504883</ele>
        <time>2015-09-01T15:16:24.000Z</time>
      </trkpt>
      <trkpt lat="47.9839" lon="1.92105">
        <ele>136.81581115723</ele>
        <time>2015-09-01T15:16:27.000Z</time>
      </trkpt>
      <trkpt lat="47.98392" lon="1.92087">
        <ele>135.02612304688</ele>
        <time>2015-09-01T15:16:29.000Z</time>
      </trkpt>
      <trkpt lat="47.98393" lon="1.92059">
        <ele>134.01272583008</ele>
        <time>2015-09-01T15:16:32.000Z</time>
      </trkpt>
      <trkpt lat="47.98392" lon="1.92029">
        <ele>133.27700805664</ele>
        <time>2015-09-01T15:16:35.000Z</time>
      </trkpt>
      <trkpt lat="47.9839" lon="1.9201">
        <ele>132.14944458008</ele>
        <time>2015-09-01T15:16:37.000Z</time>
      </trkpt>
      <trkpt lat="47.98389" lon="1.9199">
        <ele>129.88179016113</ele>
        <time>2015-09-01T15:16:39.000Z</time>
      </trkpt>
      <trkpt lat="47.98387" lon="1.91964">
        <ele>128.1764831543</ele>
        <time>2015-09-01T15:16:42.000Z</time>
      </trkpt>
      <trkpt lat="47.98385" lon="1.91946">
        <ele>127.52011108398</ele>
        <time>2015-09-01T15:16:44.000Z</time>
      </trkpt>
      <trkpt lat="47.98385" lon="1.91923">
        <ele>126.99175262451</ele>
        <time>2015-09-01T15:16:47.000Z</time>
      </trkpt>
      <trkpt lat="47.98383" lon="1.91909">
        <ele>126.63410186768</ele>
        <time>2015-09-01T15:16:50.000Z</time>
      </trkpt>
      <trkpt lat="47.98382" lon="1.91891">
        <ele>126.0345993042</ele>
        <time>2015-09-01T15:16:53.000Z</time>
      </trkpt>
      <trkpt lat="47.98382" lon="1.91874">
        <ele>125.35818481445</ele>
        <time>2015-09-01T15:16:55.000Z</time>
      </trkpt>
      <trkpt lat="47.98384" lon="1.9186">
        <ele>126.42102813721</ele>
        <time>2015-09-01T15:16:57.000Z</time>
      </trkpt>
      <trkpt lat="47.98385" lon="1.91847">
        <ele>126.84768676758</ele>
        <time>2015-09-01T15:16:59.000Z</time>
      </trkpt>
      <trkpt lat="47.98385" lon="1.91831">
        <ele>127.12452697754</ele>
        <time>2015-09-01T15:17:02.000Z</time>
      </trkpt>
      <trkpt lat="47.98384" lon="1.91815">
        <ele>127.46117401123</ele>
        <time>2015-09-01T15:17:04.000Z</time>
      </trkpt>
      <trkpt lat="47.98384" lon="1.91798">
        <ele>127.71836090088</ele>
        <time>2015-09-01T15:17:06.000Z</time>
      </trkpt>
      <trkpt lat="47.98383" lon="1.91778">
        <ele>128.9178314209</ele>
        <time>2015-09-01T15:17:09.000Z</time>
      </trkpt>
      <trkpt lat="47.98383" lon="1.91754">
        <ele>131.89027404785</ele>
        <time>2015-09-01T15:17:12.000Z</time>
      </trkpt>
      <trkpt lat="47.98383" lon="1.91739">
        <ele>132.47393798828</ele>
        <time>2015-09-01T15:17:14.000Z</time>
      </trkpt>
      <trkpt lat="47.98383" lon="1.91718">
        <ele>132.86058044434</ele>
        <time>2015-09-01T15:17:17.000Z</time>
      </trkpt>
      <trkpt lat="47.98381" lon="1.91694">
        <ele>132.28717041016</ele>
        <time>2015-09-01T15:17:20.000Z</time>
      </trkpt>
      <trkpt lat="47.98379" lon="1.91677">
        <ele>132.39729309082</ele>
        <time>2015-09-01T15:17:22.000Z</time>
      </trkpt>
      <trkpt lat="47.98375" lon="1.91652">
        <ele>129.89840698242</ele>
        <time>2015-09-01T15:17:25.000Z</time>
      </trkpt>
      <trkpt lat="47.98374" lon="1.91625">
        <ele>128.65934753418</ele>
        <time>2015-09-01T15:17:28.000Z</time>
      </trkpt>
      <trkpt lat="47.98373" lon="1.91598">
        <ele>128.02897644043</ele>
        <time>2015-09-01T15:17:31.000Z</time>
      </trkpt>
      <trkpt lat="47.98372" lon="1.9157">
        <ele>127.91976165771</ele>
        <time>2015-09-01T15:17:34.000Z</time>
      </trkpt>
      <trkpt lat="47.9837" lon="1.91542">
        <ele>125.74402618408</ele>
        <time>2015-09-01T15:17:37.000Z</time>
      </trkpt>
      <trkpt lat="47.9837" lon="1.91516">
        <ele>125.77733612061</ele>
        <time>2015-09-01T15:17:40.000Z</time>
      </trkpt>
      <trkpt lat="47.98369" lon="1.91488">
        <ele>125.6756439209</ele>
        <time>2015-09-01T15:17:43.000Z</time>
      </trkpt>
      <trkpt lat="47.98369" lon="1.91472">
        <ele>125.78924560547</ele>
        <time>2015-09-01T15:17:45.000Z</time>
      </trkpt>
      <trkpt lat="47.9837" lon="1.91445">
        <ele>125.63025665283</ele>
        <time>2015-09-01T15:17:48.000Z</time>
      </trkpt>
      <trkpt lat="47.98369" lon="1.91417">
        <ele>125.69625854492</ele>
        <time>2015-09-01T15:17:51.000Z</time>
      </trkpt>
      <trkpt lat="47.98368" lon="1.91398">
        <ele>124.8012008667</ele>
        <time>2015-09-01T15:17:53.000Z</time>
      </trkpt>
      <trkpt lat="47.98367" lon="1.91379">
        <ele>123.72466278076</ele>
        <time>2015-09-01T15:17:55.000Z</time>
      </trkpt>
      <trkpt lat="47.98366" lon="1.91359">
        <ele>123.41265106201</ele>
        <time>2015-09-01T15:17:57.000Z</time>
      </trkpt>
      <trkpt lat="47.98366" lon="1.9133">
        <ele>123.87384796143</ele>
        <time>2015-09-01T15:18:00.000Z</time>
      </trkpt>
      <trkpt lat="47.98364" lon="1.91309">
        <ele>125.18310546875</ele>
        <time>2015-09-01T15:18:02.000Z</time>
      </trkpt>
      <trkpt lat="47.98361" lon="1.91282">
        <ele>126.05437469482</ele>
        <time>2015-09-01T15:18:05.000Z</time>
      </trkpt>
      <trkpt lat="47.98359" lon="1.91253">
        <ele>124.9126739502</ele>
        <time>2015-09-01T15:18:08.000Z</time>
      </trkpt>
      <trkpt lat="47.98358" lon="1.91238">
        <ele>124.5989151001</ele>
        <time>2015-09-01T15:18:10.000Z</time>
      </trkpt>
      <trkpt lat="47.98358" lon="1.91216">
        <ele>124.64619445801</ele>
        <time>2015-09-01T15:18:13.000Z</time>
      </trkpt>
      <trkpt lat="47.98359" lon="1.912">
        <ele>124.35453796387</ele>
        <time>2015-09-01T15:18:15.000Z</time>
      </trkpt>
      <trkpt lat="47.98358" lon="1.9118">
        <ele>123.06274414062</ele>
        <time>2015-09-01T15:18:18.000Z</time>
      </trkpt>
      <trkpt lat="47.98358" lon="1.91164">
        <ele>122.90898132324</ele>
        <time>2015-09-01T15:18:21.000Z</time>
      </trkpt>
      <trkpt lat="47.98358" lon="1.91154">
        <ele>122.61947631836</ele>
        <time>2015-09-01T15:18:23.000Z</time>
      </trkpt>
      <trkpt lat="47.98358" lon="1.91139">
        <ele>122.40919494629</ele>
        <time>2015-09-01T15:18:26.000Z</time>
      </trkpt>
      <trkpt lat="47.98359" lon="1.9113">
        <ele>123.58125305176</ele>
        <time>2015-09-01T15:18:29.000Z</time>
      </trkpt>
      <trkpt lat="47.98359" lon="1.91126">
        <ele>123.78321838379</ele>
        <time>2015-09-01T15:18:31.000Z</time>
      </trkpt>
      <trkpt lat="47.98358" lon="1.91125">
        <ele>125.54437255859</ele>
        <time>2015-09-01T15:18:45.000Z</time>
      </trkpt>
      <trkpt lat="47.98357" lon="1.91116">
        <ele>127.71565246582</ele>
        <time>2015-09-01T15:18:48.000Z</time>
      </trkpt>
      <trkpt lat="47.98357" lon="1.91108">
        <ele>127.55602264404</ele>
        <time>2015-09-01T15:18:50.000Z</time>
      </trkpt>
      <trkpt lat="47.98354" lon="1.911">
        <ele>124.79714202881</ele>
        <time>2015-09-01T15:18:53.000Z</time>
      </trkpt>
      <trkpt lat="47.98346" lon="1.91096">
        <ele>125.40534973145</ele>
        <time>2015-09-01T15:18:56.000Z</time>
      </trkpt>
      <trkpt lat="47.98341" lon="1.9109">
        <ele>126.42474365234</ele>
        <time>2015-09-01T15:18:59.000Z</time>
      </trkpt>
      <trkpt lat="47.98337" lon="1.91082">
        <ele>127.32559967041</ele>
        <time>2015-09-01T15:19:02.000Z</time>
      </trkpt>
      <trkpt lat="47.98334" lon="1.91078">
        <ele>128.05416870117</ele>
        <time>2015-09-01T15:19:04.000Z</time>
      </trkpt>
      <trkpt lat="47.98331" lon="1.91075">
        <ele>128.43685913086</ele>
        <time>2015-09-01T15:19:06.000Z</time>
      </trkpt>
      <trkpt lat="47.98329" lon="1.91073">
        <ele>128.58627319336</ele>
        <time>2015-09-01T15:19:08.000Z</time>
      </trkpt>
      <trkpt lat="47.98328" lon="1.91072">
        <ele>128.80505371094</ele>
        <time>2015-09-01T15:19:10.000Z</time>
      </trkpt>
      <trkpt lat="47.98325" lon="1.91068">
        <ele>128.22166442871</ele>
        <time>2015-09-01T15:19:13.000Z</time>
      </trkpt>
      <trkpt lat="47.98322" lon="1.91062">
        <ele>129.39598083496</ele>
        <time>2015-09-01T15:19:15.000Z</time>
      </trkpt>
      <trkpt lat="47.98315" lon="1.91054">
        <ele>129.5892791748</ele>
        <time>2015-09-01T15:19:18.000Z</time>
      </trkpt>
      <trkpt lat="47.98309" lon="1.91051">
        <ele>129.05548095703</ele>
        <time>2015-09-01T15:19:20.000Z</time>
      </trkpt>
      <trkpt lat="47.98301" lon="1.9105">
        <ele>128.20413208008</ele>
        <time>2015-09-01T15:19:23.000Z</time>
      </trkpt>
      <trkpt lat="47.98299" lon="1.9105">
        <ele>128.0397644043</ele>
        <time>2015-09-01T15:19:25.000Z</time>
      </trkpt>
      <trkpt lat="47.98296" lon="1.91049">
        <ele>128.24526977539</ele>
        <time>2015-09-01T15:19:28.000Z</time>
      </trkpt>
      <trkpt lat="47.98291" lon="1.91044">
        <ele>126.56089782715</ele>
        <time>2015-09-01T15:19:31.000Z</time>
      </trkpt>
      <trkpt lat="47.98282" lon="1.9104">
        <ele>125.03171539307</ele>
        <time>2015-09-01T15:19:34.000Z</time>
      </trkpt>
      <trkpt lat="47.98273" lon="1.9104">
        <ele>125.85238647461</ele>
        <time>2015-09-01T15:19:37.000Z</time>
      </trkpt>
      <trkpt lat="47.98269" lon="1.91041">
        <ele>125.68204498291</ele>
        <time>2015-09-01T15:19:39.000Z</time>
      </trkpt>
      <trkpt lat="47.98265" lon="1.9104">
        <ele>127.4831161499</ele>
        <time>2015-09-01T15:19:42.000Z</time>
      </trkpt>
      <trkpt lat="47.98264" lon="1.91035">
        <ele>128.60028076172</ele>
        <time>2015-09-01T15:19:44.000Z</time>
      </trkpt>
      <trkpt lat="47.98263" lon="1.9103">
        <ele>129.22703552246</ele>
        <time>2015-09-01T15:19:46.000Z</time>
      </trkpt>
      <trkpt lat="47.98253" lon="1.91027">
        <ele>128.04272460938</ele>
        <time>2015-09-01T15:19:49.000Z</time>
      </trkpt>
      <trkpt lat="47.98239" lon="1.91028">
        <ele>130.16548156738</ele>
        <time>2015-09-01T15:19:52.000Z</time>
      </trkpt>
      <trkpt lat="47.98226" lon="1.91026">
        <ele>130.10054016113</ele>
        <time>2015-09-01T15:19:55.000Z</time>
      </trkpt>
      <trkpt lat="47.98218" lon="1.91013">
        <ele>130.95642089844</ele>
        <time>2015-09-01T15:19:58.000Z</time>
      </trkpt>
      <trkpt lat="47.98215" lon="1.91001">
        <ele>131.50062561035</ele>
        <time>2015-09-01T15:20:00.000Z</time>
      </trkpt>
      <trkpt lat="47.98212" lon="1.90989">
        <ele>132.43128967285</ele>
        <time>2015-09-01T15:20:02.000Z</time>
      </trkpt>
      <trkpt lat="47.98211" lon="1.90979">
        <ele>133.36763000488</ele>
        <time>2015-09-01T15:20:04.000Z</time>
      </trkpt>
      <trkpt lat="47.98209" lon="1.90969">
        <ele>133.92663574219</ele>
        <time>2015-09-01T15:20:06.000Z</time>
      </trkpt>
      <trkpt lat="47.98205" lon="1.90958">
        <ele>140.51419067383</ele>
        <time>2015-09-01T15:20:09.000Z</time>
      </trkpt>
      <trkpt lat="47.98202" lon="1.90952">
        <ele>142.77619934082</ele>
        <time>2015-09-01T15:20:11.000Z</time>
      </trkpt>
      <trkpt lat="47.9819" lon="1.90945">
        <ele>142.72204589844</ele>
        <time>2015-09-01T15:20:14.000Z</time>
      </trkpt>
      <trkpt lat="47.98176" lon="1.90938">
        <ele>143.73188781738</ele>
        <time>2015-09-01T15:20:17.000Z</time>
      </trkpt>
      <trkpt lat="47.98164" lon="1.90932">
        <ele>145.05328369141</ele>
        <time>2015-09-01T15:20:20.000Z</time>
      </trkpt>
      <trkpt lat="47.98156" lon="1.90924">
        <ele>145.85252380371</ele>
        <time>2015-09-01T15:20:22.000Z</time>
      </trkpt>
      <trkpt lat="47.98145" lon="1.90907">
        <ele>146.13177490234</ele>
        <time>2015-09-01T15:20:25.000Z</time>
      </trkpt>
      <trkpt lat="47.98139" lon="1.909">
        <ele>146.10884094238</ele>
        <time>2015-09-01T15:20:27.000Z</time>
      </trkpt>
      <trkpt lat="47.98122" lon="1.90883">
        <ele>143.51702880859</ele>
        <time>2015-09-01T15:20:30.000Z</time>
      </trkpt>
      <trkpt lat="47.98101" lon="1.90869">
        <ele>135.57801818848</ele>
        <time>2015-09-01T15:20:33.000Z</time>
      </trkpt>
      <trkpt lat="47.98093" lon="1.90861">
        <ele>134.67071533203</ele>
        <time>2015-09-01T15:20:35.000Z</time>
      </trkpt>
      <trkpt lat="47.9808" lon="1.9085">
        <ele>134.1028137207</ele>
        <time>2015-09-01T15:20:38.000Z</time>
      </trkpt>
      <trkpt lat="47.98069" lon="1.90848">
        <ele>135.04821777344</ele>
        <time>2015-09-01T15:20:40.000Z</time>
      </trkpt>
      <trkpt lat="47.98057" lon="1.90847">
        <ele>135.08219909668</ele>
        <time>2015-09-01T15:20:43.000Z</time>
      </trkpt>
      <trkpt lat="47.98052" lon="1.90845">
        <ele>135.07669067383</ele>
        <time>2015-09-01T15:20:45.000Z</time>
      </trkpt>
      <trkpt lat="47.98042" lon="1.90837">
        <ele>134.20654296875</ele>
        <time>2015-09-01T15:20:48.000Z</time>
      </trkpt>
      <trkpt lat="47.98036" lon="1.90828">
        <ele>130.06692504883</ele>
        <time>2015-09-01T15:20:50.000Z</time>
      </trkpt>
      <trkpt lat="47.98032" lon="1.9082">
        <ele>127.23891448975</ele>
        <time>2015-09-01T15:20:52.000Z</time>
      </trkpt>
      <trkpt lat="47.98029" lon="1.90806">
        <ele>128.51098632812</ele>
        <time>2015-09-01T15:20:55.000Z</time>
      </trkpt>
      <trkpt lat="47.98031" lon="1.90798">
        <ele>136.16403198242</ele>
        <time>2015-09-01T15:20:57.000Z</time>
      </trkpt>
      <trkpt lat="47.98034" lon="1.90792">
        <ele>139.9720916748</ele>
        <time>2015-09-01T15:20:59.000Z</time>
      </trkpt>
      <trkpt lat="47.98038" lon="1.90777">
        <ele>141.01312255859</ele>
        <time>2015-09-01T15:21:02.000Z</time>
      </trkpt>
      <trkpt lat="47.98051" lon="1.90741">
        <ele>146.39044189453</ele>
        <time>2015-09-01T15:21:06.000Z</time>
      </trkpt>
      <trkpt lat="47.98056" lon="1.90727">
        <ele>145.99597167969</ele>
        <time>2015-09-01T15:21:08.000Z</time>
      </trkpt>
      <trkpt lat="47.9806" lon="1.90706">
        <ele>145.93307495117</ele>
        <time>2015-09-01T15:21:11.000Z</time>
      </trkpt>
      <trkpt lat="47.98064" lon="1.90694">
        <ele>146.41325378418</ele>
        <time>2015-09-01T15:21:13.000Z</time>
      </trkpt>
      <trkpt lat="47.98071" lon="1.9067">
        <ele>149.87162780762</ele>
        <time>2015-09-01T15:21:16.000Z</time>
      </trkpt>
      <trkpt lat="47.98079" lon="1.9065">
        <ele>148.20880126953</ele>
        <time>2015-09-01T15:21:19.000Z</time>
      </trkpt>
      <trkpt lat="47.98081" lon="1.90639">
        <ele>147.13555908203</ele>
        <time>2015-09-01T15:21:21.000Z</time>
      </trkpt>
      <trkpt lat="47.98082" lon="1.9063">
        <ele>146.97143554688</ele>
        <time>2015-09-01T15:21:23.000Z</time>
      </trkpt>
      <trkpt lat="47.98084" lon="1.90622">
        <ele>146.95004272461</ele>
        <time>2015-09-01T15:21:25.000Z</time>
      </trkpt>
      <trkpt lat="47.98085" lon="1.90607">
        <ele>141.45399475098</ele>
        <time>2015-09-01T15:21:28.000Z</time>
      </trkpt>
      <trkpt lat="47.98083" lon="1.90596">
        <ele>137.43930053711</ele>
        <time>2015-09-01T15:21:30.000Z</time>
      </trkpt>
      <trkpt lat="47.98075" lon="1.9058">
        <ele>131.20693969727</ele>
        <time>2015-09-01T15:21:33.000Z</time>
      </trkpt>
      <trkpt lat="47.98059" lon="1.90569">
        <ele>127.5941696167</ele>
        <time>2015-09-01T15:21:36.000Z</time>
      </trkpt>
      <trkpt lat="47.9805" lon="1.90563">
        <ele>126.51979064941</ele>
        <time>2015-09-01T15:21:38.000Z</time>
      </trkpt>
      <trkpt lat="47.98042" lon="1.90558">
        <ele>127.01302337646</ele>
        <time>2015-09-01T15:21:40.000Z</time>
      </trkpt>
      <trkpt lat="47.98031" lon="1.90553">
        <ele>127.13705444336</ele>
        <time>2015-09-01T15:21:42.000Z</time>
      </trkpt>
      <trkpt lat="47.9802" lon="1.9055">
        <ele>127.09461212158</ele>
        <time>2015-09-01T15:21:44.000Z</time>
      </trkpt>
      <trkpt lat="47.98009" lon="1.90544">
        <ele>127.4818572998</ele>
        <time>2015-09-01T15:21:46.000Z</time>
      </trkpt>
      <trkpt lat="47.97993" lon="1.90538">
        <ele>129.11535644531</ele>
        <time>2015-09-01T15:21:49.000Z</time>
      </trkpt>
      <trkpt lat="47.97976" lon="1.90532">
        <ele>130.14108276367</ele>
        <time>2015-09-01T15:21:52.000Z</time>
      </trkpt>
      <trkpt lat="47.97959" lon="1.90525">
        <ele>130.56269836426</ele>
        <time>2015-09-01T15:21:55.000Z</time>
      </trkpt>
      <trkpt lat="47.97944" lon="1.90519">
        <ele>129.52958679199</ele>
        <time>2015-09-01T15:21:58.000Z</time>
      </trkpt>
      <trkpt lat="47.97934" lon="1.90517">
        <ele>129.07455444336</ele>
        <time>2015-09-01T15:22:00.000Z</time>
      </trkpt>
      <trkpt lat="47.97924" lon="1.90515">
        <ele>130.99118041992</ele>
        <time>2015-09-01T15:22:02.000Z</time>
      </trkpt>
      <trkpt lat="47.97913" lon="1.90512">
        <ele>132.13845825195</ele>
        <time>2015-09-01T15:22:05.000Z</time>
      </trkpt>
      <trkpt lat="47.97898" lon="1.90505">
        <ele>133.15835571289</ele>
        <time>2015-09-01T15:22:08.000Z</time>
      </trkpt>
      <trkpt lat="47.97882" lon="1.90499">
        <ele>134.14082336426</ele>
        <time>2015-09-01T15:22:11.000Z</time>
      </trkpt>
      <trkpt lat="47.97868" lon="1.90495">
        <ele>133.53308105469</ele>
        <time>2015-09-01T15:22:13.000Z</time>
      </trkpt>
      <trkpt lat="47.97847" lon="1.90485">
        <ele>135.42614746094</ele>
        <time>2015-09-01T15:22:16.000Z</time>
      </trkpt>
      <trkpt lat="47.97828" lon="1.90478">
        <ele>136.5294342041</ele>
        <time>2015-09-01T15:22:19.000Z</time>
      </trkpt>
      <trkpt lat="47.97814" lon="1.90473">
        <ele>136.12712097168</ele>
        <time>2015-09-01T15:22:21.000Z</time>
      </trkpt>
      <trkpt lat="47.97797" lon="1.90468">
        <ele>136.08387756348</ele>
        <time>2015-09-01T15:22:24.000Z</time>
      </trkpt>
      <trkpt lat="47.97788" lon="1.90467">
        <ele>137.45301818848</ele>
        <time>2015-09-01T15:22:26.000Z</time>
      </trkpt>
      <trkpt lat="47.97774" lon="1.90462">
        <ele>136.03001403809</ele>
        <time>2015-09-01T15:22:29.000Z</time>
      </trkpt>
      <trkpt lat="47.97757" lon="1.90459">
        <ele>138.27310180664</ele>
        <time>2015-09-01T15:22:32.000Z</time>
      </trkpt>
      <trkpt lat="47.97745" lon="1.90453">
        <ele>139.65089416504</ele>
        <time>2015-09-01T15:22:35.000Z</time>
      </trkpt>
      <trkpt lat="47.97728" lon="1.90448">
        <ele>141.71838378906</ele>
        <time>2015-09-01T15:22:38.000Z</time>
      </trkpt>
      <trkpt lat="47.97714" lon="1.90446">
        <ele>145.51866149902</ele>
        <time>2015-09-01T15:22:40.000Z</time>
      </trkpt>
      <trkpt lat="47.97699" lon="1.90442">
        <ele>151.67413330078</ele>
        <time>2015-09-01T15:22:43.000Z</time>
      </trkpt>
      <trkpt lat="47.97691" lon="1.90438">
        <ele>151.10636901855</ele>
        <time>2015-09-01T15:22:45.000Z</time>
      </trkpt>
      <trkpt lat="47.97673" lon="1.9043">
        <ele>146.62268066406</ele>
        <time>2015-09-01T15:22:48.000Z</time>
      </trkpt>
      <trkpt lat="47.97653" lon="1.90422">
        <ele>143.07965087891</ele>
        <time>2015-09-01T15:22:51.000Z</time>
      </trkpt>
      <trkpt lat="47.97643" lon="1.90417">
        <ele>141.48313903809</ele>
        <time>2015-09-01T15:22:53.000Z</time>
      </trkpt>
      <trkpt lat="47.97622" lon="1.90412">
        <ele>139.9719543457</ele>
        <time>2015-09-01T15:22:56.000Z</time>
      </trkpt>
      <trkpt lat="47.97602" lon="1.90411">
        <ele>139.80683898926</ele>
        <time>2015-09-01T15:22:59.000Z</time>
      </trkpt>
      <trkpt lat="47.97593" lon="1.9041">
        <ele>138.08445739746</ele>
        <time>2015-09-01T15:23:01.000Z</time>
      </trkpt>
      <trkpt lat="47.97584" lon="1.90408">
        <ele>138.42810058594</ele>
        <time>2015-09-01T15:23:03.000Z</time>
      </trkpt>
      <trkpt lat="47.97574" lon="1.90403">
        <ele>138.45687866211</ele>
        <time>2015-09-01T15:23:06.000Z</time>
      </trkpt>
      <trkpt lat="47.97566" lon="1.90401">
        <ele>136.19897460938</ele>
        <time>2015-09-01T15:23:09.000Z</time>
      </trkpt>
      <trkpt lat="47.97562" lon="1.90399">
        <ele>136.60014343262</ele>
        <time>2015-09-01T15:23:11.000Z</time>
      </trkpt>
      <trkpt lat="47.97556" lon="1.90396">
        <ele>133.82289123535</ele>
        <time>2015-09-01T15:23:14.000Z</time>
      </trkpt>
      <trkpt lat="47.97552" lon="1.90394">
        <ele>131.57035827637</ele>
        <time>2015-09-01T15:23:16.000Z</time>
      </trkpt>
      <trkpt lat="47.97547" lon="1.9039">
        <ele>130.18069458008</ele>
        <time>2015-09-01T15:23:19.000Z</time>
      </trkpt>
      <trkpt lat="47.97544" lon="1.90388">
        <ele>129.55615234375</ele>
        <time>2015-09-01T15:23:21.000Z</time>
      </trkpt>
      <trkpt lat="47.9754" lon="1.90383">
        <ele>128.1929473877</ele>
        <time>2015-09-01T15:23:24.000Z</time>
      </trkpt>
      <trkpt lat="47.97536" lon="1.90379">
        <ele>127.15502929688</ele>
        <time>2015-09-01T15:23:26.000Z</time>
      </trkpt>
      <trkpt lat="47.97529" lon="1.90373">
        <ele>126.53179931641</ele>
        <time>2015-09-01T15:23:29.000Z</time>
      </trkpt>
      <trkpt lat="47.97522" lon="1.90368">
        <ele>126.67594909668</ele>
        <time>2015-09-01T15:23:32.000Z</time>
      </trkpt>
      <trkpt lat="47.97518" lon="1.90363">
        <ele>127.05491638184</ele>
        <time>2015-09-01T15:23:35.000Z</time>
      </trkpt>
      <trkpt lat="47.97515" lon="1.90361">
        <ele>127.05487823486</ele>
        <time>2015-09-01T15:23:37.000Z</time>
      </trkpt>
      <trkpt lat="47.9751" lon="1.90359">
        <ele>126.20571899414</ele>
        <time>2015-09-01T15:23:40.000Z</time>
      </trkpt>
      <trkpt lat="47.97507" lon="1.90355">
        <ele>126.35533905029</ele>
        <time>2015-09-01T15:23:43.000Z</time>
      </trkpt>
      <trkpt lat="47.97504" lon="1.90352">
        <ele>125.27034759521</ele>
        <time>2015-09-01T15:23:45.000Z</time>
      </trkpt>
      <trkpt lat="47.97502" lon="1.90348">
        <ele>124.16815948486</ele>
        <time>2015-09-01T15:23:47.000Z</time>
      </trkpt>
      <trkpt lat="47.97496" lon="1.90342">
        <ele>122.61275482178</ele>
        <time>2015-09-01T15:23:50.000Z</time>
      </trkpt>
      <trkpt lat="47.97489" lon="1.90338">
        <ele>124.03133392334</ele>
        <time>2015-09-01T15:23:52.000Z</time>
      </trkpt>
      <trkpt lat="47.97479" lon="1.90329">
        <ele>124.64666748047</ele>
        <time>2015-09-01T15:23:55.000Z</time>
      </trkpt>
      <trkpt lat="47.97468" lon="1.9032">
        <ele>123.05532073975</ele>
        <time>2015-09-01T15:23:58.000Z</time>
      </trkpt>
      <trkpt lat="47.97461" lon="1.90315">
        <ele>123.634765625</ele>
        <time>2015-09-01T15:24:00.000Z</time>
      </trkpt>
      <trkpt lat="47.97456" lon="1.90311">
        <ele>124.62844848633</ele>
        <time>2015-09-01T15:24:02.000Z</time>
      </trkpt>
      <trkpt lat="47.9745" lon="1.90305">
        <ele>124.56133270264</ele>
        <time>2015-09-01T15:24:04.000Z</time>
      </trkpt>
      <trkpt lat="47.9744" lon="1.90297">
        <ele>123.13339233398</ele>
        <time>2015-09-01T15:24:07.000Z</time>
      </trkpt>
      <trkpt lat="47.97434" lon="1.9029">
        <ele>122.14197540283</ele>
        <time>2015-09-01T15:24:09.000Z</time>
      </trkpt>
      <trkpt lat="47.97429" lon="1.90283">
        <ele>121.13958740234</ele>
        <time>2015-09-01T15:24:11.000Z</time>
      </trkpt>
      <trkpt lat="47.9742" lon="1.90272">
        <ele>120.6969909668</ele>
        <time>2015-09-01T15:24:14.000Z</time>
      </trkpt>
      <trkpt lat="47.97415" lon="1.90265">
        <ele>120.54040527344</ele>
        <time>2015-09-01T15:24:16.000Z</time>
      </trkpt>
      <trkpt lat="47.97409" lon="1.90255">
        <ele>117.67657470703</ele>
        <time>2015-09-01T15:24:19.000Z</time>
      </trkpt>
      <trkpt lat="47.97406" lon="1.9025">
        <ele>119.23662567139</ele>
        <time>2015-09-01T15:24:21.000Z</time>
      </trkpt>
      <trkpt lat="47.97399" lon="1.90243">
        <ele>122.14823150635</ele>
        <time>2015-09-01T15:24:24.000Z</time>
      </trkpt>
      <trkpt lat="47.97394" lon="1.90238">
        <ele>122.07920837402</ele>
        <time>2015-09-01T15:24:26.000Z</time>
      </trkpt>
      <trkpt lat="47.97387" lon="1.90229">
        <ele>121.05335235596</ele>
        <time>2015-09-01T15:24:29.000Z</time>
      </trkpt>
      <trkpt lat="47.97377" lon="1.90217">
        <ele>121.16190338135</ele>
        <time>2015-09-01T15:24:32.000Z</time>
      </trkpt>
      <trkpt lat="47.97369" lon="1.90211">
        <ele>120.68300628662</ele>
        <time>2015-09-01T15:24:34.000Z</time>
      </trkpt>
      <trkpt lat="47.9736" lon="1.90205">
        <ele>120.72978973389</ele>
        <time>2015-09-01T15:24:36.000Z</time>
      </trkpt>
      <trkpt lat="47.97353" lon="1.90199">
        <ele>122.00533294678</ele>
        <time>2015-09-01T15:24:38.000Z</time>
      </trkpt>
      <trkpt lat="47.97342" lon="1.90186">
        <ele>122.09262084961</ele>
        <time>2015-09-01T15:24:41.000Z</time>
      </trkpt>
      <trkpt lat="47.97334" lon="1.90179">
        <ele>121.1778717041</ele>
        <time>2015-09-01T15:24:43.000Z</time>
      </trkpt>
      <trkpt lat="47.97323" lon="1.9017">
        <ele>123.11426544189</ele>
        <time>2015-09-01T15:24:45.000Z</time>
      </trkpt>
      <trkpt lat="47.97311" lon="1.90158">
        <ele>126.09925079346</ele>
        <time>2015-09-01T15:24:48.000Z</time>
      </trkpt>
      <trkpt lat="47.97305" lon="1.90154">
        <ele>126.08770751953</ele>
        <time>2015-09-01T15:24:50.000Z</time>
      </trkpt>
      <trkpt lat="47.97298" lon="1.90147">
        <ele>127.09321594238</ele>
        <time>2015-09-01T15:24:53.000Z</time>
      </trkpt>
      <trkpt lat="47.97289" lon="1.90137">
        <ele>127.60071563721</ele>
        <time>2015-09-01T15:24:56.000Z</time>
      </trkpt>
      <trkpt lat="47.97279" lon="1.90126">
        <ele>128.09800720215</ele>
        <time>2015-09-01T15:24:59.000Z</time>
      </trkpt>
      <trkpt lat="47.9727" lon="1.90116">
        <ele>129.85734558105</ele>
        <time>2015-09-01T15:25:02.000Z</time>
      </trkpt>
      <trkpt lat="47.97265" lon="1.90108">
        <ele>132.1661529541</ele>
        <time>2015-09-01T15:25:05.000Z</time>
      </trkpt>
      <trkpt lat="47.97257" lon="1.90101">
        <ele>129.51078796387</ele>
        <time>2015-09-01T15:25:08.000Z</time>
      </trkpt>
      <trkpt lat="47.97245" lon="1.90093">
        <ele>129.01416015625</ele>
        <time>2015-09-01T15:25:11.000Z</time>
      </trkpt>
      <trkpt lat="47.97235" lon="1.90082">
        <ele>130.10511779785</ele>
        <time>2015-09-01T15:25:14.000Z</time>
      </trkpt>
      <trkpt lat="47.97229" lon="1.90075">
        <ele>129.17881774902</ele>
        <time>2015-09-01T15:25:16.000Z</time>
      </trkpt>
      <trkpt lat="47.97221" lon="1.90067">
        <ele>130.92938232422</ele>
        <time>2015-09-01T15:25:18.000Z</time>
      </trkpt>
      <trkpt lat="47.97207" lon="1.90055">
        <ele>129.17533874512</ele>
        <time>2015-09-01T15:25:21.000Z</time>
      </trkpt>
      <trkpt lat="47.972" lon="1.90051">
        <ele>129.42655944824</ele>
        <time>2015-09-01T15:25:26.000Z</time>
      </trkpt>
      <trkpt lat="47.97199" lon="1.90051">
        <ele>129.40115356445</ele>
        <time>2015-09-01T15:25:28.000Z</time>
      </trkpt>
      <trkpt lat="47.97197" lon="1.90051">
        <ele>128.36167907715</ele>
        <time>2015-09-01T15:25:30.000Z</time>
      </trkpt>
      <trkpt lat="47.97194" lon="1.9005">
        <ele>130.79487609863</ele>
        <time>2015-09-01T15:25:32.000Z</time>
      </trkpt>
      <trkpt lat="47.9719" lon="1.90048">
        <ele>132.16474914551</ele>
        <time>2015-09-01T15:25:34.000Z</time>
      </trkpt>
      <trkpt lat="47.97185" lon="1.90041">
        <ele>136.06100463867</ele>
        <time>2015-09-01T15:25:37.000Z</time>
      </trkpt>
      <trkpt lat="47.97179" lon="1.90033">
        <ele>136.63558959961</ele>
        <time>2015-09-01T15:25:40.000Z</time>
      </trkpt>
      <trkpt lat="47.97173" lon="1.90027">
        <ele>136.06350708008</ele>
        <time>2015-09-01T15:25:42.000Z</time>
      </trkpt>
      <trkpt lat="47.97163" lon="1.90017">
        <ele>134.91229248047</ele>
        <time>2015-09-01T15:25:45.000Z</time>
      </trkpt>
      <trkpt lat="47.97157" lon="1.90011">
        <ele>134.07632446289</ele>
        <time>2015-09-01T15:25:47.000Z</time>
      </trkpt>
      <trkpt lat="47.97143" lon="1.89997">
        <ele>135.14907836914</ele>
        <time>2015-09-01T15:25:50.000Z</time>
      </trkpt>
      <trkpt lat="47.97136" lon="1.89991">
        <ele>134.14514160156</ele>
        <time>2015-09-01T15:25:52.000Z</time>
      </trkpt>
      <trkpt lat="47.97128" lon="1.89979">
        <ele>132.50975036621</ele>
        <time>2015-09-01T15:25:55.000Z</time>
      </trkpt>
      <trkpt lat="47.9712" lon="1.89973">
        <ele>132.61837768555</ele>
        <time>2015-09-01T15:25:57.000Z</time>
      </trkpt>
      <trkpt lat="47.97109" lon="1.89962">
        <ele>132.07595825195</ele>
        <time>2015-09-01T15:26:00.000Z</time>
      </trkpt>
      <trkpt lat="47.97102" lon="1.89953">
        <ele>130.5548248291</ele>
        <time>2015-09-01T15:26:02.000Z</time>
      </trkpt>
      <trkpt lat="47.97094" lon="1.89946">
        <ele>129.64295959473</ele>
        <time>2015-09-01T15:26:04.000Z</time>
      </trkpt>
      <trkpt lat="47.97086" lon="1.89941">
        <ele>129.48025512695</ele>
        <time>2015-09-01T15:26:06.000Z</time>
      </trkpt>
      <trkpt lat="47.97077" lon="1.89932">
        <ele>126.94817352295</ele>
        <time>2015-09-01T15:26:09.000Z</time>
      </trkpt>
      <trkpt lat="47.97066" lon="1.89923">
        <ele>127.63832855225</ele>
        <time>2015-09-01T15:26:12.000Z</time>
      </trkpt>
      <trkpt lat="47.97058" lon="1.89916">
        <ele>128.08508300781</ele>
        <time>2015-09-01T15:26:15.000Z</time>
      </trkpt>
      <trkpt lat="47.97052" lon="1.89909">
        <ele>128.55923461914</ele>
        <time>2015-09-01T15:26:18.000Z</time>
      </trkpt>
      <trkpt lat="47.97047" lon="1.89905">
        <ele>129.041015625</ele>
        <time>2015-09-01T15:26:20.000Z</time>
      </trkpt>
      <trkpt lat="47.97038" lon="1.89897">
        <ele>129.5242767334</ele>
        <time>2015-09-01T15:26:23.000Z</time>
      </trkpt>
      <trkpt lat="47.97028" lon="1.89893">
        <ele>128.17237854004</ele>
        <time>2015-09-01T15:26:26.000Z</time>
      </trkpt>
      <trkpt lat="47.97018" lon="1.89882">
        <ele>129.5538482666</ele>
        <time>2015-09-01T15:26:29.000Z</time>
      </trkpt>
      <trkpt lat="47.97011" lon="1.89874">
        <ele>128.12915039062</ele>
        <time>2015-09-01T15:26:31.000Z</time>
      </trkpt>
      <trkpt lat="47.97004" lon="1.89868">
        <ele>128.08111572266</ele>
        <time>2015-09-01T15:26:33.000Z</time>
      </trkpt>
      <trkpt lat="47.96996" lon="1.89861">
        <ele>128.10040283203</ele>
        <time>2015-09-01T15:26:35.000Z</time>
      </trkpt>
      <trkpt lat="47.96988" lon="1.89851">
        <ele>128.64724731445</ele>
        <time>2015-09-01T15:26:37.000Z</time>
      </trkpt>
      <trkpt lat="47.96978" lon="1.89841">
        <ele>129.11302185059</ele>
        <time>2015-09-01T15:26:40.000Z</time>
      </trkpt>
      <trkpt lat="47.96964" lon="1.89821">
        <ele>128.17158508301</ele>
        <time>2015-09-01T15:26:43.000Z</time>
      </trkpt>
      <trkpt lat="47.96957" lon="1.89816">
        <ele>128.06329345703</ele>
        <time>2015-09-01T15:26:45.000Z</time>
      </trkpt>
      <trkpt lat="47.96952" lon="1.89812">
        <ele>127.07391357422</ele>
        <time>2015-09-01T15:26:48.000Z</time>
      </trkpt>
      <trkpt lat="47.96949" lon="1.89805">
        <ele>125.61042022705</ele>
        <time>2015-09-01T15:26:51.000Z</time>
      </trkpt>
      <trkpt lat="47.96946" lon="1.89798">
        <ele>123.14270782471</ele>
        <time>2015-09-01T15:26:54.000Z</time>
      </trkpt>
      <trkpt lat="47.96944" lon="1.89791">
        <ele>123.31658935547</ele>
        <time>2015-09-01T15:26:57.000Z</time>
      </trkpt>
      <trkpt lat="47.96943" lon="1.89784">
        <ele>123.36519622803</ele>
        <time>2015-09-01T15:27:00.000Z</time>
      </trkpt>
      <trkpt lat="47.96942" lon="1.89777">
        <ele>122.19527435303</ele>
        <time>2015-09-01T15:27:03.000Z</time>
      </trkpt>
      <trkpt lat="47.96942" lon="1.89772">
        <ele>122.96138000488</ele>
        <time>2015-09-01T15:27:05.000Z</time>
      </trkpt>
      <trkpt lat="47.96943" lon="1.89763">
        <ele>124.00820922852</ele>
        <time>2015-09-01T15:27:08.000Z</time>
      </trkpt>
      <trkpt lat="47.96943" lon="1.89757">
        <ele>124.54642486572</ele>
        <time>2015-09-01T15:27:10.000Z</time>
      </trkpt>
      <trkpt lat="47.96943" lon="1.89748">
        <ele>124.83977508545</ele>
        <time>2015-09-01T15:27:13.000Z</time>
      </trkpt>
      <trkpt lat="47.96942" lon="1.89741">
        <ele>124.96049499512</ele>
        <time>2015-09-01T15:27:15.000Z</time>
      </trkpt>
      <trkpt lat="47.96941" lon="1.89731">
        <ele>124.35845947266</ele>
        <time>2015-09-01T15:27:18.000Z</time>
      </trkpt>
      <trkpt lat="47.96941" lon="1.89721">
        <ele>124.016456604</ele>
        <time>2015-09-01T15:27:21.000Z</time>
      </trkpt>
      <trkpt lat="47.96941" lon="1.89715">
        <ele>124.77588653564</ele>
        <time>2015-09-01T15:27:23.000Z</time>
      </trkpt>
      <trkpt lat="47.96941" lon="1.89709">
        <ele>125.5217666626</ele>
        <time>2015-09-01T15:27:25.000Z</time>
      </trkpt>
      <trkpt lat="47.96942" lon="1.897">
        <ele>126.13592529297</ele>
        <time>2015-09-01T15:27:28.000Z</time>
      </trkpt>
      <trkpt lat="47.96943" lon="1.89691">
        <ele>127.13314819336</ele>
        <time>2015-09-01T15:27:31.000Z</time>
      </trkpt>
      <trkpt lat="47.96943" lon="1.89685">
        <ele>126.72904205322</ele>
        <time>2015-09-01T15:27:33.000Z</time>
      </trkpt>
      <trkpt lat="47.96941" lon="1.89675">
        <ele>127.32801055908</ele>
        <time>2015-09-01T15:27:36.000Z</time>
      </trkpt>
      <trkpt lat="47.96941" lon="1.89669">
        <ele>129.87373352051</ele>
        <time>2015-09-01T15:27:39.000Z</time>
      </trkpt>
      <trkpt lat="47.96941" lon="1.89665">
        <ele>129.63793945312</ele>
        <time>2015-09-01T15:27:41.000Z</time>
      </trkpt>
      <trkpt lat="47.96941" lon="1.89656">
        <ele>131.00105285645</ele>
        <time>2015-09-01T15:27:44.000Z</time>
      </trkpt>
      <trkpt lat="47.96942" lon="1.89648">
        <ele>131.98208618164</ele>
        <time>2015-09-01T15:27:46.000Z</time>
      </trkpt>
      <trkpt lat="47.96943" lon="1.89631">
        <ele>130.93609619141</ele>
        <time>2015-09-01T15:27:49.000Z</time>
      </trkpt>
      <trkpt lat="47.96943" lon="1.89618">
        <ele>130.65310668945</ele>
        <time>2015-09-01T15:27:51.000Z</time>
      </trkpt>
      <trkpt lat="47.96944" lon="1.89606">
        <ele>130.73107910156</ele>
        <time>2015-09-01T15:27:53.000Z</time>
      </trkpt>
      <trkpt lat="47.96944" lon="1.89594">
        <ele>130.5669708252</ele>
        <time>2015-09-01T15:27:55.000Z</time>
      </trkpt>
      <trkpt lat="47.96944" lon="1.89581">
        <ele>130.15435791016</ele>
        <time>2015-09-01T15:27:57.000Z</time>
      </trkpt>
      <trkpt lat="47.96945" lon="1.89568">
        <ele>129.48640441895</ele>
        <time>2015-09-01T15:27:59.000Z</time>
      </trkpt>
      <trkpt lat="47.96945" lon="1.89554">
        <ele>129.14599609375</ele>
        <time>2015-09-01T15:28:01.000Z</time>
      </trkpt>
      <trkpt lat="47.96945" lon="1.89534">
        <ele>128.00979614258</ele>
        <time>2015-09-01T15:28:04.000Z</time>
      </trkpt>
      <trkpt lat="47.96945" lon="1.89511">
        <ele>126.90545654297</ele>
        <time>2015-09-01T15:28:07.000Z</time>
      </trkpt>
      <trkpt lat="47.96946" lon="1.89489">
        <ele>126.17990112305</ele>
        <time>2015-09-01T15:28:10.000Z</time>
      </trkpt>
      <trkpt lat="47.96946" lon="1.89475">
        <ele>125.7144241333</ele>
        <time>2015-09-01T15:28:12.000Z</time>
      </trkpt>
      <trkpt lat="47.96946" lon="1.89459">
        <ele>124.66553497314</ele>
        <time>2015-09-01T15:28:14.000Z</time>
      </trkpt>
      <trkpt lat="47.96946" lon="1.89436">
        <ele>124.04095458984</ele>
        <time>2015-09-01T15:28:17.000Z</time>
      </trkpt>
      <trkpt lat="47.96946" lon="1.89419">
        <ele>124.18947601318</ele>
        <time>2015-09-01T15:28:19.000Z</time>
      </trkpt>
      <trkpt lat="47.96946" lon="1.89401">
        <ele>124.21527099609</ele>
        <time>2015-09-01T15:28:21.000Z</time>
      </trkpt>
      <trkpt lat="47.96946" lon="1.89384">
        <ele>123.98435974121</ele>
        <time>2015-09-01T15:28:23.000Z</time>
      </trkpt>
      <trkpt lat="47.96945" lon="1.89359">
        <ele>122.93455505371</ele>
        <time>2015-09-01T15:28:26.000Z</time>
      </trkpt>
      <trkpt lat="47.96946" lon="1.89336">
        <ele>122.07765197754</ele>
        <time>2015-09-01T15:28:29.000Z</time>
      </trkpt>
      <trkpt lat="47.96947" lon="1.89323">
        <ele>121.37280273438</ele>
        <time>2015-09-01T15:28:31.000Z</time>
      </trkpt>
      <trkpt lat="47.96947" lon="1.89304">
        <ele>120.60279846191</ele>
        <time>2015-09-01T15:28:34.000Z</time>
      </trkpt>
      <trkpt lat="47.96946" lon="1.89288">
        <ele>120.74793243408</ele>
        <time>2015-09-01T15:28:36.000Z</time>
      </trkpt>
      <trkpt lat="47.96946" lon="1.89262">
        <ele>119.97467803955</ele>
        <time>2015-09-01T15:28:39.000Z</time>
      </trkpt>
      <trkpt lat="47.96946" lon="1.89238">
        <ele>120.38370513916</ele>
        <time>2015-09-01T15:28:42.000Z</time>
      </trkpt>
      <trkpt lat="47.96946" lon="1.89224">
        <ele>120.91426849365</ele>
        <time>2015-09-01T15:28:44.000Z</time>
      </trkpt>
      <trkpt lat="47.96947" lon="1.89212">
        <ele>122.18830871582</ele>
        <time>2015-09-01T15:28:46.000Z</time>
      </trkpt>
      <trkpt lat="47.96948" lon="1.89196">
        <ele>121.22689056396</ele>
        <time>2015-09-01T15:28:49.000Z</time>
      </trkpt>
      <trkpt lat="47.96948" lon="1.8918">
        <ele>120.97024536133</ele>
        <time>2015-09-01T15:28:52.000Z</time>
      </trkpt>
      <trkpt lat="47.96948" lon="1.89165">
        <ele>121.8310546875</ele>
        <time>2015-09-01T15:28:55.000Z</time>
      </trkpt>
      <trkpt lat="47.96948" lon="1.89152">
        <ele>122.5982208252</ele>
        <time>2015-09-01T15:28:58.000Z</time>
      </trkpt>
      <trkpt lat="47.96948" lon="1.89144">
        <ele>123.03579711914</ele>
        <time>2015-09-01T15:29:00.000Z</time>
      </trkpt>
      <trkpt lat="47.96948" lon="1.89135">
        <ele>123.53771972656</ele>
        <time>2015-09-01T15:29:02.000Z</time>
      </trkpt>
      <trkpt lat="47.96948" lon="1.89121">
        <ele>123.51038360596</ele>
        <time>2015-09-01T15:29:05.000Z</time>
      </trkpt>
      <trkpt lat="47.96948" lon="1.8911">
        <ele>122.43598937988</ele>
        <time>2015-09-01T15:29:07.000Z</time>
      </trkpt>
      <trkpt lat="47.96949" lon="1.891">
        <ele>122.41114044189</ele>
        <time>2015-09-01T15:29:09.000Z</time>
      </trkpt>
      <trkpt lat="47.96949" lon="1.89083">
        <ele>122.97260284424</ele>
        <time>2015-09-01T15:29:12.000Z</time>
      </trkpt>
      <trkpt lat="47.96948" lon="1.89065">
        <ele>122.63482666016</ele>
        <time>2015-09-01T15:29:15.000Z</time>
      </trkpt>
      <trkpt lat="47.96948" lon="1.89047">
        <ele>122.05982208252</ele>
        <time>2015-09-01T15:29:18.000Z</time>
      </trkpt>
      <trkpt lat="47.96948" lon="1.89029">
        <ele>121.26205444336</ele>
        <time>2015-09-01T15:29:21.000Z</time>
      </trkpt>
      <trkpt lat="47.96948" lon="1.89016">
        <ele>121.02331542969</ele>
        <time>2015-09-01T15:29:23.000Z</time>
      </trkpt>
      <trkpt lat="47.96949" lon="1.88997">
        <ele>118.48606872559</ele>
        <time>2015-09-01T15:29:26.000Z</time>
      </trkpt>
      <trkpt lat="47.96949" lon="1.88986">
        <ele>117.48201751709</ele>
        <time>2015-09-01T15:29:28.000Z</time>
      </trkpt>
      <trkpt lat="47.96949" lon="1.88973">
        <ele>116.57939910889</ele>
        <time>2015-09-01T15:29:31.000Z</time>
      </trkpt>
      <trkpt lat="47.96949" lon="1.88964">
        <ele>119.88069915771</ele>
        <time>2015-09-01T15:29:34.000Z</time>
      </trkpt>
      <trkpt lat="47.9695" lon="1.88956">
        <ele>124.63051605225</ele>
        <time>2015-09-01T15:29:37.000Z</time>
      </trkpt>
      <trkpt lat="47.96948" lon="1.88949">
        <ele>127.15430450439</ele>
        <time>2015-09-01T15:29:40.000Z</time>
      </trkpt>
      <trkpt lat="47.96942" lon="1.88943">
        <ele>127.73919677734</ele>
        <time>2015-09-01T15:29:43.000Z</time>
      </trkpt>
      <trkpt lat="47.96933" lon="1.88941">
        <ele>129.18692016602</ele>
        <time>2015-09-01T15:29:45.000Z</time>
      </trkpt>
      <trkpt lat="47.96926" lon="1.8894">
        <ele>131.48400878906</ele>
        <time>2015-09-01T15:29:47.000Z</time>
      </trkpt>
      <trkpt lat="47.96916" lon="1.88939">
        <ele>130.60595703125</ele>
        <time>2015-09-01T15:29:50.000Z</time>
      </trkpt>
      <trkpt lat="47.96902" lon="1.88931">
        <ele>130.64486694336</ele>
        <time>2015-09-01T15:29:53.000Z</time>
      </trkpt>
      <trkpt lat="47.96891" lon="1.88927">
        <ele>131.42637634277</ele>
        <time>2015-09-01T15:29:55.000Z</time>
      </trkpt>
      <trkpt lat="47.96875" lon="1.88927">
        <ele>132.65640258789</ele>
        <time>2015-09-01T15:29:58.000Z</time>
      </trkpt>
      <trkpt lat="47.96865" lon="1.88929">
        <ele>134.47941589355</ele>
        <time>2015-09-01T15:30:01.000Z</time>
      </trkpt>
      <trkpt lat="47.96855" lon="1.88928">
        <ele>135.59294128418</ele>
        <time>2015-09-01T15:30:04.000Z</time>
      </trkpt>
      <trkpt lat="47.96848" lon="1.88926">
        <ele>133.55541992188</ele>
        <time>2015-09-01T15:30:06.000Z</time>
      </trkpt>
      <trkpt lat="47.96842" lon="1.88924">
        <ele>133.0393371582</ele>
        <time>2015-09-01T15:30:08.000Z</time>
      </trkpt>
      <trkpt lat="47.96835" lon="1.88925">
        <ele>137.18115234375</ele>
        <time>2015-09-01T15:30:11.000Z</time>
      </trkpt>
      <trkpt lat="47.96833" lon="1.88927">
        <ele>135.43423461914</ele>
        <time>2015-09-01T15:30:13.000Z</time>
      </trkpt>
      <trkpt lat="47.9683" lon="1.88929">
        <ele>134.99652099609</ele>
        <time>2015-09-01T15:30:16.000Z</time>
      </trkpt>
      <trkpt lat="47.96828" lon="1.8893">
        <ele>135.01292419434</ele>
        <time>2015-09-01T15:30:18.000Z</time>
      </trkpt>
      <trkpt lat="47.96827" lon="1.88931">
        <ele>134.24528503418</ele>
        <time>2015-09-01T15:30:25.000Z</time>
      </trkpt>
      <trkpt lat="47.96827" lon="1.88931">
        <ele>126.0559463501</ele>
        <time>2015-09-01T15:30:45.000Z</time>
      </trkpt>
      <trkpt lat="47.96825" lon="1.88932">
        <ele>134.35601806641</ele>
        <time>2015-09-01T15:30:52.000Z</time>
      </trkpt>
      <trkpt lat="47.96823" lon="1.88932">
        <ele>135.29669189453</ele>
        <time>2015-09-01T15:30:54.000Z</time>
      </trkpt>
      <trkpt lat="47.96817" lon="1.88934">
        <ele>134.55572509766</ele>
        <time>2015-09-01T15:30:57.000Z</time>
      </trkpt>
      <trkpt lat="47.96812" lon="1.88935">
        <ele>133.12112426758</ele>
        <time>2015-09-01T15:30:59.000Z</time>
      </trkpt>
      <trkpt lat="47.96804" lon="1.88937">
        <ele>130.93070983887</ele>
        <time>2015-09-01T15:31:02.000Z</time>
      </trkpt>
      <trkpt lat="47.96796" lon="1.88937">
        <ele>130.04002380371</ele>
        <time>2015-09-01T15:31:04.000Z</time>
      </trkpt>
      <trkpt lat="47.96792" lon="1.88936">
        <ele>128.12309265137</ele>
        <time>2015-09-01T15:31:07.000Z</time>
      </trkpt>
      <trkpt lat="47.9679" lon="1.88935">
        <ele>126.83925628662</ele>
        <time>2015-09-01T15:31:12.000Z</time>
      </trkpt>
      <trkpt lat="47.96788" lon="1.88933">
        <ele>126.14408874512</ele>
        <time>2015-09-01T15:31:15.000Z</time>
      </trkpt>
      <trkpt lat="47.9679" lon="1.88932">
        <ele>124.55254364014</ele>
        <time>2015-09-01T15:31:18.000Z</time>
      </trkpt>
      <trkpt lat="47.96791" lon="1.88936">
        <ele>123.39391326904</ele>
        <time>2015-09-01T15:31:20.000Z</time>
      </trkpt>
      <trkpt lat="47.96793" lon="1.88944">
        <ele>121.39914703369</ele>
        <time>2015-09-01T15:31:23.000Z</time>
      </trkpt>
      <trkpt lat="47.96798" lon="1.88969">
        <ele>116.56219482422</ele>
        <time>2015-09-01T15:31:26.000Z</time>
      </trkpt>
      <trkpt lat="47.968" lon="1.88973">
        <ele>116.66497039795</ele>
        <time>2015-09-01T15:31:29.000Z</time>
      </trkpt>
      <trkpt lat="47.968" lon="1.88973">
        <ele>127.07914733887</ele>
        <time>2015-09-01T15:31:49.000Z</time>
      </trkpt>
      <trkpt lat="47.968" lon="1.88974">
        <ele>119.19394683838</ele>
        <time>2015-09-01T15:32:04.000Z</time>
      </trkpt>
      <trkpt lat="47.96796" lon="1.88978">
        <ele>118.19877624512</ele>
        <time>2015-09-01T15:32:06.000Z</time>
      </trkpt>
      <trkpt lat="47.96782" lon="1.88996">
        <ele>115.97618103027</ele>
        <time>2015-09-01T15:32:10.000Z</time>
      </trkpt>
      <trkpt lat="47.96782" lon="1.89">
        <ele>116.63417053223</ele>
        <time>2015-09-01T15:32:12.000Z</time>
      </trkpt>
      <trkpt lat="47.96779" lon="1.89012">
        <ele>118.30446624756</ele>
        <time>2015-09-01T15:32:15.000Z</time>
      </trkpt>
      <trkpt lat="47.96776" lon="1.89021">
        <ele>118.62631225586</ele>
        <time>2015-09-01T15:32:18.000Z</time>
      </trkpt>
      <trkpt lat="47.96775" lon="1.89021">
        <ele>119.51593017578</ele>
        <time>2015-09-01T15:32:23.000Z</time>
      </trkpt>
      <trkpt lat="47.96773" lon="1.89022">
        <ele>122.33329772949</ele>
        <time>2015-09-01T15:32:26.000Z</time>
      </trkpt>
      <trkpt lat="47.96774" lon="1.89023">
        <ele>126.85655212402</ele>
        <time>2015-09-01T15:32:29.000Z</time>
      </trkpt>
      <trkpt lat="47.96774" lon="1.89024">
        <ele>128.40364074707</ele>
        <time>2015-09-01T15:32:36.000Z</time>
      </trkpt>
      <trkpt lat="47.96774" lon="1.89026">
        <ele>128.39688110352</ele>
        <time>2015-09-01T15:32:39.000Z</time>
      </trkpt>
      <trkpt lat="47.96774" lon="1.89026">
        <ele>128.75169372559</ele>
        <time>2015-09-01T15:32:59.000Z</time>
      </trkpt>
      <trkpt lat="47.96774" lon="1.89025">
        <ele>128.89205932617</ele>
        <time>2015-09-01T15:33:14.000Z</time>
      </trkpt>
      <trkpt lat="47.96772" lon="1.89024">
        <ele>129.50103759766</ele>
        <time>2015-09-01T15:33:21.000Z</time>
      </trkpt>
      <trkpt lat="47.96769" lon="1.89028">
        <ele>128.7463684082</ele>
        <time>2015-09-01T15:33:24.000Z</time>
      </trkpt>
      <trkpt lat="47.96766" lon="1.89033">
        <ele>128.42576599121</ele>
        <time>2015-09-01T15:33:27.000Z</time>
      </trkpt>
      <trkpt lat="47.96763" lon="1.89038">
        <ele>128.97637939453</ele>
        <time>2015-09-01T15:33:29.000Z</time>
      </trkpt>
      <trkpt lat="47.96761" lon="1.89042">
        <ele>130.52325439453</ele>
        <time>2015-09-01T15:33:32.000Z</time>
      </trkpt>
      <trkpt lat="47.96758" lon="1.89045">
        <ele>127.64678192139</ele>
        <time>2015-09-01T15:33:35.000Z</time>
      </trkpt>
      <trkpt lat="47.96759" lon="1.89047">
        <ele>127.00884246826</ele>
        <time>2015-09-01T15:33:38.000Z</time>
      </trkpt>
      <trkpt lat="47.9676" lon="1.89049">
        <ele>128.1025390625</ele>
        <time>2015-09-01T15:33:42.000Z</time>
      </trkpt>
      <trkpt lat="47.96759" lon="1.89051">
        <ele>126.3317565918</ele>
        <time>2015-09-01T15:33:45.000Z</time>
      </trkpt>
      <trkpt lat="47.96759" lon="1.89053">
        <ele>125.76282501221</ele>
        <time>2015-09-01T15:33:48.000Z</time>
      </trkpt>
      <trkpt lat="47.96759" lon="1.89055">
        <ele>125.13186645508</ele>
        <time>2015-09-01T15:33:51.000Z</time>
      </trkpt>
      <trkpt lat="47.96759" lon="1.8906">
        <ele>123.10116577148</ele>
        <time>2015-09-01T15:33:54.000Z</time>
      </trkpt>
      <trkpt lat="47.96759" lon="1.89063">
        <ele>121.71591186523</ele>
        <time>2015-09-01T15:33:56.000Z</time>
      </trkpt>
      <trkpt lat="47.9676" lon="1.89066">
        <ele>120.89408874512</ele>
        <time>2015-09-01T15:33:59.000Z</time>
      </trkpt>
      <trkpt lat="47.9676" lon="1.89066">
        <ele>129.40840148926</ele>
        <time>2015-09-01T15:34:19.000Z</time>
      </trkpt>
      <trkpt lat="47.96761" lon="1.89068">
        <ele>120.80883026123</ele>
        <time>2015-09-01T15:34:47.000Z</time>
      </trkpt>
      <trkpt lat="47.96761" lon="1.8907">
        <ele>121.86756896973</ele>
        <time>2015-09-01T15:35:03.000Z</time>
      </trkpt>
      <trkpt lat="47.96761" lon="1.89074">
        <ele>122.59518432617</ele>
        <time>2015-09-01T15:35:05.000Z</time>
      </trkpt>
      <trkpt lat="47.96758" lon="1.89084">
        <ele>122.08573913574</ele>
        <time>2015-09-01T15:35:08.000Z</time>
      </trkpt>
      <trkpt lat="47.96753" lon="1.89092">
        <ele>123.40493774414</ele>
        <time>2015-09-01T15:35:10.000Z</time>
      </trkpt>
      <trkpt lat="47.96745" lon="1.89101">
        <ele>127.98057556152</ele>
        <time>2015-09-01T15:35:13.000Z</time>
      </trkpt>
      <trkpt lat="47.96735" lon="1.8911">
        <ele>125.0817565918</ele>
        <time>2015-09-01T15:35:16.000Z</time>
      </trkpt>
      <trkpt lat="47.9673" lon="1.89115">
        <ele>126.48923492432</ele>
        <time>2015-09-01T15:35:18.000Z</time>
      </trkpt>
      <trkpt lat="47.96726" lon="1.89125">
        <ele>127.61813354492</ele>
        <time>2015-09-01T15:35:21.000Z</time>
      </trkpt>
      <trkpt lat="47.96723" lon="1.89132">
        <ele>129.3811340332</ele>
        <time>2015-09-01T15:35:23.000Z</time>
      </trkpt>
      <trkpt lat="47.9672" lon="1.89143">
        <ele>128.63510131836</ele>
        <time>2015-09-01T15:35:26.000Z</time>
      </trkpt>
      <trkpt lat="47.96717" lon="1.89151">
        <ele>125.55359649658</ele>
        <time>2015-09-01T15:35:28.000Z</time>
      </trkpt>
      <trkpt lat="47.96711" lon="1.89163">
        <ele>123.50963592529</ele>
        <time>2015-09-01T15:35:31.000Z</time>
      </trkpt>
      <trkpt lat="47.96701" lon="1.89172">
        <ele>123.02854156494</ele>
        <time>2015-09-01T15:35:34.000Z</time>
      </trkpt>
      <trkpt lat="47.96696" lon="1.89178">
        <ele>121.76336669922</ele>
        <time>2015-09-01T15:35:36.000Z</time>
      </trkpt>
      <trkpt lat="47.96693" lon="1.89182">
        <ele>123.32243347168</ele>
        <time>2015-09-01T15:35:38.000Z</time>
      </trkpt>
      <trkpt lat="47.9669" lon="1.89187">
        <ele>124.30068969727</ele>
        <time>2015-09-01T15:35:41.000Z</time>
      </trkpt>
      <trkpt lat="47.96686" lon="1.89193">
        <ele>125.78778839111</ele>
        <time>2015-09-01T15:35:44.000Z</time>
      </trkpt>
      <trkpt lat="47.96681" lon="1.89205">
        <ele>127.70721435547</ele>
        <time>2015-09-01T15:35:47.000Z</time>
      </trkpt>
      <trkpt lat="47.96679" lon="1.8922">
        <ele>128.41233825684</ele>
        <time>2015-09-01T15:35:49.000Z</time>
      </trkpt>
      <trkpt lat="47.96677" lon="1.8924">
        <ele>127.76287841797</ele>
        <time>2015-09-01T15:35:52.000Z</time>
      </trkpt>
      <trkpt lat="47.96675" lon="1.89249">
        <ele>127.46650695801</ele>
        <time>2015-09-01T15:35:54.000Z</time>
      </trkpt>
      <trkpt lat="47.96669" lon="1.89253">
        <ele>126.27100372314</ele>
        <time>2015-09-01T15:35:57.000Z</time>
      </trkpt>
      <trkpt lat="47.96665" lon="1.89255">
        <ele>126.01126098633</ele>
        <time>2015-09-01T15:35:59.000Z</time>
      </trkpt>
      <trkpt lat="47.96664" lon="1.89257">
        <ele>125.66268920898</ele>
        <time>2015-09-01T15:36:03.000Z</time>
      </trkpt>
      <trkpt lat="47.96665" lon="1.89256">
        <ele>123.5319442749</ele>
        <time>2015-09-01T15:36:14.000Z</time>
      </trkpt>
      <trkpt lat="47.96666" lon="1.89256">
        <ele>121.72359466553</ele>
        <time>2015-09-01T15:36:20.000Z</time>
      </trkpt>
      <trkpt lat="47.96664" lon="1.89257">
        <ele>122.72353363037</ele>
        <time>2015-09-01T15:36:27.000Z</time>
      </trkpt>
      <trkpt lat="47.96661" lon="1.89257">
        <ele>122.08744812012</ele>
        <time>2015-09-01T15:36:30.000Z</time>
      </trkpt>
      <trkpt lat="47.96658" lon="1.89258">
        <ele>120.70547485352</ele>
        <time>2015-09-01T15:36:32.000Z</time>
      </trkpt>
      <trkpt lat="47.96653" lon="1.89262">
        <ele>119.63301086426</ele>
        <time>2015-09-01T15:36:35.000Z</time>
      </trkpt>
      <trkpt lat="47.96648" lon="1.89266">
        <ele>119.99379730225</ele>
        <time>2015-09-01T15:36:37.000Z</time>
      </trkpt>
      <trkpt lat="47.96642" lon="1.89276">
        <ele>119.08700561523</ele>
        <time>2015-09-01T15:36:40.000Z</time>
      </trkpt>
      <trkpt lat="47.96642" lon="1.89287">
        <ele>119.79751586914</ele>
        <time>2015-09-01T15:36:43.000Z</time>
      </trkpt>
      <trkpt lat="47.96643" lon="1.89293">
        <ele>119.93601989746</ele>
        <time>2015-09-01T15:36:45.000Z</time>
      </trkpt>
      <trkpt lat="47.96644" lon="1.89299">
        <ele>119.98245239258</ele>
        <time>2015-09-01T15:36:48.000Z</time>
      </trkpt>
      <trkpt lat="47.96644" lon="1.89305">
        <ele>119.72620391846</ele>
        <time>2015-09-01T15:36:50.000Z</time>
      </trkpt>
      <trkpt lat="47.96643" lon="1.89314">
        <ele>117.25427246094</ele>
        <time>2015-09-01T15:36:53.000Z</time>
      </trkpt>
      <trkpt lat="47.96642" lon="1.89321">
        <ele>115.45093536377</ele>
        <time>2015-09-01T15:36:55.000Z</time>
      </trkpt>
      <trkpt lat="47.9664" lon="1.89333">
        <ele>114.51085662842</ele>
        <time>2015-09-01T15:36:58.000Z</time>
      </trkpt>
      <trkpt lat="47.96635" lon="1.89343">
        <ele>116.25410461426</ele>
        <time>2015-09-01T15:37:01.000Z</time>
      </trkpt>
      <trkpt lat="47.96632" lon="1.8935">
        <ele>118.07952880859</ele>
        <time>2015-09-01T15:37:03.000Z</time>
      </trkpt>
      <trkpt lat="47.96631" lon="1.89364">
        <ele>119.41315460205</ele>
        <time>2015-09-01T15:37:06.000Z</time>
      </trkpt>
      <trkpt lat="47.96632" lon="1.89371">
        <ele>120.90978240967</ele>
        <time>2015-09-01T15:37:08.000Z</time>
      </trkpt>
      <trkpt lat="47.96633" lon="1.89379">
        <ele>121.91902160645</ele>
        <time>2015-09-01T15:37:11.000Z</time>
      </trkpt>
      <trkpt lat="47.96633" lon="1.8938">
        <ele>122.60887145996</ele>
        <time>2015-09-01T15:37:13.000Z</time>
      </trkpt>
      <trkpt lat="47.96632" lon="1.89387">
        <ele>124.3560333252</ele>
        <time>2015-09-01T15:37:16.000Z</time>
      </trkpt>
      <trkpt lat="47.96628" lon="1.89391">
        <ele>123.59697723389</ele>
        <time>2015-09-01T15:37:18.000Z</time>
      </trkpt>
      <trkpt lat="47.96623" lon="1.89404">
        <ele>120.76872253418</ele>
        <time>2015-09-01T15:37:21.000Z</time>
      </trkpt>
      <trkpt lat="47.96624" lon="1.8942">
        <ele>119.32697296143</ele>
        <time>2015-09-01T15:37:24.000Z</time>
      </trkpt>
      <trkpt lat="47.96626" lon="1.89433">
        <ele>122.25182342529</ele>
        <time>2015-09-01T15:37:26.000Z</time>
      </trkpt>
      <trkpt lat="47.96624" lon="1.89442">
        <ele>123.49774932861</ele>
        <time>2015-09-01T15:37:28.000Z</time>
      </trkpt>
      <trkpt lat="47.96616" lon="1.89448">
        <ele>132.2419128418</ele>
        <time>2015-09-01T15:37:31.000Z</time>
      </trkpt>
      <trkpt lat="47.96607" lon="1.89451">
        <ele>135.22346496582</ele>
        <time>2015-09-01T15:37:34.000Z</time>
      </trkpt>
      <trkpt lat="47.96602" lon="1.89455">
        <ele>134.08413696289</ele>
        <time>2015-09-01T15:37:36.000Z</time>
      </trkpt>
      <trkpt lat="47.96596" lon="1.89467">
        <ele>130.5655670166</ele>
        <time>2015-09-01T15:37:39.000Z</time>
      </trkpt>
      <trkpt lat="47.96594" lon="1.89486">
        <ele>129.30949401855</ele>
        <time>2015-09-01T15:37:42.000Z</time>
      </trkpt>
      <trkpt lat="47.96594" lon="1.89502">
        <ele>130.25509643555</ele>
        <time>2015-09-01T15:37:45.000Z</time>
      </trkpt>
      <trkpt lat="47.96593" lon="1.89516">
        <ele>131.43432617188</ele>
        <time>2015-09-01T15:37:48.000Z</time>
      </trkpt>
      <trkpt lat="47.96591" lon="1.89524">
        <ele>127.73722076416</ele>
        <time>2015-09-01T15:37:50.000Z</time>
      </trkpt>
      <trkpt lat="47.96584" lon="1.89528">
        <ele>127.89431762695</ele>
        <time>2015-09-01T15:37:53.000Z</time>
      </trkpt>
      <trkpt lat="47.96574" lon="1.89529">
        <ele>127.34315490723</ele>
        <time>2015-09-01T15:37:56.000Z</time>
      </trkpt>
      <trkpt lat="47.96565" lon="1.89528">
        <ele>129.37487792969</ele>
        <time>2015-09-01T15:37:59.000Z</time>
      </trkpt>
      <trkpt lat="47.96555" lon="1.89528">
        <ele>131.92039489746</ele>
        <time>2015-09-01T15:38:02.000Z</time>
      </trkpt>
      <trkpt lat="47.96549" lon="1.89528">
        <ele>130.22239685059</ele>
        <time>2015-09-01T15:38:04.000Z</time>
      </trkpt>
      <trkpt lat="47.96542" lon="1.89528">
        <ele>128.88493347168</ele>
        <time>2015-09-01T15:38:06.000Z</time>
      </trkpt>
      <trkpt lat="47.96526" lon="1.89529">
        <ele>129.06703186035</ele>
        <time>2015-09-01T15:38:09.000Z</time>
      </trkpt>
      <trkpt lat="47.96512" lon="1.8953">
        <ele>129.07064819336</ele>
        <time>2015-09-01T15:38:12.000Z</time>
      </trkpt>
      <trkpt lat="47.96504" lon="1.89529">
        <ele>131.44200134277</ele>
        <time>2015-09-01T15:38:14.000Z</time>
      </trkpt>
      <trkpt lat="47.96495" lon="1.89529">
        <ele>130.19227600098</ele>
        <time>2015-09-01T15:38:16.000Z</time>
      </trkpt>
      <trkpt lat="47.96483" lon="1.89527">
        <ele>130.08595275879</ele>
        <time>2015-09-01T15:38:19.000Z</time>
      </trkpt>
      <trkpt lat="47.96473" lon="1.89526">
        <ele>130.09014892578</ele>
        <time>2015-09-01T15:38:21.000Z</time>
      </trkpt>
      <trkpt lat="47.96459" lon="1.89525">
        <ele>128.47746276855</ele>
        <time>2015-09-01T15:38:24.000Z</time>
      </trkpt>
      <trkpt lat="47.9645" lon="1.89524">
        <ele>128.05909729004</ele>
        <time>2015-09-01T15:38:26.000Z</time>
      </trkpt>
      <trkpt lat="47.96441" lon="1.89521">
        <ele>127.54342651367</ele>
        <time>2015-09-01T15:38:29.000Z</time>
      </trkpt>
      <trkpt lat="47.96428" lon="1.8952">
        <ele>127.06490325928</ele>
        <time>2015-09-01T15:38:32.000Z</time>
      </trkpt>
      <trkpt lat="47.96421" lon="1.89521">
        <ele>127.05878448486</ele>
        <time>2015-09-01T15:38:34.000Z</time>
      </trkpt>
      <trkpt lat="47.96411" lon="1.89521">
        <ele>130.48150634766</ele>
        <time>2015-09-01T15:38:37.000Z</time>
      </trkpt>
      <trkpt lat="47.96403" lon="1.89521">
        <ele>132.6411895752</ele>
        <time>2015-09-01T15:38:39.000Z</time>
      </trkpt>
      <trkpt lat="47.96388" lon="1.89521">
        <ele>132.13400268555</ele>
        <time>2015-09-01T15:38:42.000Z</time>
      </trkpt>
      <trkpt lat="47.96378" lon="1.89521">
        <ele>132.06973266602</ele>
        <time>2015-09-01T15:38:44.000Z</time>
      </trkpt>
      <trkpt lat="47.96373" lon="1.8952">
        <ele>132.05430603027</ele>
        <time>2015-09-01T15:38:46.000Z</time>
      </trkpt>
      <trkpt lat="47.96366" lon="1.89516">
        <ele>132.65132141113</ele>
        <time>2015-09-01T15:38:49.000Z</time>
      </trkpt>
      <trkpt lat="47.96359" lon="1.89515">
        <ele>134.00885009766</ele>
        <time>2015-09-01T15:38:51.000Z</time>
      </trkpt>
      <trkpt lat="47.96352" lon="1.89515">
        <ele>133.47927856445</ele>
        <time>2015-09-01T15:38:53.000Z</time>
      </trkpt>
      <trkpt lat="47.96344" lon="1.89516">
        <ele>130.62326049805</ele>
        <time>2015-09-01T15:38:56.000Z</time>
      </trkpt>
      <trkpt lat="47.96337" lon="1.89526">
        <ele>132.37062072754</ele>
        <time>2015-09-01T15:38:59.000Z</time>
      </trkpt>
      <trkpt lat="47.96334" lon="1.89542">
        <ele>133.2440032959</ele>
        <time>2015-09-01T15:39:02.000Z</time>
      </trkpt>
      <trkpt lat="47.96332" lon="1.89557">
        <ele>132.38122558594</ele>
        <time>2015-09-01T15:39:04.000Z</time>
      </trkpt>
      <trkpt lat="47.96329" lon="1.89579">
        <ele>130.23640441895</ele>
        <time>2015-09-01T15:39:07.000Z</time>
      </trkpt>
      <trkpt lat="47.96326" lon="1.89589">
        <ele>129.19441223145</ele>
        <time>2015-09-01T15:39:09.000Z</time>
      </trkpt>
      <trkpt lat="47.96325" lon="1.89594">
        <ele>128.63815307617</ele>
        <time>2015-09-01T15:39:11.000Z</time>
      </trkpt>
      <trkpt lat="47.9632" lon="1.89598">
        <ele>129.53369140625</ele>
        <time>2015-09-01T15:39:14.000Z</time>
      </trkpt>
      <trkpt lat="47.96314" lon="1.89598">
        <ele>129.63931274414</ele>
        <time>2015-09-01T15:39:16.000Z</time>
      </trkpt>
      <trkpt lat="47.96306" lon="1.89598">
        <ele>132.02053833008</ele>
        <time>2015-09-01T15:39:19.000Z</time>
      </trkpt>
      <trkpt lat="47.96302" lon="1.896">
        <ele>133.8302154541</ele>
        <time>2015-09-01T15:39:21.000Z</time>
      </trkpt>
      <trkpt lat="47.96293" lon="1.89601">
        <ele>131.5396270752</ele>
        <time>2015-09-01T15:39:24.000Z</time>
      </trkpt>
      <trkpt lat="47.96275" lon="1.89596">
        <ele>130.09855651855</ele>
        <time>2015-09-01T15:39:27.000Z</time>
      </trkpt>
      <trkpt lat="47.96262" lon="1.89592">
        <ele>131.1626739502</ele>
        <time>2015-09-01T15:39:30.000Z</time>
      </trkpt>
      <trkpt lat="47.96253" lon="1.89592">
        <ele>132.7045135498</ele>
        <time>2015-09-01T15:39:32.000Z</time>
      </trkpt>
      <trkpt lat="47.96242" lon="1.89591">
        <ele>133.21836853027</ele>
        <time>2015-09-01T15:39:35.000Z</time>
      </trkpt>
      <trkpt lat="47.9623" lon="1.8959">
        <ele>133.08824157715</ele>
        <time>2015-09-01T15:39:37.000Z</time>
      </trkpt>
      <trkpt lat="47.96219" lon="1.89589">
        <ele>133.70431518555</ele>
        <time>2015-09-01T15:39:39.000Z</time>
      </trkpt>
      <trkpt lat="47.96201" lon="1.89585">
        <ele>132.1039276123</ele>
        <time>2015-09-01T15:39:42.000Z</time>
      </trkpt>
      <trkpt lat="47.96191" lon="1.89584">
        <ele>131.1005859375</ele>
        <time>2015-09-01T15:39:44.000Z</time>
      </trkpt>
      <trkpt lat="47.96179" lon="1.89583">
        <ele>127.5027923584</ele>
        <time>2015-09-01T15:39:47.000Z</time>
      </trkpt>
      <trkpt lat="47.96171" lon="1.89583">
        <ele>127.03232574463</ele>
        <time>2015-09-01T15:39:49.000Z</time>
      </trkpt>
      <trkpt lat="47.96159" lon="1.89584">
        <ele>126.67723846436</ele>
        <time>2015-09-01T15:39:52.000Z</time>
      </trkpt>
      <trkpt lat="47.96151" lon="1.89583">
        <ele>127.65585327148</ele>
        <time>2015-09-01T15:39:54.000Z</time>
      </trkpt>
      <trkpt lat="47.9614" lon="1.89582">
        <ele>127.51457214355</ele>
        <time>2015-09-01T15:39:57.000Z</time>
      </trkpt>
      <trkpt lat="47.96132" lon="1.89581">
        <ele>126.49275970459</ele>
        <time>2015-09-01T15:39:59.000Z</time>
      </trkpt>
      <trkpt lat="47.96122" lon="1.8958">
        <ele>127.15544128418</ele>
        <time>2015-09-01T15:40:02.000Z</time>
      </trkpt>
      <trkpt lat="47.96112" lon="1.89581">
        <ele>129.94624328613</ele>
        <time>2015-09-01T15:40:05.000Z</time>
      </trkpt>
      <trkpt lat="47.961" lon="1.89577">
        <ele>129.5062713623</ele>
        <time>2015-09-01T15:40:08.000Z</time>
      </trkpt>
      <trkpt lat="47.96091" lon="1.89574">
        <ele>130.0306854248</ele>
        <time>2015-09-01T15:40:10.000Z</time>
      </trkpt>
      <trkpt lat="47.96079" lon="1.89571">
        <ele>127.85987091064</ele>
        <time>2015-09-01T15:40:13.000Z</time>
      </trkpt>
      <trkpt lat="47.96068" lon="1.89567">
        <ele>127.07731628418</ele>
        <time>2015-09-01T15:40:16.000Z</time>
      </trkpt>
      <trkpt lat="47.96059" lon="1.89565">
        <ele>128.19140625</ele>
        <time>2015-09-01T15:40:18.000Z</time>
      </trkpt>
      <trkpt lat="47.9605" lon="1.89561">
        <ele>126.94390106201</ele>
        <time>2015-09-01T15:40:21.000Z</time>
      </trkpt>
      <trkpt lat="47.96045" lon="1.89557">
        <ele>126.41376495361</ele>
        <time>2015-09-01T15:40:24.000Z</time>
      </trkpt>
      <trkpt lat="47.96037" lon="1.89555">
        <ele>128.67933654785</ele>
        <time>2015-09-01T15:40:26.000Z</time>
      </trkpt>
      <trkpt lat="47.96022" lon="1.89555">
        <ele>129.77635192871</ele>
        <time>2015-09-01T15:40:29.000Z</time>
      </trkpt>
      <trkpt lat="47.96004" lon="1.89556">
        <ele>131.14067077637</ele>
        <time>2015-09-01T15:40:32.000Z</time>
      </trkpt>
      <trkpt lat="47.9599" lon="1.89558">
        <ele>132.30339050293</ele>
        <time>2015-09-01T15:40:34.000Z</time>
      </trkpt>
      <trkpt lat="47.95977" lon="1.89558">
        <ele>134.12895202637</ele>
        <time>2015-09-01T15:40:37.000Z</time>
      </trkpt>
      <trkpt lat="47.95961" lon="1.89558">
        <ele>132.55763244629</ele>
        <time>2015-09-01T15:40:40.000Z</time>
      </trkpt>
      <trkpt lat="47.95951" lon="1.89557">
        <ele>134.04998779297</ele>
        <time>2015-09-01T15:40:43.000Z</time>
      </trkpt>
      <trkpt lat="47.95935" lon="1.89559">
        <ele>137.48344421387</ele>
        <time>2015-09-01T15:40:46.000Z</time>
      </trkpt>
      <trkpt lat="47.95932" lon="1.89558">
        <ele>137.59098815918</ele>
        <time>2015-09-01T15:40:48.000Z</time>
      </trkpt>
      <trkpt lat="47.95927" lon="1.89555">
        <ele>138.20922851562</ele>
        <time>2015-09-01T15:40:51.000Z</time>
      </trkpt>
      <trkpt lat="47.95925" lon="1.89554">
        <ele>136.2041015625</ele>
        <time>2015-09-01T15:40:53.000Z</time>
      </trkpt>
      <trkpt lat="47.95922" lon="1.89556">
        <ele>133.35636901855</ele>
        <time>2015-09-01T15:40:55.000Z</time>
      </trkpt>
      <trkpt lat="47.95919" lon="1.89562">
        <ele>133.72953796387</ele>
        <time>2015-09-01T15:40:57.000Z</time>
      </trkpt>
      <trkpt lat="47.95919" lon="1.89577">
        <ele>134.2873840332</ele>
        <time>2015-09-01T15:41:00.000Z</time>
      </trkpt>
      <trkpt lat="47.95922" lon="1.89596">
        <ele>138.01364135742</ele>
        <time>2015-09-01T15:41:03.000Z</time>
      </trkpt>
      <trkpt lat="47.95926" lon="1.8961">
        <ele>142.30476379395</ele>
        <time>2015-09-01T15:41:06.000Z</time>
      </trkpt>
      <trkpt lat="47.95929" lon="1.89621">
        <ele>143.72378540039</ele>
        <time>2015-09-01T15:41:09.000Z</time>
      </trkpt>
      <trkpt lat="47.95931" lon="1.89627">
        <ele>143.95275878906</ele>
        <time>2015-09-01T15:41:11.000Z</time>
      </trkpt>
      <trkpt lat="47.95931" lon="1.89635">
        <ele>144.38081359863</ele>
        <time>2015-09-01T15:41:13.000Z</time>
      </trkpt>
      <trkpt lat="47.95932" lon="1.89646">
        <ele>142.9793548584</ele>
        <time>2015-09-01T15:41:15.000Z</time>
      </trkpt>
      <trkpt lat="47.95934" lon="1.89662">
        <ele>141.85151672363</ele>
        <time>2015-09-01T15:41:18.000Z</time>
      </trkpt>
      <trkpt lat="47.95934" lon="1.89672">
        <ele>140.60070800781</ele>
        <time>2015-09-01T15:41:20.000Z</time>
      </trkpt>
      <trkpt lat="47.95948" lon="1.89725">
        <ele>139.44129943848</ele>
        <time>2015-09-01T15:41:25.000Z</time>
      </trkpt>
      <trkpt lat="47.95953" lon="1.89742">
        <ele>136.12030029297</ele>
        <time>2015-09-01T15:41:28.000Z</time>
      </trkpt>
      <trkpt lat="47.95956" lon="1.8976">
        <ele>135.90274047852</ele>
        <time>2015-09-01T15:41:31.000Z</time>
      </trkpt>
      <trkpt lat="47.95959" lon="1.89773">
        <ele>136.30346679688</ele>
        <time>2015-09-01T15:41:33.000Z</time>
      </trkpt>
      <trkpt lat="47.95962" lon="1.89789">
        <ele>137.27203369141</ele>
        <time>2015-09-01T15:41:36.000Z</time>
      </trkpt>
      <trkpt lat="47.95964" lon="1.89798">
        <ele>137.52891540527</ele>
        <time>2015-09-01T15:41:38.000Z</time>
      </trkpt>
      <trkpt lat="47.95965" lon="1.8981">
        <ele>138.85746765137</ele>
        <time>2015-09-01T15:41:41.000Z</time>
      </trkpt>
      <trkpt lat="47.95967" lon="1.89819">
        <ele>141.33656311035</ele>
        <time>2015-09-01T15:41:43.000Z</time>
      </trkpt>
      <trkpt lat="47.95971" lon="1.89839">
        <ele>147.1623840332</ele>
        <time>2015-09-01T15:41:46.000Z</time>
      </trkpt>
      <trkpt lat="47.95976" lon="1.89859">
        <ele>151.63241577148</ele>
        <time>2015-09-01T15:41:49.000Z</time>
      </trkpt>
      <trkpt lat="47.95983" lon="1.89876">
        <ele>149.68544006348</ele>
        <time>2015-09-01T15:41:51.000Z</time>
      </trkpt>
      <trkpt lat="47.95988" lon="1.89894">
        <ele>149.05790710449</ele>
        <time>2015-09-01T15:41:54.000Z</time>
      </trkpt>
      <trkpt lat="47.9599" lon="1.89903">
        <ele>150.97018432617</ele>
        <time>2015-09-01T15:41:56.000Z</time>
      </trkpt>
      <trkpt lat="47.95992" lon="1.89913">
        <ele>154.28634643555</ele>
        <time>2015-09-01T15:41:59.000Z</time>
      </trkpt>
      <trkpt lat="47.95994" lon="1.89923">
        <ele>152.62997436523</ele>
        <time>2015-09-01T15:42:01.000Z</time>
      </trkpt>
      <trkpt lat="47.95997" lon="1.89942">
        <ele>150.87191772461</ele>
        <time>2015-09-01T15:42:04.000Z</time>
      </trkpt>
      <trkpt lat="47.95999" lon="1.89956">
        <ele>148.71910095215</ele>
        <time>2015-09-01T15:42:06.000Z</time>
      </trkpt>
      <trkpt lat="47.96005" lon="1.89975">
        <ele>149.00982666016</ele>
        <time>2015-09-01T15:42:09.000Z</time>
      </trkpt>
      <trkpt lat="47.9601" lon="1.89992">
        <ele>144.39065551758</ele>
        <time>2015-09-01T15:42:12.000Z</time>
      </trkpt>
      <trkpt lat="47.96012" lon="1.90003">
        <ele>142.92980957031</ele>
        <time>2015-09-01T15:42:14.000Z</time>
      </trkpt>
      <trkpt lat="47.96014" lon="1.90018">
        <ele>140.99670410156</ele>
        <time>2015-09-01T15:42:17.000Z</time>
      </trkpt>
      <trkpt lat="47.96015" lon="1.90029">
        <ele>142.36279296875</ele>
        <time>2015-09-01T15:42:19.000Z</time>
      </trkpt>
      <trkpt lat="47.96019" lon="1.90044">
        <ele>144.1400604248</ele>
        <time>2015-09-01T15:42:22.000Z</time>
      </trkpt>
      <trkpt lat="47.96034" lon="1.9008">
        <ele>154.7504119873</ele>
        <time>2015-09-01T15:42:26.000Z</time>
      </trkpt>
      <trkpt lat="47.96037" lon="1.90092">
        <ele>156.25337219238</ele>
        <time>2015-09-01T15:42:28.000Z</time>
      </trkpt>
      <trkpt lat="47.96041" lon="1.90108">
        <ele>154.74880981445</ele>
        <time>2015-09-01T15:42:31.000Z</time>
      </trkpt>
      <trkpt lat="47.96051" lon="1.90122">
        <ele>145.44607543945</ele>
        <time>2015-09-01T15:42:34.000Z</time>
      </trkpt>
      <trkpt lat="47.96054" lon="1.90126">
        <ele>146.81614685059</ele>
        <time>2015-09-01T15:42:37.000Z</time>
      </trkpt>
      <trkpt lat="47.96057" lon="1.90127">
        <ele>146.58644104004</ele>
        <time>2015-09-01T15:42:39.000Z</time>
      </trkpt>
      <trkpt lat="47.96064" lon="1.90132">
        <ele>144.87727355957</ele>
        <time>2015-09-01T15:42:42.000Z</time>
      </trkpt>
      <trkpt lat="47.96075" lon="1.90143">
        <ele>143.99407958984</ele>
        <time>2015-09-01T15:42:45.000Z</time>
      </trkpt>
      <trkpt lat="47.96083" lon="1.90148">
        <ele>145.96492004395</ele>
        <time>2015-09-01T15:42:48.000Z</time>
      </trkpt>
      <trkpt lat="47.96089" lon="1.90152">
        <ele>143.6198425293</ele>
        <time>2015-09-01T15:42:50.000Z</time>
      </trkpt>
      <trkpt lat="47.96101" lon="1.9016">
        <ele>143.09201049805</ele>
        <time>2015-09-01T15:42:53.000Z</time>
      </trkpt>
      <trkpt lat="47.96107" lon="1.90164">
        <ele>145.42419433594</ele>
        <time>2015-09-01T15:42:55.000Z</time>
      </trkpt>
      <trkpt lat="47.96116" lon="1.90168">
        <ele>145.01533508301</ele>
        <time>2015-09-01T15:42:58.000Z</time>
      </trkpt>
      <trkpt lat="47.96123" lon="1.90171">
        <ele>144.90354919434</ele>
        <time>2015-09-01T15:43:00.000Z</time>
      </trkpt>
      <trkpt lat="47.96134" lon="1.90178">
        <ele>145.93565368652</ele>
        <time>2015-09-01T15:43:03.000Z</time>
      </trkpt>
      <trkpt lat="47.96145" lon="1.90184">
        <ele>145.91358947754</ele>
        <time>2015-09-01T15:43:06.000Z</time>
      </trkpt>
      <trkpt lat="47.96152" lon="1.90188">
        <ele>145.16725158691</ele>
        <time>2015-09-01T15:43:08.000Z</time>
      </trkpt>
      <trkpt lat="47.96163" lon="1.90194">
        <ele>145.33854675293</ele>
        <time>2015-09-01T15:43:11.000Z</time>
      </trkpt>
      <trkpt lat="47.96172" lon="1.90199">
        <ele>146.91514587402</ele>
        <time>2015-09-01T15:43:13.000Z</time>
      </trkpt>
      <trkpt lat="47.96183" lon="1.90209">
        <ele>139.99002075195</ele>
        <time>2015-09-01T15:43:16.000Z</time>
      </trkpt>
      <trkpt lat="47.9619" lon="1.90215">
        <ele>142.31103515625</ele>
        <time>2015-09-01T15:43:18.000Z</time>
      </trkpt>
      <trkpt lat="47.96201" lon="1.90222">
        <ele>143.88357543945</ele>
        <time>2015-09-01T15:43:21.000Z</time>
      </trkpt>
      <trkpt lat="47.96207" lon="1.90224">
        <ele>144.31532287598</ele>
        <time>2015-09-01T15:43:23.000Z</time>
      </trkpt>
      <trkpt lat="47.96214" lon="1.90226">
        <ele>144.01712036133</ele>
        <time>2015-09-01T15:43:26.000Z</time>
      </trkpt>
      <trkpt lat="47.96219" lon="1.90227">
        <ele>145.25527954102</ele>
        <time>2015-09-01T15:43:28.000Z</time>
      </trkpt>
      <trkpt lat="47.96224" lon="1.90227">
        <ele>143.1393737793</ele>
        <time>2015-09-01T15:43:31.000Z</time>
      </trkpt>
      <trkpt lat="47.96234" lon="1.90227">
        <ele>146.99803161621</ele>
        <time>2015-09-01T15:43:34.000Z</time>
      </trkpt>
      <trkpt lat="47.96243" lon="1.90229">
        <ele>145.49377441406</ele>
        <time>2015-09-01T15:43:36.000Z</time>
      </trkpt>
      <trkpt lat="47.96257" lon="1.90235">
        <ele>141.82849121094</ele>
        <time>2015-09-01T15:43:39.000Z</time>
      </trkpt>
      <trkpt lat="47.96266" lon="1.90238">
        <ele>141.21821594238</ele>
        <time>2015-09-01T15:43:41.000Z</time>
      </trkpt>
      <trkpt lat="47.96278" lon="1.90242">
        <ele>140.89663696289</ele>
        <time>2015-09-01T15:43:44.000Z</time>
      </trkpt>
      <trkpt lat="47.96286" lon="1.90245">
        <ele>140.91101074219</ele>
        <time>2015-09-01T15:43:46.000Z</time>
      </trkpt>
      <trkpt lat="47.96297" lon="1.90249">
        <ele>141.310546875</ele>
        <time>2015-09-01T15:43:49.000Z</time>
      </trkpt>
      <trkpt lat="47.9631" lon="1.90255">
        <ele>138.83059692383</ele>
        <time>2015-09-01T15:43:52.000Z</time>
      </trkpt>
      <trkpt lat="47.9632" lon="1.90258">
        <ele>136.49766540527</ele>
        <time>2015-09-01T15:43:54.000Z</time>
      </trkpt>
      <trkpt lat="47.96336" lon="1.9026">
        <ele>136.87232971191</ele>
        <time>2015-09-01T15:43:57.000Z</time>
      </trkpt>
      <trkpt lat="47.96346" lon="1.90261">
        <ele>136.32878112793</ele>
        <time>2015-09-01T15:43:59.000Z</time>
      </trkpt>
      <trkpt lat="47.96359" lon="1.90262">
        <ele>136.84648132324</ele>
        <time>2015-09-01T15:44:02.000Z</time>
      </trkpt>
      <trkpt lat="47.96369" lon="1.90263">
        <ele>136.92170715332</ele>
        <time>2015-09-01T15:44:04.000Z</time>
      </trkpt>
      <trkpt lat="47.96383" lon="1.90265">
        <ele>136.52447509766</ele>
        <time>2015-09-01T15:44:07.000Z</time>
      </trkpt>
      <trkpt lat="47.96394" lon="1.90267">
        <ele>134.97142028809</ele>
        <time>2015-09-01T15:44:09.000Z</time>
      </trkpt>
      <trkpt lat="47.96408" lon="1.90267">
        <ele>136.38331604004</ele>
        <time>2015-09-01T15:44:12.000Z</time>
      </trkpt>
      <trkpt lat="47.96418" lon="1.90268">
        <ele>136.41094970703</ele>
        <time>2015-09-01T15:44:14.000Z</time>
      </trkpt>
      <trkpt lat="47.96431" lon="1.90275">
        <ele>138.85723876953</ele>
        <time>2015-09-01T15:44:17.000Z</time>
      </trkpt>
      <trkpt lat="47.96446" lon="1.90281">
        <ele>142.83605957031</ele>
        <time>2015-09-01T15:44:20.000Z</time>
      </trkpt>
      <trkpt lat="47.96456" lon="1.90282">
        <ele>142.43045043945</ele>
        <time>2015-09-01T15:44:22.000Z</time>
      </trkpt>
      <trkpt lat="47.96474" lon="1.90284">
        <ele>147.31941223145</ele>
        <time>2015-09-01T15:44:25.000Z</time>
      </trkpt>
      <trkpt lat="47.9649" lon="1.90285">
        <ele>143.28607177734</ele>
        <time>2015-09-01T15:44:28.000Z</time>
      </trkpt>
      <trkpt lat="47.96499" lon="1.90285">
        <ele>143.52337646484</ele>
        <time>2015-09-01T15:44:30.000Z</time>
      </trkpt>
      <trkpt lat="47.96515" lon="1.90287">
        <ele>144.83349609375</ele>
        <time>2015-09-01T15:44:33.000Z</time>
      </trkpt>
      <trkpt lat="47.96526" lon="1.90286">
        <ele>142.94068908691</ele>
        <time>2015-09-01T15:44:35.000Z</time>
      </trkpt>
      <trkpt lat="47.96539" lon="1.90285">
        <ele>141.78507995605</ele>
        <time>2015-09-01T15:44:38.000Z</time>
      </trkpt>
      <trkpt lat="47.96543" lon="1.90285">
        <ele>140.09477233887</ele>
        <time>2015-09-01T15:44:40.000Z</time>
      </trkpt>
      <trkpt lat="47.96549" lon="1.90291">
        <ele>138.91734313965</ele>
        <time>2015-09-01T15:44:43.000Z</time>
      </trkpt>
      <trkpt lat="47.96553" lon="1.90295">
        <ele>138.56665039062</ele>
        <time>2015-09-01T15:44:45.000Z</time>
      </trkpt>
      <trkpt lat="47.96561" lon="1.903">
        <ele>139.29211425781</ele>
        <time>2015-09-01T15:44:48.000Z</time>
      </trkpt>
      <trkpt lat="47.96567" lon="1.90303">
        <ele>137.67196655273</ele>
        <time>2015-09-01T15:44:51.000Z</time>
      </trkpt>
      <trkpt lat="47.96569" lon="1.90303">
        <ele>137.42376708984</ele>
        <time>2015-09-01T15:44:54.000Z</time>
      </trkpt>
      <trkpt lat="47.96571" lon="1.90303">
        <ele>137.91084289551</ele>
        <time>2015-09-01T15:44:57.000Z</time>
      </trkpt>
      <trkpt lat="47.96577" lon="1.90304">
        <ele>139.10185241699</ele>
        <time>2015-09-01T15:45:00.000Z</time>
      </trkpt>
      <trkpt lat="47.96584" lon="1.90308">
        <ele>139.28877258301</ele>
        <time>2015-09-01T15:45:02.000Z</time>
      </trkpt>
      <trkpt lat="47.96588" lon="1.90309">
        <ele>138.94770812988</ele>
        <time>2015-09-01T15:45:04.000Z</time>
      </trkpt>
      <trkpt lat="47.96597" lon="1.90308">
        <ele>140.42288208008</ele>
        <time>2015-09-01T15:45:07.000Z</time>
      </trkpt>
      <trkpt lat="47.96602" lon="1.90308">
        <ele>140.97491455078</ele>
        <time>2015-09-01T15:45:09.000Z</time>
      </trkpt>
      <trkpt lat="47.9661" lon="1.90308">
        <ele>138.58265686035</ele>
        <time>2015-09-01T15:45:12.000Z</time>
      </trkpt>
      <trkpt lat="47.9662" lon="1.90307">
        <ele>136.98677062988</ele>
        <time>2015-09-01T15:45:15.000Z</time>
      </trkpt>
      <trkpt lat="47.96634" lon="1.90307">
        <ele>141.41102600098</ele>
        <time>2015-09-01T15:45:18.000Z</time>
      </trkpt>
      <trkpt lat="47.96641" lon="1.90307">
        <ele>144.26924133301</ele>
        <time>2015-09-01T15:45:20.000Z</time>
      </trkpt>
      <trkpt lat="47.96652" lon="1.90309">
        <ele>143.90255737305</ele>
        <time>2015-09-01T15:45:23.000Z</time>
      </trkpt>
      <trkpt lat="47.96661" lon="1.90311">
        <ele>142.67185974121</ele>
        <time>2015-09-01T15:45:25.000Z</time>
      </trkpt>
      <trkpt lat="47.96676" lon="1.90311">
        <ele>142.84237670898</ele>
        <time>2015-09-01T15:45:28.000Z</time>
      </trkpt>
      <trkpt lat="47.96688" lon="1.90311">
        <ele>143.43673706055</ele>
        <time>2015-09-01T15:45:31.000Z</time>
      </trkpt>
      <trkpt lat="47.96698" lon="1.90312">
        <ele>143.92887878418</ele>
        <time>2015-09-01T15:45:33.000Z</time>
      </trkpt>
      <trkpt lat="47.96713" lon="1.90313">
        <ele>144.94111633301</ele>
        <time>2015-09-01T15:45:36.000Z</time>
      </trkpt>
      <trkpt lat="47.96728" lon="1.90312">
        <ele>145.99293518066</ele>
        <time>2015-09-01T15:45:39.000Z</time>
      </trkpt>
      <trkpt lat="47.96737" lon="1.90312">
        <ele>145.91857910156</ele>
        <time>2015-09-01T15:45:41.000Z</time>
      </trkpt>
      <trkpt lat="47.96753" lon="1.90314">
        <ele>143.83450317383</ele>
        <time>2015-09-01T15:45:44.000Z</time>
      </trkpt>
      <trkpt lat="47.96767" lon="1.90316">
        <ele>144.92301940918</ele>
        <time>2015-09-01T15:45:47.000Z</time>
      </trkpt>
      <trkpt lat="47.96774" lon="1.90317">
        <ele>144.92028808594</ele>
        <time>2015-09-01T15:45:49.000Z</time>
      </trkpt>
      <trkpt lat="47.96789" lon="1.9032">
        <ele>147.90377807617</ele>
        <time>2015-09-01T15:45:52.000Z</time>
      </trkpt>
      <trkpt lat="47.96802" lon="1.90322">
        <ele>144.95237731934</ele>
        <time>2015-09-01T15:45:54.000Z</time>
      </trkpt>
      <trkpt lat="47.96819" lon="1.90321">
        <ele>144.92025756836</ele>
        <time>2015-09-01T15:45:57.000Z</time>
      </trkpt>
      <trkpt lat="47.96832" lon="1.90322">
        <ele>141.98979187012</ele>
        <time>2015-09-01T15:45:59.000Z</time>
      </trkpt>
      <trkpt lat="47.96848" lon="1.90321">
        <ele>141.97550964355</ele>
        <time>2015-09-01T15:46:02.000Z</time>
      </trkpt>
      <trkpt lat="47.96864" lon="1.90322">
        <ele>142.52047729492</ele>
        <time>2015-09-01T15:46:05.000Z</time>
      </trkpt>
      <trkpt lat="47.96876" lon="1.90321">
        <ele>140.96374511719</ele>
        <time>2015-09-01T15:46:07.000Z</time>
      </trkpt>
      <trkpt lat="47.96895" lon="1.9032">
        <ele>139.58825683594</ele>
        <time>2015-09-01T15:46:10.000Z</time>
      </trkpt>
      <trkpt lat="47.96901" lon="1.9032">
        <ele>140.8627166748</ele>
        <time>2015-09-01T15:46:12.000Z</time>
      </trkpt>
      <trkpt lat="47.9691" lon="1.90322">
        <ele>139.01136779785</ele>
        <time>2015-09-01T15:46:14.000Z</time>
      </trkpt>
      <trkpt lat="47.96917" lon="1.90325">
        <ele>138.39492797852</ele>
        <time>2015-09-01T15:46:16.000Z</time>
      </trkpt>
      <trkpt lat="47.96928" lon="1.90331">
        <ele>138.10641479492</ele>
        <time>2015-09-01T15:46:19.000Z</time>
      </trkpt>
      <trkpt lat="47.96935" lon="1.9033">
        <ele>137.59883117676</ele>
        <time>2015-09-01T15:46:22.000Z</time>
      </trkpt>
      <trkpt lat="47.96938" lon="1.90327">
        <ele>137.00904846191</ele>
        <time>2015-09-01T15:46:24.000Z</time>
      </trkpt>
      <trkpt lat="47.96942" lon="1.90327">
        <ele>141.00311279297</ele>
        <time>2015-09-01T15:46:26.000Z</time>
      </trkpt>
      <trkpt lat="47.96947" lon="1.90333">
        <ele>142.03649902344</ele>
        <time>2015-09-01T15:46:28.000Z</time>
      </trkpt>
      <trkpt lat="47.96955" lon="1.90342">
        <ele>143.65086364746</ele>
        <time>2015-09-01T15:46:30.000Z</time>
      </trkpt>
      <trkpt lat="47.96969" lon="1.90355">
        <ele>144.50666809082</ele>
        <time>2015-09-01T15:46:33.000Z</time>
      </trkpt>
      <trkpt lat="47.96975" lon="1.90361">
        <ele>144.5608215332</ele>
        <time>2015-09-01T15:46:35.000Z</time>
      </trkpt>
      <trkpt lat="47.96989" lon="1.90369">
        <ele>142.41766357422</ele>
        <time>2015-09-01T15:46:38.000Z</time>
      </trkpt>
      <trkpt lat="47.96999" lon="1.90377">
        <ele>140.53163146973</ele>
        <time>2015-09-01T15:46:40.000Z</time>
      </trkpt>
      <trkpt lat="47.97009" lon="1.90386">
        <ele>141.47560119629</ele>
        <time>2015-09-01T15:46:43.000Z</time>
      </trkpt>
      <trkpt lat="47.97018" lon="1.90397">
        <ele>146.76574707031</ele>
        <time>2015-09-01T15:46:46.000Z</time>
      </trkpt>
      <trkpt lat="47.97031" lon="1.9041">
        <ele>146.91172790527</ele>
        <time>2015-09-01T15:46:49.000Z</time>
      </trkpt>
      <trkpt lat="47.9704" lon="1.90418">
        <ele>145.91070556641</ele>
        <time>2015-09-01T15:46:51.000Z</time>
      </trkpt>
      <trkpt lat="47.97049" lon="1.90425">
        <ele>144.93496704102</ele>
        <time>2015-09-01T15:46:53.000Z</time>
      </trkpt>
      <trkpt lat="47.97059" lon="1.90435">
        <ele>149.77662658691</ele>
        <time>2015-09-01T15:46:56.000Z</time>
      </trkpt>
      <trkpt lat="47.9707" lon="1.90445">
        <ele>150.2872467041</ele>
        <time>2015-09-01T15:46:59.000Z</time>
      </trkpt>
      <trkpt lat="47.97083" lon="1.90453">
        <ele>148.96951293945</ele>
        <time>2015-09-01T15:47:02.000Z</time>
      </trkpt>
      <trkpt lat="47.97091" lon="1.90459">
        <ele>150.70156860352</ele>
        <time>2015-09-01T15:47:04.000Z</time>
      </trkpt>
      <trkpt lat="47.97097" lon="1.90466">
        <ele>153.34928894043</ele>
        <time>2015-09-01T15:47:06.000Z</time>
      </trkpt>
      <trkpt lat="47.9711" lon="1.90479">
        <ele>154.68721008301</ele>
        <time>2015-09-01T15:47:09.000Z</time>
      </trkpt>
      <trkpt lat="47.9712" lon="1.9049">
        <ele>155.72457885742</ele>
        <time>2015-09-01T15:47:11.000Z</time>
      </trkpt>
      <trkpt lat="47.97132" lon="1.90502">
        <ele>155.39584350586</ele>
        <time>2015-09-01T15:47:14.000Z</time>
      </trkpt>
      <trkpt lat="47.97141" lon="1.9051">
        <ele>154.11990356445</ele>
        <time>2015-09-01T15:47:16.000Z</time>
      </trkpt>
      <trkpt lat="47.97158" lon="1.90533">
        <ele>146.25238037109</ele>
        <time>2015-09-01T15:47:19.000Z</time>
      </trkpt>
      <trkpt lat="47.97166" lon="1.90543">
        <ele>142.97470092773</ele>
        <time>2015-09-01T15:47:21.000Z</time>
      </trkpt>
      <trkpt lat="47.97172" lon="1.9055">
        <ele>141.78997802734</ele>
        <time>2015-09-01T15:47:24.000Z</time>
      </trkpt>
      <trkpt lat="47.97182" lon="1.90562">
        <ele>145.28507995605</ele>
        <time>2015-09-01T15:47:27.000Z</time>
      </trkpt>
      <trkpt lat="47.97189" lon="1.90568">
        <ele>145.03269958496</ele>
        <time>2015-09-01T15:47:29.000Z</time>
      </trkpt>
      <trkpt lat="47.97205" lon="1.90585">
        <ele>141.47875976562</ele>
        <time>2015-09-01T15:47:32.000Z</time>
      </trkpt>
      <trkpt lat="47.97209" lon="1.90598">
        <ele>139.47500610352</ele>
        <time>2015-09-01T15:47:34.000Z</time>
      </trkpt>
      <trkpt lat="47.97211" lon="1.90606">
        <ele>137.59400939941</ele>
        <time>2015-09-01T15:47:37.000Z</time>
      </trkpt>
      <trkpt lat="47.97213" lon="1.9061">
        <ele>135.79730224609</ele>
        <time>2015-09-01T15:47:39.000Z</time>
      </trkpt>
      <trkpt lat="47.97218" lon="1.9061">
        <ele>135.89715576172</ele>
        <time>2015-09-01T15:47:42.000Z</time>
      </trkpt>
      <trkpt lat="47.97226" lon="1.90606">
        <ele>135.05158996582</ele>
        <time>2015-09-01T15:47:45.000Z</time>
      </trkpt>
      <trkpt lat="47.97231" lon="1.90602">
        <ele>134.36187744141</ele>
        <time>2015-09-01T15:47:47.000Z</time>
      </trkpt>
      <trkpt lat="47.97237" lon="1.90599">
        <ele>133.04536437988</ele>
        <time>2015-09-01T15:47:49.000Z</time>
      </trkpt>
      <trkpt lat="47.97242" lon="1.90597">
        <ele>132.04470825195</ele>
        <time>2015-09-01T15:47:51.000Z</time>
      </trkpt>
      <trkpt lat="47.97247" lon="1.90593">
        <ele>131.41461181641</ele>
        <time>2015-09-01T15:47:53.000Z</time>
      </trkpt>
      <trkpt lat="47.97257" lon="1.90588">
        <ele>131.9621887207</ele>
        <time>2015-09-01T15:47:56.000Z</time>
      </trkpt>
      <trkpt lat="47.97269" lon="1.90581">
        <ele>130.32899475098</ele>
        <time>2015-09-01T15:47:59.000Z</time>
      </trkpt>
      <trkpt lat="47.97279" lon="1.90574">
        <ele>129.92057800293</ele>
        <time>2015-09-01T15:48:01.000Z</time>
      </trkpt>
      <trkpt lat="47.97292" lon="1.90566">
        <ele>129.00630187988</ele>
        <time>2015-09-01T15:48:04.000Z</time>
      </trkpt>
      <trkpt lat="47.97302" lon="1.90557">
        <ele>128.93827819824</ele>
        <time>2015-09-01T15:48:06.000Z</time>
      </trkpt>
      <trkpt lat="47.97317" lon="1.90546">
        <ele>127.91062164307</ele>
        <time>2015-09-01T15:48:09.000Z</time>
      </trkpt>
      <trkpt lat="47.97326" lon="1.9054">
        <ele>126.98503875732</ele>
        <time>2015-09-01T15:48:11.000Z</time>
      </trkpt>
      <trkpt lat="47.97339" lon="1.9053">
        <ele>126.37281036377</ele>
        <time>2015-09-01T15:48:14.000Z</time>
      </trkpt>
      <trkpt lat="47.97352" lon="1.90523">
        <ele>126.55322265625</ele>
        <time>2015-09-01T15:48:17.000Z</time>
      </trkpt>
      <trkpt lat="47.97362" lon="1.90515">
        <ele>125.98927307129</ele>
        <time>2015-09-01T15:48:19.000Z</time>
      </trkpt>
      <trkpt lat="47.97376" lon="1.90504">
        <ele>124.92116546631</ele>
        <time>2015-09-01T15:48:22.000Z</time>
      </trkpt>
      <trkpt lat="47.97386" lon="1.90497">
        <ele>125.89534759521</ele>
        <time>2015-09-01T15:48:24.000Z</time>
      </trkpt>
      <trkpt lat="47.97401" lon="1.90487">
        <ele>125.94501495361</ele>
        <time>2015-09-01T15:48:27.000Z</time>
      </trkpt>
      <trkpt lat="47.97411" lon="1.90479">
        <ele>125.94402313232</ele>
        <time>2015-09-01T15:48:29.000Z</time>
      </trkpt>
      <trkpt lat="47.97426" lon="1.90468">
        <ele>125.94477081299</ele>
        <time>2015-09-01T15:48:32.000Z</time>
      </trkpt>
      <trkpt lat="47.97435" lon="1.90462">
        <ele>125.94269561768</ele>
        <time>2015-09-01T15:48:34.000Z</time>
      </trkpt>
      <trkpt lat="47.9745" lon="1.90451">
        <ele>125.94445037842</ele>
        <time>2015-09-01T15:48:37.000Z</time>
      </trkpt>
      <trkpt lat="47.97461" lon="1.90443">
        <ele>124.44491577148</ele>
        <time>2015-09-01T15:48:40.000Z</time>
      </trkpt>
      <trkpt lat="47.97469" lon="1.90437">
        <ele>123.93328094482</ele>
        <time>2015-09-01T15:48:42.000Z</time>
      </trkpt>
      <trkpt lat="47.97477" lon="1.90431">
        <ele>123.96352386475</ele>
        <time>2015-09-01T15:48:45.000Z</time>
      </trkpt>
      <trkpt lat="47.97482" lon="1.90427">
        <ele>123.96210479736</ele>
        <time>2015-09-01T15:48:47.000Z</time>
      </trkpt>
      <trkpt lat="47.97487" lon="1.90424">
        <ele>124.34619140625</ele>
        <time>2015-09-01T15:48:49.000Z</time>
      </trkpt>
      <trkpt lat="47.97493" lon="1.90416">
        <ele>126.25977325439</ele>
        <time>2015-09-01T15:48:52.000Z</time>
      </trkpt>
      <trkpt lat="47.97498" lon="1.90415">
        <ele>126.61526489258</ele>
        <time>2015-09-01T15:48:54.000Z</time>
      </trkpt>
      <trkpt lat="47.97503" lon="1.90413">
        <ele>126.96481323242</ele>
        <time>2015-09-01T15:48:56.000Z</time>
      </trkpt>
      <trkpt lat="47.97512" lon="1.90407">
        <ele>126.95597839355</ele>
        <time>2015-09-01T15:48:59.000Z</time>
      </trkpt>
      <trkpt lat="47.97519" lon="1.90402">
        <ele>126.4302444458</ele>
        <time>2015-09-01T15:49:01.000Z</time>
      </trkpt>
      <trkpt lat="47.97525" lon="1.90396">
        <ele>125.95278167725</ele>
        <time>2015-09-01T15:49:03.000Z</time>
      </trkpt>
      <trkpt lat="47.97533" lon="1.90394">
        <ele>125.95998382568</ele>
        <time>2015-09-01T15:49:06.000Z</time>
      </trkpt>
      <trkpt lat="47.97538" lon="1.90395">
        <ele>124.95947265625</ele>
        <time>2015-09-01T15:49:09.000Z</time>
      </trkpt>
      <trkpt lat="47.97541" lon="1.90399">
        <ele>124.46935272217</ele>
        <time>2015-09-01T15:49:11.000Z</time>
      </trkpt>
      <trkpt lat="47.97545" lon="1.90406">
        <ele>124.91247558594</ele>
        <time>2015-09-01T15:49:14.000Z</time>
      </trkpt>
      <trkpt lat="47.97545" lon="1.90406">
        <ele>128.7423248291</ele>
        <time>2015-09-01T15:49:34.000Z</time>
      </trkpt>
      <trkpt lat="47.97544" lon="1.90406">
        <ele>123.17569732666</ele>
        <time>2015-09-01T15:49:37.000Z</time>
      </trkpt>
      <trkpt lat="47.97543" lon="1.90407">
        <ele>122.27188873291</ele>
        <time>2015-09-01T15:49:49.000Z</time>
      </trkpt>
      <trkpt lat="47.97543" lon="1.90411">
        <ele>122.40981292725</ele>
        <time>2015-09-01T15:49:52.000Z</time>
      </trkpt>
      <trkpt lat="47.97544" lon="1.90415">
        <ele>122.9280166626</ele>
        <time>2015-09-01T15:49:54.000Z</time>
      </trkpt>
      <trkpt lat="47.97548" lon="1.90424">
        <ele>122.96970367432</ele>
        <time>2015-09-01T15:49:57.000Z</time>
      </trkpt>
      <trkpt lat="47.97551" lon="1.90432">
        <ele>122.9606552124</ele>
        <time>2015-09-01T15:50:00.000Z</time>
      </trkpt>
      <trkpt lat="47.97556" lon="1.90442">
        <ele>121.95288848877</ele>
        <time>2015-09-01T15:50:03.000Z</time>
      </trkpt>
      <trkpt lat="47.97559" lon="1.9045">
        <ele>122.799949646</ele>
        <time>2015-09-01T15:50:05.000Z</time>
      </trkpt>
      <trkpt lat="47.97564" lon="1.90464">
        <ele>122.56572723389</ele>
        <time>2015-09-01T15:50:08.000Z</time>
      </trkpt>
      <trkpt lat="47.97572" lon="1.90479">
        <ele>122.94270324707</ele>
        <time>2015-09-01T15:50:11.000Z</time>
      </trkpt>
      <trkpt lat="47.97578" lon="1.90496">
        <ele>123.45995330811</ele>
        <time>2015-09-01T15:50:14.000Z</time>
      </trkpt>
      <trkpt lat="47.97582" lon="1.90506">
        <ele>124.321434021</ele>
        <time>2015-09-01T15:50:16.000Z</time>
      </trkpt>
      <trkpt lat="47.97586" lon="1.90517">
        <ele>124.84593963623</ele>
        <time>2015-09-01T15:50:18.000Z</time>
      </trkpt>
      <trkpt lat="47.97591" lon="1.90532">
        <ele>125.31858062744</ele>
        <time>2015-09-01T15:50:21.000Z</time>
      </trkpt>
      <trkpt lat="47.97596" lon="1.90546">
        <ele>125.80956268311</ele>
        <time>2015-09-01T15:50:24.000Z</time>
      </trkpt>
      <trkpt lat="47.976" lon="1.90557">
        <ele>125.58740997314</ele>
        <time>2015-09-01T15:50:26.000Z</time>
      </trkpt>
      <trkpt lat="47.97605" lon="1.90573">
        <ele>126.08808898926</ele>
        <time>2015-09-01T15:50:29.000Z</time>
      </trkpt>
      <trkpt lat="47.97609" lon="1.90586">
        <ele>125.56352233887</ele>
        <time>2015-09-01T15:50:31.000Z</time>
      </trkpt>
      <trkpt lat="47.97613" lon="1.90594">
        <ele>126.81207275391</ele>
        <time>2015-09-01T15:50:33.000Z</time>
      </trkpt>
      <trkpt lat="47.97619" lon="1.90608">
        <ele>127.46276855469</ele>
        <time>2015-09-01T15:50:36.000Z</time>
      </trkpt>
      <trkpt lat="47.97623" lon="1.90621">
        <ele>129.48738098145</ele>
        <time>2015-09-01T15:50:39.000Z</time>
      </trkpt>
      <trkpt lat="47.97627" lon="1.90631">
        <ele>128.96667480469</ele>
        <time>2015-09-01T15:50:41.000Z</time>
      </trkpt>
      <trkpt lat="47.97631" lon="1.9064">
        <ele>128.56234741211</ele>
        <time>2015-09-01T15:50:43.000Z</time>
      </trkpt>
      <trkpt lat="47.97636" lon="1.90655">
        <ele>130.45561218262</ele>
        <time>2015-09-01T15:50:46.000Z</time>
      </trkpt>
      <trkpt lat="47.97642" lon="1.90669">
        <ele>129.2507019043</ele>
        <time>2015-09-01T15:50:49.000Z</time>
      </trkpt>
      <trkpt lat="47.97646" lon="1.90683">
        <ele>130.26538085938</ele>
        <time>2015-09-01T15:50:52.000Z</time>
      </trkpt>
      <trkpt lat="47.9765" lon="1.90691">
        <ele>131.45306396484</ele>
        <time>2015-09-01T15:50:54.000Z</time>
      </trkpt>
      <trkpt lat="47.97655" lon="1.90703">
        <ele>133.90270996094</ele>
        <time>2015-09-01T15:50:57.000Z</time>
      </trkpt>
      <trkpt lat="47.97667" lon="1.90734">
        <ele>135.84393310547</ele>
        <time>2015-09-01T15:51:01.000Z</time>
      </trkpt>
      <trkpt lat="47.97675" lon="1.90753">
        <ele>135.66404724121</ele>
        <time>2015-09-01T15:51:04.000Z</time>
      </trkpt>
      <trkpt lat="47.97683" lon="1.90774">
        <ele>133.39567565918</ele>
        <time>2015-09-01T15:51:07.000Z</time>
      </trkpt>
      <trkpt lat="47.97688" lon="1.90788">
        <ele>131.83424377441</ele>
        <time>2015-09-01T15:51:09.000Z</time>
      </trkpt>
      <trkpt lat="47.97693" lon="1.90804">
        <ele>131.41432189941</ele>
        <time>2015-09-01T15:51:11.000Z</time>
      </trkpt>
      <trkpt lat="47.97697" lon="1.90817">
        <ele>132.8595123291</ele>
        <time>2015-09-01T15:51:13.000Z</time>
      </trkpt>
      <trkpt lat="47.97702" lon="1.9083">
        <ele>132.96894836426</ele>
        <time>2015-09-01T15:51:15.000Z</time>
      </trkpt>
      <trkpt lat="47.97705" lon="1.90844">
        <ele>134.32922363281</ele>
        <time>2015-09-01T15:51:17.000Z</time>
      </trkpt>
      <trkpt lat="47.97712" lon="1.90861">
        <ele>134.33042907715</ele>
        <time>2015-09-01T15:51:20.000Z</time>
      </trkpt>
      <trkpt lat="47.97718" lon="1.90879">
        <ele>133.93310546875</ele>
        <time>2015-09-01T15:51:23.000Z</time>
      </trkpt>
      <trkpt lat="47.97722" lon="1.90892">
        <ele>134.38381958008</ele>
        <time>2015-09-01T15:51:25.000Z</time>
      </trkpt>
      <trkpt lat="47.97728" lon="1.90908">
        <ele>131.4102935791</ele>
        <time>2015-09-01T15:51:27.000Z</time>
      </trkpt>
      <trkpt lat="47.97735" lon="1.90924">
        <ele>129.96051025391</ele>
        <time>2015-09-01T15:51:29.000Z</time>
      </trkpt>
      <trkpt lat="47.97743" lon="1.90948">
        <ele>127.18560028076</ele>
        <time>2015-09-01T15:51:32.000Z</time>
      </trkpt>
      <trkpt lat="47.97749" lon="1.90963">
        <ele>125.06867980957</ele>
        <time>2015-09-01T15:51:34.000Z</time>
      </trkpt>
      <trkpt lat="47.97759" lon="1.90985">
        <ele>124.90333557129</ele>
        <time>2015-09-01T15:51:37.000Z</time>
      </trkpt>
      <trkpt lat="47.97765" lon="1.91001">
        <ele>124.93418884277</ele>
        <time>2015-09-01T15:51:39.000Z</time>
      </trkpt>
      <trkpt lat="47.97771" lon="1.91021">
        <ele>125.83469390869</ele>
        <time>2015-09-01T15:51:42.000Z</time>
      </trkpt>
      <trkpt lat="47.97779" lon="1.91041">
        <ele>125.94066619873</ele>
        <time>2015-09-01T15:51:45.000Z</time>
      </trkpt>
      <trkpt lat="47.97786" lon="1.9106">
        <ele>125.9401473999</ele>
        <time>2015-09-01T15:51:48.000Z</time>
      </trkpt>
      <trkpt lat="47.97794" lon="1.91083">
        <ele>127.87522125244</ele>
        <time>2015-09-01T15:51:51.000Z</time>
      </trkpt>
      <trkpt lat="47.97799" lon="1.91097">
        <ele>128.3044128418</ele>
        <time>2015-09-01T15:51:53.000Z</time>
      </trkpt>
      <trkpt lat="47.97807" lon="1.91119">
        <ele>126.99704742432</ele>
        <time>2015-09-01T15:51:56.000Z</time>
      </trkpt>
      <trkpt lat="47.97814" lon="1.91136">
        <ele>126.91594696045</ele>
        <time>2015-09-01T15:51:59.000Z</time>
      </trkpt>
      <trkpt lat="47.97822" lon="1.91162">
        <ele>128.82942199707</ele>
        <time>2015-09-01T15:52:02.000Z</time>
      </trkpt>
      <trkpt lat="47.97827" lon="1.91179">
        <ele>127.97792816162</ele>
        <time>2015-09-01T15:52:04.000Z</time>
      </trkpt>
      <trkpt lat="47.97832" lon="1.91192">
        <ele>127.28231811523</ele>
        <time>2015-09-01T15:52:06.000Z</time>
      </trkpt>
      <trkpt lat="47.97839" lon="1.91214">
        <ele>126.47724151611</ele>
        <time>2015-09-01T15:52:09.000Z</time>
      </trkpt>
      <trkpt lat="47.97848" lon="1.91238">
        <ele>124.22958374023</ele>
        <time>2015-09-01T15:52:12.000Z</time>
      </trkpt>
      <trkpt lat="47.97857" lon="1.91261">
        <ele>127.42241668701</ele>
        <time>2015-09-01T15:52:15.000Z</time>
      </trkpt>
      <trkpt lat="47.97863" lon="1.91273">
        <ele>129.43156433105</ele>
        <time>2015-09-01T15:52:17.000Z</time>
      </trkpt>
      <trkpt lat="47.97868" lon="1.91286">
        <ele>130.88212585449</ele>
        <time>2015-09-01T15:52:19.000Z</time>
      </trkpt>
      <trkpt lat="47.97877" lon="1.91304">
        <ele>134.78314208984</ele>
        <time>2015-09-01T15:52:22.000Z</time>
      </trkpt>
      <trkpt lat="47.97887" lon="1.91331">
        <ele>133.70246887207</ele>
        <time>2015-09-01T15:52:25.000Z</time>
      </trkpt>
      <trkpt lat="47.97893" lon="1.91348">
        <ele>131.41874694824</ele>
        <time>2015-09-01T15:52:27.000Z</time>
      </trkpt>
      <trkpt lat="47.97902" lon="1.91372">
        <ele>128.86393737793</ele>
        <time>2015-09-01T15:52:30.000Z</time>
      </trkpt>
      <trkpt lat="47.9791" lon="1.91394">
        <ele>128.00012207031</ele>
        <time>2015-09-01T15:52:33.000Z</time>
      </trkpt>
      <trkpt lat="47.9792" lon="1.91418">
        <ele>127.45574951172</ele>
        <time>2015-09-01T15:52:36.000Z</time>
      </trkpt>
      <trkpt lat="47.97926" lon="1.91435">
        <ele>127.93876647949</ele>
        <time>2015-09-01T15:52:38.000Z</time>
      </trkpt>
      <trkpt lat="47.97932" lon="1.91449">
        <ele>127.93375396729</ele>
        <time>2015-09-01T15:52:40.000Z</time>
      </trkpt>
      <trkpt lat="47.9794" lon="1.91472">
        <ele>127.02658081055</ele>
        <time>2015-09-01T15:52:43.000Z</time>
      </trkpt>
      <trkpt lat="47.97948" lon="1.91495">
        <ele>125.36246490479</ele>
        <time>2015-09-01T15:52:46.000Z</time>
      </trkpt>
      <trkpt lat="47.97954" lon="1.91509">
        <ele>123.41377258301</ele>
        <time>2015-09-01T15:52:48.000Z</time>
      </trkpt>
      <trkpt lat="47.97964" lon="1.91533">
        <ele>122.33155059814</ele>
        <time>2015-09-01T15:52:51.000Z</time>
      </trkpt>
      <trkpt lat="47.97971" lon="1.91557">
        <ele>120.61324310303</ele>
        <time>2015-09-01T15:52:54.000Z</time>
      </trkpt>
      <trkpt lat="47.97979" lon="1.91583">
        <ele>120.52910614014</ele>
        <time>2015-09-01T15:52:57.000Z</time>
      </trkpt>
      <trkpt lat="47.97984" lon="1.91598">
        <ele>120.05645751953</ele>
        <time>2015-09-01T15:52:59.000Z</time>
      </trkpt>
      <trkpt lat="47.97992" lon="1.91623">
        <ele>119.31127166748</ele>
        <time>2015-09-01T15:53:02.000Z</time>
      </trkpt>
      <trkpt lat="47.97997" lon="1.9164">
        <ele>119.82733154297</ele>
        <time>2015-09-01T15:53:04.000Z</time>
      </trkpt>
      <trkpt lat="47.98006" lon="1.91667">
        <ele>120.52903747559</ele>
        <time>2015-09-01T15:53:07.000Z</time>
      </trkpt>
      <trkpt lat="47.98011" lon="1.91681">
        <ele>120.33943939209</ele>
        <time>2015-09-01T15:53:09.000Z</time>
      </trkpt>
      <trkpt lat="47.98023" lon="1.91706">
        <ele>117.91564178467</ele>
        <time>2015-09-01T15:53:12.000Z</time>
      </trkpt>
      <trkpt lat="47.98032" lon="1.91731">
        <ele>120.41586303711</ele>
        <time>2015-09-01T15:53:15.000Z</time>
      </trkpt>
      <trkpt lat="47.98038" lon="1.91747">
        <ele>120.96326446533</ele>
        <time>2015-09-01T15:53:17.000Z</time>
      </trkpt>
      <trkpt lat="47.98042" lon="1.91763">
        <ele>121.35084533691</ele>
        <time>2015-09-01T15:53:19.000Z</time>
      </trkpt>
      <trkpt lat="47.98055" lon="1.91799">
        <ele>120.8916015625</ele>
        <time>2015-09-01T15:53:22.000Z</time>
      </trkpt>
      <trkpt lat="47.98062" lon="1.91821">
        <ele>120.88611602783</ele>
        <time>2015-09-01T15:53:24.000Z</time>
      </trkpt>
      <trkpt lat="47.98073" lon="1.91851">
        <ele>121.82969665527</ele>
        <time>2015-09-01T15:53:27.000Z</time>
      </trkpt>
      <trkpt lat="47.98081" lon="1.91873">
        <ele>123.63975524902</ele>
        <time>2015-09-01T15:53:29.000Z</time>
      </trkpt>
      <trkpt lat="47.98093" lon="1.91905">
        <ele>127.51691436768</ele>
        <time>2015-09-01T15:53:32.000Z</time>
      </trkpt>
      <trkpt lat="47.98107" lon="1.91938">
        <ele>128.97825622559</ele>
        <time>2015-09-01T15:53:35.000Z</time>
      </trkpt>
      <trkpt lat="47.98115" lon="1.91961">
        <ele>130.82936096191</ele>
        <time>2015-09-01T15:53:37.000Z</time>
      </trkpt>
      <trkpt lat="47.98123" lon="1.91981">
        <ele>132.4740447998</ele>
        <time>2015-09-01T15:53:39.000Z</time>
      </trkpt>
      <trkpt lat="47.98135" lon="1.92012">
        <ele>132.92300415039</ele>
        <time>2015-09-01T15:53:42.000Z</time>
      </trkpt>
      <trkpt lat="47.98147" lon="1.92042">
        <ele>135.40705871582</ele>
        <time>2015-09-01T15:53:45.000Z</time>
      </trkpt>
      <trkpt lat="47.98156" lon="1.92064">
        <ele>135.94120788574</ele>
        <time>2015-09-01T15:53:47.000Z</time>
      </trkpt>
      <trkpt lat="47.98164" lon="1.92088">
        <ele>134.94898986816</ele>
        <time>2015-09-01T15:53:49.000Z</time>
      </trkpt>
      <trkpt lat="47.98177" lon="1.92123">
        <ele>136.30670166016</ele>
        <time>2015-09-01T15:53:52.000Z</time>
      </trkpt>
      <trkpt lat="47.98185" lon="1.92148">
        <ele>133.12979125977</ele>
        <time>2015-09-01T15:53:55.000Z</time>
      </trkpt>
      <trkpt lat="47.98194" lon="1.92167">
        <ele>132.85801696777</ele>
        <time>2015-09-01T15:53:58.000Z</time>
      </trkpt>
      <trkpt lat="47.98202" lon="1.92197">
        <ele>131.94676208496</ele>
        <time>2015-09-01T15:54:01.000Z</time>
      </trkpt>
      <trkpt lat="47.98211" lon="1.92222">
        <ele>133.90896606445</ele>
        <time>2015-09-01T15:54:04.000Z</time>
      </trkpt>
      <trkpt lat="47.98216" lon="1.92239">
        <ele>133.94998168945</ele>
        <time>2015-09-01T15:54:06.000Z</time>
      </trkpt>
      <trkpt lat="47.98225" lon="1.92266">
        <ele>135.91871643066</ele>
        <time>2015-09-01T15:54:09.000Z</time>
      </trkpt>
      <trkpt lat="47.9823" lon="1.92281">
        <ele>139.04151916504</ele>
        <time>2015-09-01T15:54:11.000Z</time>
      </trkpt>
      <trkpt lat="47.98236" lon="1.92296">
        <ele>141.59530639648</ele>
        <time>2015-09-01T15:54:13.000Z</time>
      </trkpt>
      <trkpt lat="47.98245" lon="1.92319">
        <ele>139.81875610352</ele>
        <time>2015-09-01T15:54:16.000Z</time>
      </trkpt>
      <trkpt lat="47.98249" lon="1.92332">
        <ele>139.44869995117</ele>
        <time>2015-09-01T15:54:18.000Z</time>
      </trkpt>
      <trkpt lat="47.98255" lon="1.92352">
        <ele>140.47854614258</ele>
        <time>2015-09-01T15:54:21.000Z</time>
      </trkpt>
      <trkpt lat="47.98261" lon="1.92368">
        <ele>140.55941772461</ele>
        <time>2015-09-01T15:54:23.000Z</time>
      </trkpt>
      <trkpt lat="47.98273" lon="1.92398">
        <ele>132.79615783691</ele>
        <time>2015-09-01T15:54:26.000Z</time>
      </trkpt>
      <trkpt lat="47.98277" lon="1.92411">
        <ele>132.92012023926</ele>
        <time>2015-09-01T15:54:28.000Z</time>
      </trkpt>
      <trkpt lat="47.98282" lon="1.92424">
        <ele>133.29676818848</ele>
        <time>2015-09-01T15:54:30.000Z</time>
      </trkpt>
      <trkpt lat="47.98289" lon="1.92442">
        <ele>131.89950561523</ele>
        <time>2015-09-01T15:54:33.000Z</time>
      </trkpt>
      <trkpt lat="47.98298" lon="1.92461">
        <ele>128.20693969727</ele>
        <time>2015-09-01T15:54:36.000Z</time>
      </trkpt>
      <trkpt lat="47.98303" lon="1.92471">
        <ele>130.25</ele>
        <time>2015-09-01T15:54:38.000Z</time>
      </trkpt>
      <trkpt lat="47.98312" lon="1.92492">
        <ele>128.46253967285</ele>
        <time>2015-09-01T15:54:41.000Z</time>
      </trkpt>
      <trkpt lat="47.98319" lon="1.92507">
        <ele>126.21347808838</ele>
        <time>2015-09-01T15:54:43.000Z</time>
      </trkpt>
      <trkpt lat="47.98324" lon="1.92519">
        <ele>126.02374267578</ele>
        <time>2015-09-01T15:54:45.000Z</time>
      </trkpt>
      <trkpt lat="47.98327" lon="1.92527">
        <ele>126.37832641602</ele>
        <time>2015-09-01T15:54:47.000Z</time>
      </trkpt>
      <trkpt lat="47.98329" lon="1.92547">
        <ele>128.20700073242</ele>
        <time>2015-09-01T15:54:50.000Z</time>
      </trkpt>
      <trkpt lat="47.98335" lon="1.92565">
        <ele>130.7836151123</ele>
        <time>2015-09-01T15:54:53.000Z</time>
      </trkpt>
      <trkpt lat="47.98338" lon="1.92578">
        <ele>131.83129882812</ele>
        <time>2015-09-01T15:54:55.000Z</time>
      </trkpt>
      <trkpt lat="47.98346" lon="1.92596">
        <ele>134.89498901367</ele>
        <time>2015-09-01T15:54:58.000Z</time>
      </trkpt>
      <trkpt lat="47.98351" lon="1.92609">
        <ele>137.12686157227</ele>
        <time>2015-09-01T15:55:01.000Z</time>
      </trkpt>
      <trkpt lat="47.98358" lon="1.92621">
        <ele>132.54110717773</ele>
        <time>2015-09-01T15:55:04.000Z</time>
      </trkpt>
      <trkpt lat="47.98364" lon="1.92632">
        <ele>129.72198486328</ele>
        <time>2015-09-01T15:55:07.000Z</time>
      </trkpt>
      <trkpt lat="47.98368" lon="1.92639">
        <ele>132.05932617188</ele>
        <time>2015-09-01T15:55:10.000Z</time>
      </trkpt>
      <trkpt lat="47.9837" lon="1.92643">
        <ele>133.8560333252</ele>
        <time>2015-09-01T15:55:12.000Z</time>
      </trkpt>
      <trkpt lat="47.98372" lon="1.92652">
        <ele>133.7396697998</ele>
        <time>2015-09-01T15:55:15.000Z</time>
      </trkpt>
      <trkpt lat="47.9837" lon="1.92658">
        <ele>128.00596618652</ele>
        <time>2015-09-01T15:55:18.000Z</time>
      </trkpt>
      <trkpt lat="47.9837" lon="1.92655">
        <ele>126.9225692749</ele>
        <time>2015-09-01T15:55:20.000Z</time>
      </trkpt>
      <trkpt lat="47.9837" lon="1.92647">
        <ele>124.83238983154</ele>
        <time>2015-09-01T15:55:23.000Z</time>
      </trkpt>
      <trkpt lat="47.98368" lon="1.9264">
        <ele>128.34017944336</ele>
        <time>2015-09-01T15:55:26.000Z</time>
      </trkpt>
      <trkpt lat="47.98366" lon="1.92635">
        <ele>131.41781616211</ele>
        <time>2015-09-01T15:55:28.000Z</time>
      </trkpt>
      <trkpt lat="47.98362" lon="1.92627">
        <ele>135.68333435059</ele>
        <time>2015-09-01T15:55:31.000Z</time>
      </trkpt>
      <trkpt lat="47.98356" lon="1.92617">
        <ele>137.599609375</ele>
        <time>2015-09-01T15:55:34.000Z</time>
      </trkpt>
      <trkpt lat="47.98353" lon="1.9261">
        <ele>140.06353759766</ele>
        <time>2015-09-01T15:55:36.000Z</time>
      </trkpt>
      <trkpt lat="47.98351" lon="1.92601">
        <ele>142.73143005371</ele>
        <time>2015-09-01T15:55:39.000Z</time>
      </trkpt>
      <trkpt lat="47.98351" lon="1.92594">
        <ele>145.46098327637</ele>
        <time>2015-09-01T15:55:42.000Z</time>
      </trkpt>
      <trkpt lat="47.9835" lon="1.92589">
        <ele>148.41679382324</ele>
        <time>2015-09-01T15:55:45.000Z</time>
      </trkpt>
      <trkpt lat="47.9835" lon="1.92589">
        <ele>128.72996520996</ele>
        <time>2015-09-01T15:56:05.000Z</time>
      </trkpt>
      <trkpt lat="47.98351" lon="1.92588">
        <ele>147.68640136719</ele>
        <time>2015-09-01T15:56:13.000Z</time>
      </trkpt>
      <trkpt lat="47.98351" lon="1.92588">
        <ele>128.7417755127</ele>
        <time>2015-09-01T15:56:33.000Z</time>
      </trkpt>
      <trkpt lat="47.98351" lon="1.92586">
        <ele>146.04772949219</ele>
        <time>2015-09-01T15:56:41.000Z</time>
      </trkpt>
      <trkpt lat="47.98351" lon="1.92586">
        <ele>128.70082092285</ele>
        <time>2015-09-01T15:57:01.000Z</time>
      </trkpt>
      <trkpt lat="47.9835" lon="1.92585">
        <ele>144.59332275391</ele>
        <time>2015-09-01T15:57:13.000Z</time>
      </trkpt>
      <trkpt lat="47.98348" lon="1.92584">
        <ele>143.60079956055</ele>
        <time>2015-09-01T15:57:16.000Z</time>
      </trkpt>
      <trkpt lat="47.98346" lon="1.92581">
        <ele>142.70819091797</ele>
        <time>2015-09-01T15:57:18.000Z</time>
      </trkpt>
      <trkpt lat="47.98345" lon="1.92574">
        <ele>142.92219543457</ele>
        <time>2015-09-01T15:57:20.000Z</time>
      </trkpt>
      <trkpt lat="47.98345" lon="1.92562">
        <ele>141.74496459961</ele>
        <time>2015-09-01T15:57:23.000Z</time>
      </trkpt>
      <trkpt lat="47.98344" lon="1.92555">
        <ele>141.15393066406</ele>
        <time>2015-09-01T15:57:25.000Z</time>
      </trkpt>
      <trkpt lat="47.98341" lon="1.92549">
        <ele>144.95803833008</ele>
        <time>2015-09-01T15:57:27.000Z</time>
      </trkpt>
      <trkpt lat="47.98341" lon="1.92544">
        <ele>151.35655212402</ele>
        <time>2015-09-01T15:57:29.000Z</time>
      </trkpt>
      <trkpt lat="47.98342" lon="1.9254">
        <ele>157.98480224609</ele>
        <time>2015-09-01T15:57:32.000Z</time>
      </trkpt>
      <trkpt lat="47.98341" lon="1.92533">
        <ele>157.65330505371</ele>
        <time>2015-09-01T15:57:35.000Z</time>
      </trkpt>
      <trkpt lat="47.98338" lon="1.92525">
        <ele>156.63499450684</ele>
        <time>2015-09-01T15:57:38.000Z</time>
      </trkpt>
      <trkpt lat="47.98337" lon="1.92518">
        <ele>151.93139648438</ele>
        <time>2015-09-01T15:57:41.000Z</time>
      </trkpt>
      <trkpt lat="47.98334" lon="1.92515">
        <ele>146.84275817871</ele>
        <time>2015-09-01T15:57:44.000Z</time>
      </trkpt>
      <trkpt lat="47.98332" lon="1.92514">
        <ele>145.48983764648</ele>
        <time>2015-09-01T15:57:49.000Z</time>
      </trkpt>
      <trkpt lat="47.98331" lon="1.92514">
        <ele>144.72877502441</ele>
        <time>2015-09-01T15:57:52.000Z</time>
      </trkpt>
      <trkpt lat="47.98332" lon="1.92513">
        <ele>142.1089630127</ele>
        <time>2015-09-01T15:57:57.000Z</time>
      </trkpt>
      <trkpt lat="47.98333" lon="1.92512">
        <ele>141.20750427246</ele>
        <time>2015-09-01T15:57:59.000Z</time>
      </trkpt>
      <trkpt lat="47.98339" lon="1.92515">
        <ele>139.12786865234</ele>
        <time>2015-09-01T15:58:02.000Z</time>
      </trkpt>
      <trkpt lat="47.98344" lon="1.9252">
        <ele>139.28036499023</ele>
        <time>2015-09-01T15:58:04.000Z</time>
      </trkpt>
      <trkpt lat="47.98352" lon="1.92526">
        <ele>138.90705871582</ele>
        <time>2015-09-01T15:58:07.000Z</time>
      </trkpt>
      <trkpt lat="47.98359" lon="1.92529">
        <ele>138.97529602051</ele>
        <time>2015-09-01T15:58:10.000Z</time>
      </trkpt>
      <trkpt lat="47.98365" lon="1.92532">
        <ele>141.26824951172</ele>
        <time>2015-09-01T15:58:13.000Z</time>
      </trkpt>
      <trkpt lat="47.98375" lon="1.92536">
        <ele>138.41195678711</ele>
        <time>2015-09-01T15:58:16.000Z</time>
      </trkpt>
      <trkpt lat="47.98386" lon="1.9254">
        <ele>135.00315856934</ele>
        <time>2015-09-01T15:58:19.000Z</time>
      </trkpt>
      <trkpt lat="47.98395" lon="1.92543">
        <ele>135.77418518066</ele>
        <time>2015-09-01T15:58:22.000Z</time>
      </trkpt>
      <trkpt lat="47.98398" lon="1.92544">
        <ele>134.66651916504</ele>
        <time>2015-09-01T15:58:24.000Z</time>
      </trkpt>
      <trkpt lat="47.984" lon="1.92543">
        <ele>133.24385070801</ele>
        <time>2015-09-01T15:58:28.000Z</time>
      </trkpt>
      <trkpt lat="47.98401" lon="1.92541">
        <ele>132.03067016602</ele>
        <time>2015-09-01T15:58:37.000Z</time>
      </trkpt>
      <trkpt lat="47.98401" lon="1.9254">
        <ele>131.38269042969</ele>
        <time>2015-09-01T15:58:45.000Z</time>
      </trkpt>
      <trkpt lat="47.98402" lon="1.92538">
        <ele>131.66752624512</ele>
        <time>2015-09-01T15:59:04.000Z</time>
      </trkpt>
      <trkpt lat="47.98402" lon="1.92536">
        <ele>131.93577575684</ele>
        <time>2015-09-01T15:59:08.000Z</time>
      </trkpt>
      <trkpt lat="47.98403" lon="1.92536">
        <ele>131.99433898926</ele>
        <time>2015-09-01T15:59:16.000Z</time>
      </trkpt>
      <trkpt lat="47.98404" lon="1.92539">
        <ele>131.12127685547</ele>
        <time>2015-09-01T15:59:18.000Z</time>
      </trkpt>
      <trkpt lat="47.98404" lon="1.92549">
        <ele>130.79402160645</ele>
        <time>2015-09-01T15:59:21.000Z</time>
      </trkpt>
      <trkpt lat="47.98404" lon="1.9256">
        <ele>130.20983886719</ele>
        <time>2015-09-01T15:59:24.000Z</time>
      </trkpt>
      <trkpt lat="47.98404" lon="1.92573">
        <ele>130.34788513184</ele>
        <time>2015-09-01T15:59:27.000Z</time>
      </trkpt>
      <trkpt lat="47.98403" lon="1.92588">
        <ele>129.10282897949</ele>
        <time>2015-09-01T15:59:30.000Z</time>
      </trkpt>
      <trkpt lat="47.98403" lon="1.92603">
        <ele>128.53367614746</ele>
        <time>2015-09-01T15:59:32.000Z</time>
      </trkpt>
      <trkpt lat="47.98403" lon="1.92616">
        <ele>128.0760345459</ele>
        <time>2015-09-01T15:59:34.000Z</time>
      </trkpt>
      <trkpt lat="47.98403" lon="1.92628">
        <ele>128.35954284668</ele>
        <time>2015-09-01T15:59:36.000Z</time>
      </trkpt>
      <trkpt lat="47.98405" lon="1.92648">
        <ele>130.21452331543</ele>
        <time>2015-09-01T15:59:39.000Z</time>
      </trkpt>
      <trkpt lat="47.98406" lon="1.92661">
        <ele>130.12632751465</ele>
        <time>2015-09-01T15:59:41.000Z</time>
      </trkpt>
      <trkpt lat="47.98406" lon="1.92678">
        <ele>131.0047454834</ele>
        <time>2015-09-01T15:59:44.000Z</time>
      </trkpt>
      <trkpt lat="47.98407" lon="1.9269">
        <ele>131.41554260254</ele>
        <time>2015-09-01T15:59:46.000Z</time>
      </trkpt>
      <trkpt lat="47.98408" lon="1.92705">
        <ele>132.23712158203</ele>
        <time>2015-09-01T15:59:49.000Z</time>
      </trkpt>
      <trkpt lat="47.98409" lon="1.92715">
        <ele>133.12997436523</ele>
        <time>2015-09-01T15:59:52.000Z</time>
      </trkpt>
      <trkpt lat="47.9841" lon="1.92725">
        <ele>133.60406494141</ele>
        <time>2015-09-01T15:59:55.000Z</time>
      </trkpt>
      <trkpt lat="47.98412" lon="1.92731">
        <ele>132.30714416504</ele>
        <time>2015-09-01T15:59:57.000Z</time>
      </trkpt>
      <trkpt lat="47.98414" lon="1.92736">
        <ele>132.23449707031</ele>
        <time>2015-09-01T15:59:59.000Z</time>
      </trkpt>
      <trkpt lat="47.98418" lon="1.92743">
        <ele>131.95436096191</ele>
        <time>2015-09-01T16:00:02.000Z</time>
      </trkpt>
      <trkpt lat="47.98422" lon="1.92748">
        <ele>130.79455566406</ele>
        <time>2015-09-01T16:00:05.000Z</time>
      </trkpt>
      <trkpt lat="47.98427" lon="1.92755">
        <ele>129.40727233887</ele>
        <time>2015-09-01T16:00:08.000Z</time>
      </trkpt>
      <trkpt lat="47.98431" lon="1.92759">
        <ele>129.92242431641</ele>
        <time>2015-09-01T16:00:10.000Z</time>
      </trkpt>
      <trkpt lat="47.98434" lon="1.92762">
        <ele>129.96629333496</ele>
        <time>2015-09-01T16:00:13.000Z</time>
      </trkpt>
      <trkpt lat="47.98435" lon="1.92763">
        <ele>130.41059875488</ele>
        <time>2015-09-01T16:00:28.000Z</time>
      </trkpt>
      <trkpt lat="47.98435" lon="1.92763">
        <ele>130.43385314941</ele>
        <time>2015-09-01T16:00:48.000Z</time>
      </trkpt>
      <trkpt lat="47.98436" lon="1.92765">
        <ele>129.83116149902</ele>
        <time>2015-09-01T16:00:54.000Z</time>
      </trkpt>
      <trkpt lat="47.98442" lon="1.92767">
        <ele>129.88038635254</ele>
        <time>2015-09-01T16:00:57.000Z</time>
      </trkpt>
      <trkpt lat="47.98447" lon="1.92769">
        <ele>131.39477539062</ele>
        <time>2015-09-01T16:00:59.000Z</time>
      </trkpt>
      <trkpt lat="47.98453" lon="1.9277">
        <ele>131.96612548828</ele>
        <time>2015-09-01T16:01:02.000Z</time>
      </trkpt>
      <trkpt lat="47.98455" lon="1.92771">
        <ele>131.96490478516</ele>
        <time>2015-09-01T16:01:04.000Z</time>
      </trkpt>
      <trkpt lat="47.98461" lon="1.92773">
        <ele>131.42106628418</ele>
        <time>2015-09-01T16:01:07.000Z</time>
      </trkpt>
      <trkpt lat="47.98468" lon="1.92777">
        <ele>130.39141845703</ele>
        <time>2015-09-01T16:01:10.000Z</time>
      </trkpt>
      <trkpt lat="47.9848" lon="1.92783">
        <ele>127.98989868164</ele>
        <time>2015-09-01T16:01:13.000Z</time>
      </trkpt>
      <trkpt lat="47.98488" lon="1.92786">
        <ele>130.50131225586</ele>
        <time>2015-09-01T16:01:15.000Z</time>
      </trkpt>
      <trkpt lat="47.98503" lon="1.92793">
        <ele>129.95965576172</ele>
        <time>2015-09-01T16:01:18.000Z</time>
      </trkpt>
      <trkpt lat="47.9851" lon="1.92798">
        <ele>129.9002532959</ele>
        <time>2015-09-01T16:01:20.000Z</time>
      </trkpt>
      <trkpt lat="47.98523" lon="1.92805">
        <ele>130.93231201172</ele>
        <time>2015-09-01T16:01:23.000Z</time>
      </trkpt>
      <trkpt lat="47.98536" lon="1.92808">
        <ele>129.96185302734</ele>
        <time>2015-09-01T16:01:26.000Z</time>
      </trkpt>
      <trkpt lat="47.98546" lon="1.92811">
        <ele>132.7999420166</ele>
        <time>2015-09-01T16:01:28.000Z</time>
      </trkpt>
      <trkpt lat="47.9856" lon="1.92815">
        <ele>132.90995788574</ele>
        <time>2015-09-01T16:01:31.000Z</time>
      </trkpt>
      <trkpt lat="47.9857" lon="1.92817">
        <ele>133.84411621094</ele>
        <time>2015-09-01T16:01:33.000Z</time>
      </trkpt>
      <trkpt lat="47.98581" lon="1.92818">
        <ele>133.91697692871</ele>
        <time>2015-09-01T16:01:35.000Z</time>
      </trkpt>
      <trkpt lat="47.98597" lon="1.92817">
        <ele>133.92658996582</ele>
        <time>2015-09-01T16:01:38.000Z</time>
      </trkpt>
      <trkpt lat="47.98607" lon="1.92818">
        <ele>135.48173522949</ele>
        <time>2015-09-01T16:01:40.000Z</time>
      </trkpt>
      <trkpt lat="47.98617" lon="1.92821">
        <ele>136.52610778809</ele>
        <time>2015-09-01T16:01:42.000Z</time>
      </trkpt>
      <trkpt lat="47.98631" lon="1.92826">
        <ele>138.49159240723</ele>
        <time>2015-09-01T16:01:45.000Z</time>
      </trkpt>
      <trkpt lat="47.98645" lon="1.92833">
        <ele>138.31176757812</ele>
        <time>2015-09-01T16:01:48.000Z</time>
      </trkpt>
      <trkpt lat="47.9866" lon="1.92837">
        <ele>138.48550415039</ele>
        <time>2015-09-01T16:01:51.000Z</time>
      </trkpt>
      <trkpt lat="47.9867" lon="1.9284">
        <ele>140.50593566895</ele>
        <time>2015-09-01T16:01:53.000Z</time>
      </trkpt>
      <trkpt lat="47.98684" lon="1.92841">
        <ele>138.9764251709</ele>
        <time>2015-09-01T16:01:56.000Z</time>
      </trkpt>
      <trkpt lat="47.987" lon="1.92843">
        <ele>137.5280456543</ele>
        <time>2015-09-01T16:01:59.000Z</time>
      </trkpt>
      <trkpt lat="47.98714" lon="1.92847">
        <ele>137.33068847656</ele>
        <time>2015-09-01T16:02:02.000Z</time>
      </trkpt>
      <trkpt lat="47.98727" lon="1.92851">
        <ele>136.88990783691</ele>
        <time>2015-09-01T16:02:05.000Z</time>
      </trkpt>
      <trkpt lat="47.98741" lon="1.92854">
        <ele>136.91236877441</ele>
        <time>2015-09-01T16:02:08.000Z</time>
      </trkpt>
      <trkpt lat="47.98751" lon="1.92857">
        <ele>135.31440734863</ele>
        <time>2015-09-01T16:02:10.000Z</time>
      </trkpt>
      <trkpt lat="47.98766" lon="1.9286">
        <ele>132.75871276855</ele>
        <time>2015-09-01T16:02:13.000Z</time>
      </trkpt>
      <trkpt lat="47.9878" lon="1.92864">
        <ele>132.43284606934</ele>
        <time>2015-09-01T16:02:16.000Z</time>
      </trkpt>
      <trkpt lat="47.98793" lon="1.92868">
        <ele>132.95040893555</ele>
        <time>2015-09-01T16:02:19.000Z</time>
      </trkpt>
      <trkpt lat="47.98804" lon="1.92869">
        <ele>131.92175292969</ele>
        <time>2015-09-01T16:02:21.000Z</time>
      </trkpt>
      <trkpt lat="47.98813" lon="1.92871">
        <ele>131.90277099609</ele>
        <time>2015-09-01T16:02:23.000Z</time>
      </trkpt>
      <trkpt lat="47.98825" lon="1.92875">
        <ele>132.30889892578</ele>
        <time>2015-09-01T16:02:26.000Z</time>
      </trkpt>
      <trkpt lat="47.98837" lon="1.92878">
        <ele>132.29664611816</ele>
        <time>2015-09-01T16:02:29.000Z</time>
      </trkpt>
      <trkpt lat="47.98848" lon="1.9288">
        <ele>132.86851501465</ele>
        <time>2015-09-01T16:02:31.000Z</time>
      </trkpt>
      <trkpt lat="47.98863" lon="1.92883">
        <ele>133.23921203613</ele>
        <time>2015-09-01T16:02:34.000Z</time>
      </trkpt>
      <trkpt lat="47.98873" lon="1.92886">
        <ele>133.47640991211</ele>
        <time>2015-09-01T16:02:36.000Z</time>
      </trkpt>
      <trkpt lat="47.98883" lon="1.92889">
        <ele>133.53392028809</ele>
        <time>2015-09-01T16:02:38.000Z</time>
      </trkpt>
      <trkpt lat="47.98894" lon="1.92891">
        <ele>134.28004455566</ele>
        <time>2015-09-01T16:02:40.000Z</time>
      </trkpt>
      <trkpt lat="47.98909" lon="1.92898">
        <ele>131.31123352051</ele>
        <time>2015-09-01T16:02:43.000Z</time>
      </trkpt>
      <trkpt lat="47.98918" lon="1.92901">
        <ele>130.8719329834</ele>
        <time>2015-09-01T16:02:45.000Z</time>
      </trkpt>
      <trkpt lat="47.98933" lon="1.92907">
        <ele>129.86892700195</ele>
        <time>2015-09-01T16:02:48.000Z</time>
      </trkpt>
      <trkpt lat="47.98944" lon="1.9291">
        <ele>129.89739990234</ele>
        <time>2015-09-01T16:02:50.000Z</time>
      </trkpt>
      <trkpt lat="47.98961" lon="1.92911">
        <ele>129.91638183594</ele>
        <time>2015-09-01T16:02:53.000Z</time>
      </trkpt>
      <trkpt lat="47.98976" lon="1.92912">
        <ele>129.43556213379</ele>
        <time>2015-09-01T16:02:56.000Z</time>
      </trkpt>
      <trkpt lat="47.98986" lon="1.92913">
        <ele>128.41610717773</ele>
        <time>2015-09-01T16:02:58.000Z</time>
      </trkpt>
      <trkpt lat="47.98997" lon="1.92916">
        <ele>128.31011962891</ele>
        <time>2015-09-01T16:03:00.000Z</time>
      </trkpt>
      <trkpt lat="47.99007" lon="1.9292">
        <ele>127.27396392822</ele>
        <time>2015-09-01T16:03:02.000Z</time>
      </trkpt>
      <trkpt lat="47.99019" lon="1.92924">
        <ele>124.67067718506</ele>
        <time>2015-09-01T16:03:04.000Z</time>
      </trkpt>
      <trkpt lat="47.99036" lon="1.92928">
        <ele>122.86940765381</ele>
        <time>2015-09-01T16:03:07.000Z</time>
      </trkpt>
      <trkpt lat="47.99054" lon="1.9293">
        <ele>127.09660339355</ele>
        <time>2015-09-01T16:03:10.000Z</time>
      </trkpt>
      <trkpt lat="47.9907" lon="1.92937">
        <ele>128.51109313965</ele>
        <time>2015-09-01T16:03:13.000Z</time>
      </trkpt>
      <trkpt lat="47.99081" lon="1.92941">
        <ele>129.56117248535</ele>
        <time>2015-09-01T16:03:15.000Z</time>
      </trkpt>
      <trkpt lat="47.99097" lon="1.92947">
        <ele>130.88960266113</ele>
        <time>2015-09-01T16:03:18.000Z</time>
      </trkpt>
      <trkpt lat="47.99108" lon="1.92952">
        <ele>130.89476013184</ele>
        <time>2015-09-01T16:03:20.000Z</time>
      </trkpt>
      <trkpt lat="47.99119" lon="1.92955">
        <ele>132.48710632324</ele>
        <time>2015-09-01T16:03:22.000Z</time>
      </trkpt>
      <trkpt lat="47.9913" lon="1.92956">
        <ele>130.37174987793</ele>
        <time>2015-09-01T16:03:24.000Z</time>
      </trkpt>
      <trkpt lat="47.99139" lon="1.92958">
        <ele>129.8663482666</ele>
        <time>2015-09-01T16:03:26.000Z</time>
      </trkpt>
      <trkpt lat="47.99154" lon="1.9296">
        <ele>128.94683837891</ele>
        <time>2015-09-01T16:03:29.000Z</time>
      </trkpt>
      <trkpt lat="47.99163" lon="1.92961">
        <ele>128.22973632812</ele>
        <time>2015-09-01T16:03:31.000Z</time>
      </trkpt>
      <trkpt lat="47.99174" lon="1.92961">
        <ele>126.46407318115</ele>
        <time>2015-09-01T16:03:33.000Z</time>
      </trkpt>
      <trkpt lat="47.99186" lon="1.92962">
        <ele>126.92370605469</ele>
        <time>2015-09-01T16:03:35.000Z</time>
      </trkpt>
      <trkpt lat="47.99202" lon="1.92965">
        <ele>125.27313232422</ele>
        <time>2015-09-01T16:03:38.000Z</time>
      </trkpt>
      <trkpt lat="47.99213" lon="1.92969">
        <ele>124.25456237793</ele>
        <time>2015-09-01T16:03:40.000Z</time>
      </trkpt>
      <trkpt lat="47.9923" lon="1.92973">
        <ele>123.89064025879</ele>
        <time>2015-09-01T16:03:43.000Z</time>
      </trkpt>
      <trkpt lat="47.99247" lon="1.92979">
        <ele>122.24319458008</ele>
        <time>2015-09-01T16:03:46.000Z</time>
      </trkpt>
      <trkpt lat="47.99258" lon="1.92983">
        <ele>121.87384796143</ele>
        <time>2015-09-01T16:03:48.000Z</time>
      </trkpt>
      <trkpt lat="47.99275" lon="1.92987">
        <ele>121.25137329102</ele>
        <time>2015-09-01T16:03:51.000Z</time>
      </trkpt>
      <trkpt lat="47.99287" lon="1.9299">
        <ele>120.86673736572</ele>
        <time>2015-09-01T16:03:53.000Z</time>
      </trkpt>
      <trkpt lat="47.99306" lon="1.92996">
        <ele>121.50421905518</ele>
        <time>2015-09-01T16:03:56.000Z</time>
      </trkpt>
      <trkpt lat="47.99316" lon="1.92999">
        <ele>121.92057037354</ele>
        <time>2015-09-01T16:03:58.000Z</time>
      </trkpt>
      <trkpt lat="47.99332" lon="1.93004">
        <ele>121.29689025879</ele>
        <time>2015-09-01T16:04:01.000Z</time>
      </trkpt>
      <trkpt lat="47.99344" lon="1.93006">
        <ele>121.86357879639</ele>
        <time>2015-09-01T16:04:03.000Z</time>
      </trkpt>
      <trkpt lat="47.99356" lon="1.93009">
        <ele>120.27344512939</ele>
        <time>2015-09-01T16:04:05.000Z</time>
      </trkpt>
      <trkpt lat="47.99373" lon="1.93016">
        <ele>119.88653564453</ele>
        <time>2015-09-01T16:04:08.000Z</time>
      </trkpt>
      <trkpt lat="47.9939" lon="1.93021">
        <ele>119.89263153076</ele>
        <time>2015-09-01T16:04:11.000Z</time>
      </trkpt>
      <trkpt lat="47.99408" lon="1.93024">
        <ele>120.91359710693</ele>
        <time>2015-09-01T16:04:14.000Z</time>
      </trkpt>
      <trkpt lat="47.99419" lon="1.93026">
        <ele>120.90325927734</ele>
        <time>2015-09-01T16:04:16.000Z</time>
      </trkpt>
      <trkpt lat="47.99435" lon="1.93031">
        <ele>120.89112091064</ele>
        <time>2015-09-01T16:04:19.000Z</time>
      </trkpt>
      <trkpt lat="47.99446" lon="1.93036">
        <ele>121.16605377197</ele>
        <time>2015-09-01T16:04:21.000Z</time>
      </trkpt>
      <trkpt lat="47.99462" lon="1.93041">
        <ele>120.86077880859</ele>
        <time>2015-09-01T16:04:24.000Z</time>
      </trkpt>
      <trkpt lat="47.99472" lon="1.93043">
        <ele>121.28193664551</ele>
        <time>2015-09-01T16:04:26.000Z</time>
      </trkpt>
      <trkpt lat="47.99488" lon="1.93046">
        <ele>120.89214324951</ele>
        <time>2015-09-01T16:04:29.000Z</time>
      </trkpt>
      <trkpt lat="47.99504" lon="1.93049">
        <ele>121.8823928833</ele>
        <time>2015-09-01T16:04:32.000Z</time>
      </trkpt>
      <trkpt lat="47.99514" lon="1.93051">
        <ele>123.49384307861</ele>
        <time>2015-09-01T16:04:34.000Z</time>
      </trkpt>
      <trkpt lat="47.9953" lon="1.93055">
        <ele>123.89745330811</ele>
        <time>2015-09-01T16:04:37.000Z</time>
      </trkpt>
      <trkpt lat="47.99546" lon="1.93063">
        <ele>124.50386047363</ele>
        <time>2015-09-01T16:04:40.000Z</time>
      </trkpt>
      <trkpt lat="47.99562" lon="1.93065">
        <ele>125.34121704102</ele>
        <time>2015-09-01T16:04:43.000Z</time>
      </trkpt>
      <trkpt lat="47.9957" lon="1.93065">
        <ele>124.90279388428</ele>
        <time>2015-09-01T16:04:45.000Z</time>
      </trkpt>
      <trkpt lat="47.99582" lon="1.93068">
        <ele>126.39112091064</ele>
        <time>2015-09-01T16:04:48.000Z</time>
      </trkpt>
      <trkpt lat="47.99592" lon="1.93078">
        <ele>126.21050262451</ele>
        <time>2015-09-01T16:04:51.000Z</time>
      </trkpt>
      <trkpt lat="47.99598" lon="1.93089">
        <ele>126.95963287354</ele>
        <time>2015-09-01T16:04:54.000Z</time>
      </trkpt>
      <trkpt lat="47.99609" lon="1.93097">
        <ele>127.86676025391</ele>
        <time>2015-09-01T16:04:57.000Z</time>
      </trkpt>
      <trkpt lat="47.99623" lon="1.93106">
        <ele>131.4122467041</ele>
        <time>2015-09-01T16:05:00.000Z</time>
      </trkpt>
      <trkpt lat="47.99635" lon="1.93116">
        <ele>133.89402770996</ele>
        <time>2015-09-01T16:05:03.000Z</time>
      </trkpt>
      <trkpt lat="47.99646" lon="1.93121">
        <ele>132.35847473145</ele>
        <time>2015-09-01T16:05:06.000Z</time>
      </trkpt>
      <trkpt lat="47.99662" lon="1.93133">
        <ele>132.30844116211</ele>
        <time>2015-09-01T16:05:09.000Z</time>
      </trkpt>
      <trkpt lat="47.9967" lon="1.93134">
        <ele>133.3465423584</ele>
        <time>2015-09-01T16:05:11.000Z</time>
      </trkpt>
      <trkpt lat="47.99677" lon="1.93137">
        <ele>132.51770019531</ele>
        <time>2015-09-01T16:05:13.000Z</time>
      </trkpt>
      <trkpt lat="47.99685" lon="1.93143">
        <ele>128.59620666504</ele>
        <time>2015-09-01T16:05:16.000Z</time>
      </trkpt>
      <trkpt lat="47.99689" lon="1.93158">
        <ele>124.3539276123</ele>
        <time>2015-09-01T16:05:19.000Z</time>
      </trkpt>
      <trkpt lat="47.9969" lon="1.93167">
        <ele>124.44239807129</ele>
        <time>2015-09-01T16:05:21.000Z</time>
      </trkpt>
      <trkpt lat="47.99692" lon="1.93183">
        <ele>124.47610473633</ele>
        <time>2015-09-01T16:05:24.000Z</time>
      </trkpt>
      <trkpt lat="47.99697" lon="1.93211">
        <ele>122.24163818359</ele>
        <time>2015-09-01T16:05:27.000Z</time>
      </trkpt>
      <trkpt lat="47.99701" lon="1.9323">
        <ele>122.24559020996</ele>
        <time>2015-09-01T16:05:29.000Z</time>
      </trkpt>
      <trkpt lat="47.99709" lon="1.93253">
        <ele>121.3000793457</ele>
        <time>2015-09-01T16:05:32.000Z</time>
      </trkpt>
      <trkpt lat="47.99719" lon="1.93276">
        <ele>120.91510009766</ele>
        <time>2015-09-01T16:05:35.000Z</time>
      </trkpt>
      <trkpt lat="47.99725" lon="1.93291">
        <ele>120.91687774658</ele>
        <time>2015-09-01T16:05:37.000Z</time>
      </trkpt>
      <trkpt lat="47.99734" lon="1.93313">
        <ele>120.91223907471</ele>
        <time>2015-09-01T16:05:40.000Z</time>
      </trkpt>
      <trkpt lat="47.9974" lon="1.9333">
        <ele>120.93647766113</ele>
        <time>2015-09-01T16:05:42.000Z</time>
      </trkpt>
      <trkpt lat="47.99749" lon="1.93353">
        <ele>120.92232513428</ele>
        <time>2015-09-01T16:05:45.000Z</time>
      </trkpt>
      <trkpt lat="47.99755" lon="1.93368">
        <ele>120.93258666992</ele>
        <time>2015-09-01T16:05:47.000Z</time>
      </trkpt>
      <trkpt lat="47.99763" lon="1.93391">
        <ele>120.92371368408</ele>
        <time>2015-09-01T16:05:50.000Z</time>
      </trkpt>
      <trkpt lat="47.99772" lon="1.93417">
        <ele>121.48497009277</ele>
        <time>2015-09-01T16:05:53.000Z</time>
      </trkpt>
      <trkpt lat="47.99776" lon="1.93433">
        <ele>121.44158172607</ele>
        <time>2015-09-01T16:05:55.000Z</time>
      </trkpt>
      <trkpt lat="47.99777" lon="1.93452">
        <ele>121.34065246582</ele>
        <time>2015-09-01T16:05:57.000Z</time>
      </trkpt>
      <trkpt lat="47.99776" lon="1.9348">
        <ele>121.5599822998</ele>
        <time>2015-09-01T16:06:00.000Z</time>
      </trkpt>
      <trkpt lat="47.99772" lon="1.93497">
        <ele>121.52062225342</ele>
        <time>2015-09-01T16:06:02.000Z</time>
      </trkpt>
      <trkpt lat="47.99765" lon="1.93524">
        <ele>121.03910827637</ele>
        <time>2015-09-01T16:06:05.000Z</time>
      </trkpt>
      <trkpt lat="47.99759" lon="1.9355">
        <ele>121.18280029297</ele>
        <time>2015-09-01T16:06:08.000Z</time>
      </trkpt>
      <trkpt lat="47.99754" lon="1.93577">
        <ele>121.05305480957</ele>
        <time>2015-09-01T16:06:11.000Z</time>
      </trkpt>
      <trkpt lat="47.99749" lon="1.93602">
        <ele>121.0524520874</ele>
        <time>2015-09-01T16:06:14.000Z</time>
      </trkpt>
      <trkpt lat="47.99747" lon="1.93618">
        <ele>121.05657196045</ele>
        <time>2015-09-01T16:06:16.000Z</time>
      </trkpt>
      <trkpt lat="47.99744" lon="1.93642">
        <ele>120.22219848633</ele>
        <time>2015-09-01T16:06:19.000Z</time>
      </trkpt>
      <trkpt lat="47.99745" lon="1.93657">
        <ele>120.20540618896</ele>
        <time>2015-09-01T16:06:21.000Z</time>
      </trkpt>
      <trkpt lat="47.99748" lon="1.93668">
        <ele>120.74554443359</ele>
        <time>2015-09-01T16:06:23.000Z</time>
      </trkpt>
      <trkpt lat="47.99756" lon="1.93683">
        <ele>120.9201965332</ele>
        <time>2015-09-01T16:06:26.000Z</time>
      </trkpt>
      <trkpt lat="47.99762" lon="1.93685">
        <ele>120.91056060791</ele>
        <time>2015-09-01T16:06:28.000Z</time>
      </trkpt>
      <trkpt lat="47.9977" lon="1.93688">
        <ele>120.91466522217</ele>
        <time>2015-09-01T16:06:30.000Z</time>
      </trkpt>
      <trkpt lat="47.99778" lon="1.93692">
        <ele>121.4616317749</ele>
        <time>2015-09-01T16:06:33.000Z</time>
      </trkpt>
      <trkpt lat="47.99783" lon="1.93696">
        <ele>120.43836975098</ele>
        <time>2015-09-01T16:06:35.000Z</time>
      </trkpt>
      <trkpt lat="47.99785" lon="1.93704">
        <ele>120.47846984863</ele>
        <time>2015-09-01T16:06:37.000Z</time>
      </trkpt>
      <trkpt lat="47.99784" lon="1.9372">
        <ele>120.68996429443</ele>
        <time>2015-09-01T16:06:40.000Z</time>
      </trkpt>
      <trkpt lat="47.99783" lon="1.93733">
        <ele>120.88143920898</ele>
        <time>2015-09-01T16:06:42.000Z</time>
      </trkpt>
      <trkpt lat="47.99783" lon="1.93745">
        <ele>121.03887939453</ele>
        <time>2015-09-01T16:06:44.000Z</time>
      </trkpt>
      <trkpt lat="47.99783" lon="1.93764">
        <ele>121.38922119141</ele>
        <time>2015-09-01T16:06:47.000Z</time>
      </trkpt>
      <trkpt lat="47.99783" lon="1.93778">
        <ele>122.0311126709</ele>
        <time>2015-09-01T16:06:49.000Z</time>
      </trkpt>
      <trkpt lat="47.99781" lon="1.93791">
        <ele>122.66046905518</ele>
        <time>2015-09-01T16:06:51.000Z</time>
      </trkpt>
      <trkpt lat="47.99773" lon="1.93803">
        <ele>123.17854309082</ele>
        <time>2015-09-01T16:06:54.000Z</time>
      </trkpt>
      <trkpt lat="47.99766" lon="1.93811">
        <ele>123.59143066406</ele>
        <time>2015-09-01T16:06:56.000Z</time>
      </trkpt>
      <trkpt lat="47.99758" lon="1.93816">
        <ele>125.00260162354</ele>
        <time>2015-09-01T16:06:58.000Z</time>
      </trkpt>
      <trkpt lat="47.99747" lon="1.93826">
        <ele>124.61531829834</ele>
        <time>2015-09-01T16:07:01.000Z</time>
      </trkpt>
      <trkpt lat="47.99741" lon="1.93831">
        <ele>125.57609558105</ele>
        <time>2015-09-01T16:07:03.000Z</time>
      </trkpt>
      <trkpt lat="47.99732" lon="1.93837">
        <ele>127.0270690918</ele>
        <time>2015-09-01T16:07:05.000Z</time>
      </trkpt>
      <trkpt lat="47.99719" lon="1.93846">
        <ele>128.9387512207</ele>
        <time>2015-09-01T16:07:08.000Z</time>
      </trkpt>
      <trkpt lat="47.9971" lon="1.93852">
        <ele>128.45758056641</ele>
        <time>2015-09-01T16:07:10.000Z</time>
      </trkpt>
      <trkpt lat="47.99701" lon="1.9386">
        <ele>128.03120422363</ele>
        <time>2015-09-01T16:07:12.000Z</time>
      </trkpt>
      <trkpt lat="47.99688" lon="1.93868">
        <ele>128.65298461914</ele>
        <time>2015-09-01T16:07:15.000Z</time>
      </trkpt>
      <trkpt lat="47.99678" lon="1.93876">
        <ele>128.10237121582</ele>
        <time>2015-09-01T16:07:17.000Z</time>
      </trkpt>
      <trkpt lat="47.99664" lon="1.93887">
        <ele>128.64788818359</ele>
        <time>2015-09-01T16:07:20.000Z</time>
      </trkpt>
      <trkpt lat="47.99654" lon="1.93895">
        <ele>126.74055480957</ele>
        <time>2015-09-01T16:07:22.000Z</time>
      </trkpt>
      <trkpt lat="47.9964" lon="1.93903">
        <ele>128.08676147461</ele>
        <time>2015-09-01T16:07:25.000Z</time>
      </trkpt>
      <trkpt lat="47.99629" lon="1.93909">
        <ele>129.25482177734</ele>
        <time>2015-09-01T16:07:27.000Z</time>
      </trkpt>
      <trkpt lat="47.99619" lon="1.93917">
        <ele>130.09991455078</ele>
        <time>2015-09-01T16:07:29.000Z</time>
      </trkpt>
      <trkpt lat="47.99603" lon="1.93928">
        <ele>128.3928527832</ele>
        <time>2015-09-01T16:07:32.000Z</time>
      </trkpt>
      <trkpt lat="47.99593" lon="1.93935">
        <ele>128.04496765137</ele>
        <time>2015-09-01T16:07:34.000Z</time>
      </trkpt>
      <trkpt lat="47.99583" lon="1.93938">
        <ele>131.1887512207</ele>
        <time>2015-09-01T16:07:36.000Z</time>
      </trkpt>
      <trkpt lat="47.99568" lon="1.9395">
        <ele>131.04571533203</ele>
        <time>2015-09-01T16:07:39.000Z</time>
      </trkpt>
      <trkpt lat="47.99558" lon="1.93957">
        <ele>130.45889282227</ele>
        <time>2015-09-01T16:07:41.000Z</time>
      </trkpt>
      <trkpt lat="47.99541" lon="1.93969">
        <ele>128.0753326416</ele>
        <time>2015-09-01T16:07:44.000Z</time>
      </trkpt>
      <trkpt lat="47.99532" lon="1.93979">
        <ele>126.16410827637</ele>
        <time>2015-09-01T16:07:46.000Z</time>
      </trkpt>
      <trkpt lat="47.99521" lon="1.93987">
        <ele>124.69267272949</ele>
        <time>2015-09-01T16:07:48.000Z</time>
      </trkpt>
      <trkpt lat="47.99507" lon="1.93998">
        <ele>125.64775085449</ele>
        <time>2015-09-01T16:07:51.000Z</time>
      </trkpt>
      <trkpt lat="47.99496" lon="1.94006">
        <ele>128.46224975586</ele>
        <time>2015-09-01T16:07:54.000Z</time>
      </trkpt>
      <trkpt lat="47.99488" lon="1.94013">
        <ele>129.09548950195</ele>
        <time>2015-09-01T16:07:56.000Z</time>
      </trkpt>
      <trkpt lat="47.99474" lon="1.94024">
        <ele>128.08898925781</ele>
        <time>2015-09-01T16:07:59.000Z</time>
      </trkpt>
      <trkpt lat="47.99467" lon="1.94032">
        <ele>125.72454833984</ele>
        <time>2015-09-01T16:08:01.000Z</time>
      </trkpt>
      <trkpt lat="47.99458" lon="1.94039">
        <ele>124.01839447021</ele>
        <time>2015-09-01T16:08:04.000Z</time>
      </trkpt>
      <trkpt lat="47.99455" lon="1.94041">
        <ele>124.02230072021</ele>
        <time>2015-09-01T16:08:06.000Z</time>
      </trkpt>
      <trkpt lat="47.99448" lon="1.94045">
        <ele>124.04285430908</ele>
        <time>2015-09-01T16:08:09.000Z</time>
      </trkpt>
      <trkpt lat="47.99435" lon="1.94056">
        <ele>123.12242126465</ele>
        <time>2015-09-01T16:08:12.000Z</time>
      </trkpt>
      <trkpt lat="47.99426" lon="1.94064">
        <ele>123.04249572754</ele>
        <time>2015-09-01T16:08:14.000Z</time>
      </trkpt>
      <trkpt lat="47.99411" lon="1.94075">
        <ele>122.63372802734</ele>
        <time>2015-09-01T16:08:17.000Z</time>
      </trkpt>
      <trkpt lat="47.99401" lon="1.94083">
        <ele>123.07885742188</ele>
        <time>2015-09-01T16:08:19.000Z</time>
      </trkpt>
      <trkpt lat="47.99387" lon="1.94094">
        <ele>123.06100463867</ele>
        <time>2015-09-01T16:08:22.000Z</time>
      </trkpt>
      <trkpt lat="47.99371" lon="1.94106">
        <ele>123.05487060547</ele>
        <time>2015-09-01T16:08:25.000Z</time>
      </trkpt>
      <trkpt lat="47.99362" lon="1.94113">
        <ele>124.01554870605</ele>
        <time>2015-09-01T16:08:27.000Z</time>
      </trkpt>
      <trkpt lat="47.99345" lon="1.94125">
        <ele>123.07774353027</ele>
        <time>2015-09-01T16:08:30.000Z</time>
      </trkpt>
      <trkpt lat="47.99337" lon="1.94131">
        <ele>123.04768371582</ele>
        <time>2015-09-01T16:08:32.000Z</time>
      </trkpt>
      <trkpt lat="47.99321" lon="1.9414">
        <ele>123.48844146729</ele>
        <time>2015-09-01T16:08:35.000Z</time>
      </trkpt>
      <trkpt lat="47.99305" lon="1.94152">
        <ele>123.04888153076</ele>
        <time>2015-09-01T16:08:38.000Z</time>
      </trkpt>
      <trkpt lat="47.99288" lon="1.94163">
        <ele>123.06230163574</ele>
        <time>2015-09-01T16:08:41.000Z</time>
      </trkpt>
      <trkpt lat="47.99272" lon="1.94175">
        <ele>123.60411834717</ele>
        <time>2015-09-01T16:08:44.000Z</time>
      </trkpt>
      <trkpt lat="47.9926" lon="1.94185">
        <ele>123.80184936523</ele>
        <time>2015-09-01T16:08:46.000Z</time>
      </trkpt>
      <trkpt lat="47.99248" lon="1.94193">
        <ele>124.45999908447</ele>
        <time>2015-09-01T16:08:48.000Z</time>
      </trkpt>
      <trkpt lat="47.99231" lon="1.94206">
        <ele>124.66938781738</ele>
        <time>2015-09-01T16:08:51.000Z</time>
      </trkpt>
      <trkpt lat="47.9922" lon="1.94214">
        <ele>124.09483337402</ele>
        <time>2015-09-01T16:08:53.000Z</time>
      </trkpt>
      <trkpt lat="47.99204" lon="1.94226">
        <ele>124.05784606934</ele>
        <time>2015-09-01T16:08:56.000Z</time>
      </trkpt>
      <trkpt lat="47.99189" lon="1.94236">
        <ele>125.08348083496</ele>
        <time>2015-09-01T16:08:59.000Z</time>
      </trkpt>
      <trkpt lat="47.99179" lon="1.94244">
        <ele>125.05995941162</ele>
        <time>2015-09-01T16:09:01.000Z</time>
      </trkpt>
      <trkpt lat="47.99167" lon="1.94252">
        <ele>125.06085205078</ele>
        <time>2015-09-01T16:09:03.000Z</time>
      </trkpt>
      <trkpt lat="47.99151" lon="1.94265">
        <ele>125.06041717529</ele>
        <time>2015-09-01T16:09:06.000Z</time>
      </trkpt>
      <trkpt lat="47.99139" lon="1.94273">
        <ele>125.06085205078</ele>
        <time>2015-09-01T16:09:08.000Z</time>
      </trkpt>
      <trkpt lat="47.99123" lon="1.94286">
        <ele>124.67960357666</ele>
        <time>2015-09-01T16:09:11.000Z</time>
      </trkpt>
      <trkpt lat="47.99112" lon="1.94294">
        <ele>125.07541656494</ele>
        <time>2015-09-01T16:09:13.000Z</time>
      </trkpt>
      <trkpt lat="47.99096" lon="1.94306">
        <ele>125.06532287598</ele>
        <time>2015-09-01T16:09:16.000Z</time>
      </trkpt>
      <trkpt lat="47.99081" lon="1.94317">
        <ele>124.07555389404</ele>
        <time>2015-09-01T16:09:19.000Z</time>
      </trkpt>
      <trkpt lat="47.99064" lon="1.94328">
        <ele>124.1365814209</ele>
        <time>2015-09-01T16:09:22.000Z</time>
      </trkpt>
      <trkpt lat="47.99052" lon="1.94337">
        <ele>125.00000762939</ele>
        <time>2015-09-01T16:09:25.000Z</time>
      </trkpt>
      <trkpt lat="47.98453" lon="1.93859">
        <ele>135.6</ele>
      </trkpt>
      <trkpt lat="47.9847" lon="1.94386">
        <ele>134.4</ele>
      </trkpt>
      <trkpt lat="47.97661" lon="1.94076">
        <ele>135.2</ele>
      </trkpt>
      <trkpt lat="47.97257" lon="1.94785">
        <ele>128</ele>
      </trkpt>
      <trkpt lat="47.97199" lon="1.95007">
        <ele>127.4</ele>
      </trkpt>
      <trkpt lat="47.97186" lon="1.9512">
        <ele>128</ele>
      </trkpt>
      <trkpt lat="47.97167" lon="1.95185">
        <ele>130.5</ele>
      </trkpt>
      <trkpt lat="47.97151" lon="1.95211">
        <ele>131</ele>
      </trkpt>
      <trkpt lat="47.97115" lon="1.95247">
        <ele>131.1</ele>
      </trkpt>
      <trkpt lat="47.9692" lon="1.95416">
        <ele>134.9</ele>
      </trkpt>
      <trkpt lat="47.96905" lon="1.95429">
        <ele>134.8</ele>
      </trkpt>
      <trkpt lat="47.96855" lon="1.95461">
        <ele>134.4</ele>
      </trkpt>
      <trkpt lat="47.96846" lon="1.95471">
        <ele>134.3</ele>
      </trkpt>
      <trkpt lat="47.96765" lon="1.95632">
        <ele>134.1</ele>
      </trkpt>
      <trkpt lat="47.96759" lon="1.95658">
        <ele>133.5</ele>
      </trkpt>
      <trkpt lat="47.96715" lon="1.95798">
        <ele>136.7</ele>
      </trkpt>
      <trkpt lat="47.96732" lon="1.95833">
        <ele>136.5</ele>
      </trkpt>
      <trkpt lat="47.96745" lon="1.96068">
        <ele>139.2</ele>
      </trkpt>
      <trkpt lat="47.96628" lon="1.96016">
        <ele>134.7</ele>
      </trkpt>
      <trkpt lat="47.96501" lon="1.9579">
        <ele>142.5</ele>
      </trkpt>
      <trkpt lat="47.96333" lon="1.95765">
        <ele>139.1</ele>
      </trkpt>
      <trkpt lat="47.96284" lon="1.95941">
        <ele>133.7</ele>
      </trkpt>
      <trkpt lat="47.962" lon="1.95983">
        <ele>133.6</ele>
      </trkpt>
      <trkpt lat="47.96057" lon="1.95961">
        <ele>130.9</ele>
      </trkpt>
      <trkpt lat="47.96036" lon="1.95989">
        <ele>130.8</ele>
      </trkpt>
      <trkpt lat="47.96036" lon="1.96143">
        <ele>129.3</ele>
      </trkpt>
      <trkpt lat="47.9606" lon="1.96284">
        <ele>128.7</ele>
      </trkpt>
      <trkpt lat="47.9607" lon="1.96322">
        <ele>129</ele>
      </trkpt>
      <trkpt lat="47.95966" lon="1.96344">
        <ele>126.5</ele>
      </trkpt>
      <trkpt lat="47.95916" lon="1.96351">
        <ele>129.3</ele>
      </trkpt>
      <trkpt lat="47.95881" lon="1.96341">
        <ele>130.4</ele>
      </trkpt>
      <trkpt lat="47.95844" lon="1.9631">
        <ele>131.2</ele>
      </trkpt>
      <trkpt lat="47.95813" lon="1.96284">
        <ele>131.3</ele>
      </trkpt>
      <trkpt lat="47.95714" lon="1.9617">
        <ele>128.3</ele>
      </trkpt>
      <trkpt lat="47.95709" lon="1.96178">
        <ele>128.2</ele>
      </trkpt>
      <trkpt lat="47.95699" lon="1.97273">
        <ele>128.3</ele>
      </trkpt>
      <trkpt lat="47.95697" lon="1.97281">
        <ele>128.2</ele>
      </trkpt>
      <trkpt lat="47.95819" lon="1.97587">
        <ele>127</ele>
      </trkpt>
      <trkpt lat="47.95687" lon="1.97654">
        <ele>126</ele>
      </trkpt>
      <trkpt lat="47.95675" lon="1.97653">
        <ele>126</ele>
      </trkpt>
      <trkpt lat="47.95667" lon="1.97651">
        <ele>126</ele>
      </trkpt>
      <trkpt lat="47.95666" lon="1.97624">
        <ele>126.4</ele>
      </trkpt>
      <trkpt lat="47.95661" lon="1.97613">
        <ele>126.3</ele>
      </trkpt>
      <trkpt lat="47.95649" lon="1.97671">
        <ele>126.3</ele>
      </trkpt>
      <trkpt lat="47.95271" lon="1.97886">
        <ele>122.2</ele>
      </trkpt>
      <trkpt lat="47.95335" lon="1.98172">
        <ele>120.9</ele>
      </trkpt>
      <trkpt lat="47.95338" lon="1.98182">
        <ele>120.7</ele>
      </trkpt>
      <trkpt lat="47.9534" lon="1.98226">
        <ele>120.6</ele>
      </trkpt>
      <trkpt lat="47.95347" lon="1.98259">
        <ele>120.3</ele>
      </trkpt>
      <trkpt lat="47.95359" lon="1.98306">
        <ele>119.6</ele>
      </trkpt>
      <trkpt lat="47.95322" lon="1.98304">
        <ele>120.2</ele>
      </trkpt>
      <trkpt lat="47.95294" lon="1.98302">
        <ele>120.2</ele>
      </trkpt>
      <trkpt lat="47.95265" lon="1.98294">
        <ele>120.2</ele>
      </trkpt>
      <trkpt lat="47.95247" lon="1.98305">
        <ele>120.3</ele>
      </trkpt>
      <trkpt lat="47.95185" lon="1.98302">
        <ele>120.5</ele>
      </trkpt>
      <trkpt lat="47.9515" lon="1.98315">
        <ele>120.1</ele>
      </trkpt>
      <trkpt lat="47.9502" lon="1.98328">
        <ele>119.1</ele>
      </trkpt>
      <trkpt lat="47.94992" lon="1.98313">
        <ele>118.9</ele>
      </trkpt>
      <trkpt lat="47.94978" lon="1.98327">
        <ele>118.8</ele>
      </trkpt>
      <trkpt lat="47.94975" lon="1.98362">
        <ele>118</ele>
      </trkpt>
      <trkpt lat="47.95004" lon="1.98489">
        <ele>118.2</ele>
      </trkpt>
      <trkpt lat="47.95031" lon="1.98491">
        <ele>118.7</ele>
      </trkpt>
      <trkpt lat="47.95062" lon="1.98469">
        <ele>119.1</ele>
      </trkpt>
      <trkpt lat="47.95078" lon="1.98459">
        <ele>118.9</ele>
      </trkpt>
      <trkpt lat="47.95111" lon="1.9845">
        <ele>120.1</ele>
      </trkpt>
      <trkpt lat="47.95132" lon="1.9845">
        <ele>120.4</ele>
      </trkpt>
      <trkpt lat="47.95159" lon="1.98453">
        <ele>120.7</ele>
      </trkpt>
      <trkpt lat="47.95198" lon="1.98452">
        <ele>122</ele>
      </trkpt>
      <trkpt lat="47.95284" lon="1.98471">
        <ele>122.8</ele>
      </trkpt>
      <trkpt lat="47.9532" lon="1.98477">
        <ele>122.6</ele>
      </trkpt>
      <trkpt lat="47.95349" lon="1.98482">
        <ele>121.1</ele>
      </trkpt>
      <trkpt lat="47.95366" lon="1.9848">
        <ele>120.4</ele>
      </trkpt>
      <trkpt lat="47.95377" lon="1.98473">
        <ele>119.9</ele>
      </trkpt>
      <trkpt lat="47.95394" lon="1.9846">
        <ele>119.6</ele>
      </trkpt>
      <trkpt lat="47.95433" lon="1.98441">
        <ele>118.4</ele>
      </trkpt>
      <trkpt lat="47.95447" lon="1.98432">
        <ele>118.4</ele>
      </trkpt>
      <trkpt lat="47.95456" lon="1.98423">
        <ele>118.4</ele>
      </trkpt>
      <trkpt lat="47.95464" lon="1.98416">
        <ele>118.6</ele>
      </trkpt>
      <trkpt lat="47.9547" lon="1.98395">
        <ele>118.7</ele>
      </trkpt>
      <trkpt lat="47.95475" lon="1.98382">
        <ele>118.7</ele>
      </trkpt>
      <trkpt lat="47.95479" lon="1.98345">
        <ele>119.1</ele>
      </trkpt>
      <trkpt lat="47.95481" lon="1.98312">
        <ele>119.5</ele>
      </trkpt>
      <trkpt lat="47.95485" lon="1.9826">
        <ele>119.6</ele>
      </trkpt>
      <trkpt lat="47.95488" lon="1.98233">
        <ele>119.8</ele>
      </trkpt>
      <trkpt lat="47.95498" lon="1.9818">
        <ele>119.9</ele>
      </trkpt>
      <trkpt lat="47.96286" lon="1.98171">
        <ele>132.8</ele>
      </trkpt>
      <trkpt lat="47.96006" lon="1.97621">
        <ele>129.4</ele>
      </trkpt>
      <trkpt lat="47.96018" lon="1.97608">
        <ele>129.1</ele>
      </trkpt>
      <trkpt lat="47.96063" lon="1.97555">
        <ele>127.6</ele>
      </trkpt>
      <trkpt lat="47.96206" lon="1.97508">
        <ele>123.7</ele>
      </trkpt>
      <trkpt lat="47.96431" lon="1.9745">
        <ele>126.4</ele>
      </trkpt>
      <trkpt lat="47.96621" lon="1.97519">
        <ele>128.1</ele>
      </trkpt>
      <trkpt lat="47.96667" lon="1.97476">
        <ele>127.4</ele>
      </trkpt>
      <trkpt lat="47.96681" lon="1.97517">
        <ele>128.4</ele>
      </trkpt>
      <trkpt lat="47.9668" lon="1.9754">
        <ele>128.9</ele>
      </trkpt>
      <trkpt lat="47.96696" lon="1.97538">
        <ele>129</ele>
      </trkpt>
      <trkpt lat="47.96771" lon="1.9747">
        <ele>130.5</ele>
      </trkpt>
      <trkpt lat="47.96779" lon="1.97463">
        <ele>130.6</ele>
      </trkpt>
      <trkpt lat="47.96804" lon="1.97448">
        <ele>130.9</ele>
      </trkpt>
      <trkpt lat="47.96816" lon="1.97441">
        <ele>131.1</ele>
      </trkpt>
      <trkpt lat="47.96959" lon="1.97208">
        <ele>130.3</ele>
      </trkpt>
      <trkpt lat="47.97042" lon="1.97339">
        <ele>131.7</ele>
      </trkpt>
      <trkpt lat="47.97107" lon="1.97476">
        <ele>130.6</ele>
      </trkpt>
      <trkpt lat="47.97152" lon="1.97577">
        <ele>131.2</ele>
      </trkpt>
      <trkpt lat="47.97215" lon="1.97684">
        <ele>136.5</ele>
      </trkpt>
      <trkpt lat="47.97547" lon="1.98056">
        <ele>140.7</ele>
      </trkpt>
      <trkpt lat="47.97648" lon="1.98138">
        <ele>141.9</ele>
      </trkpt>
      <trkpt lat="47.97695" lon="1.98138">
        <ele>143.1</ele>
      </trkpt>
      <trkpt lat="47.97712" lon="1.98144">
        <ele>143.2</ele>
      </trkpt>
      <trkpt lat="47.97721" lon="1.98143">
        <ele>143.3</ele>
      </trkpt>
      <trkpt lat="47.98102" lon="1.98125">
        <ele>142.4</ele>
      </trkpt>
      <trkpt lat="47.98105" lon="1.98144">
        <ele>142.5</ele>
      </trkpt>
      <trkpt lat="47.98113" lon="1.98156">
        <ele>142.5</ele>
      </trkpt>
      <trkpt lat="47.98117" lon="1.98161">
        <ele>142.4</ele>
      </trkpt>
      <trkpt lat="47.98121" lon="1.98164">
        <ele>142.4</ele>
      </trkpt>
      <trkpt lat="47.98123" lon="1.98166">
        <ele>142.4</ele>
      </trkpt>
      <trkpt lat="47.98132" lon="1.9817">
        <ele>141.7</ele>
      </trkpt>
      <trkpt lat="47.98133" lon="1.98267">
        <ele>139</ele>
      </trkpt>
      <trkpt lat="47.98643" lon="1.98533">
        <ele>131.6</ele>
      </trkpt>
      <trkpt lat="47.98737" lon="1.99251">
        <ele>135.6</ele>
      </trkpt>
      <trkpt lat="47.98864" lon="2.00172">
        <ele>136</ele>
      </trkpt>
      <trkpt lat="47.98876" lon="2.00184">
        <ele>136.4</ele>
      </trkpt>
      <trkpt lat="47.994" lon="1.99085">
        <ele>133.7</ele>
      </trkpt>
      <trkpt lat="47.99405" lon="1.99077">
        <ele>133.8</ele>
      </trkpt>
      <trkpt lat="47.9941" lon="1.9904">
        <ele>133.9</ele>
      </trkpt>
      <trkpt lat="47.99418" lon="1.99033">
        <ele>134.6</ele>
      </trkpt>
    </trkseg>
  </trk>
</gpx>